[[{"header":{"parameterUnit":"m.s-1","parameterCategory":1,"la1":30.6,"la2":29.2853,"lo1":-89.7004,"lo2":-87.6739,"dy":0.0162,"dx":0.0183,"nx":112,"ny":82,"refTime":"2024-06-19T06:00:00:Z","depth":0,"parameterNumber":2,"parameterNumberName":"U-component_of_WINDS"},"data":[0.0,0.0,0.0,0.0,0.0,0.0,0.0,0.0,0.0,0.0,0.0,0.0,0.0,0.0,0.0,0.0,0.0,0.0,0.0,0.0,0.0,0.0,0.0,0.0,0.0,0.0,0.0,0.0,0.0,0.0,0.0,0.0,0.0,0.0,0.0,0.0,0.0,0.0,0.0,0.0,0.0,0.0,0.0,0.0,0.0,0.0,0.0,0.0,0.0,0.0,0.0,0.0,0.0,0.0,0.0,0.0,0.0,0.0,0.0,0.0,0.0,0.0,0.0,0.0,0.0,0.0,0.0,0.0,0.0,0.0,0.0,0.0,0.0,0.0,0.0,0.0,0.0,0.0,0.0,0.0,0.0,0.0,0.0,0.0,0.0,0.0,0.0,0.0,0.0,0.0,1.3573,1.3971,1.2086,1.0658,1.0268,0.8316,0.6579,0.5397,0.0,0.0,0.0,0.0,0.0,0.0,0.0,0.0,0.0,0.0,0.0,0.0,0.0,0.0,0.0,0.0,0.0,0.0,0.0,0.0,0.0,0.0,0.0,0.0,0.0,0.0,0.0,0.0,0.0,0.0,0.0,0.0,0.0,0.0,0.0,0.0,0.0,0.0,0.0,0.0,0.0,0.0,0.0,0.0,0.0,0.0,0.0,0.0,0.0,0.0,0.0,0.0,0.0,0.0,0.0,0.0,0.0,0.0,0.0,0.0,0.0,0.0,0.0,0.0,0.0,0.0,0.0,0.0,0.0,0.0,0.0,0.0,0.0,0.0,0.0,0.0,0.0,0.0,0.0,0.0,0.0,0.0,0.0,0.0,0.0,0.0,0.0,0.0,0.0,0.0,0.0,0.0,0.0,0.0,0.0,0.0,0.0,0.0,0.0,0.0,0.0,0.0,0.0,0.0,1.3146,1.1966,0.9677,0.7326,0.5124,0.6276,0.5343,0.1198,0.0,0.0,0.0,0.0,0.0,0.0,0.0,0.0,0.0,0.0,0.0,0.0,0.0,0.0,0.0,0.0,0.0,0.0,0.0,0.0,0.0,0.0,0.0,0.0,0.0,0.0,0.0,0.0,0.0,0.0,0.0,0.0,0.0,0.0,0.0,0.0,0.0,0.0,0.0,0.0,0.0,0.0,0.0,0.0,0.0,0.0,0.0,0.0,0.0,0.0,0.0,0.0,0.0,0.0,0.0,0.0,0.0,0.0,0.0,0.0,0.0,0.0,0.0,0.0,0.0,0.0,0.0,0.0,0.0,0.0,0.0,0.0,0.0,0.0,0.0,0.0,0.0,0.0,0.0,0.0,0.0,0.0,0.0,0.0,0.0,0.0,0.0,0.0,0.0,0.0,0.0,0.0,0.0,0.0,0.0,0.0,0.0,0.0,0.0,0.0,0.0,0.0,0.0,1.1118,1.139,0.9612,0.7158,0.5167,0.3998,0.3487,0.2312,0.0124,0.1037,0.0,0.0,0.0,0.0,0.0,0.0,0.0,0.0,0.0,0.0,0.0,0.0,0.0,0.0,0.0,0.0,0.0,0.0,0.0,0.0,0.0,0.0,0.0,0.0,0.0,0.0,0.0,0.0,0.0,0.0,0.0,0.0,0.0,0.0,0.0,0.0,0.0,0.0,0.0,0.0,0.0,0.0,0.0,0.0,0.0,0.0,0.0,0.0,0.0,0.0,0.0,0.0,0.0,0.0,0.0,0.0,0.0,0.0,0.0,0.0,0.0,0.0,0.0,0.0,0.0,0.0,0.0,0.0,0.0,0.0,0.0,0.0,0.0,0.0,0.0,0.0,0.0,0.0,0.0,0.0,0.0,0.0,0.0,0.0,0.0,0.0,0.0,0.0,0.0,0.0,0.0,0.0,0.0,0.0,0.0,0.0,0.0,0.0,0.0,0.0,0.0,0.0,0.868,0.8472,0.7076,0.4581,0.3065,0.3059,0.1161,0.0,0.0,0.0,0.0,0.0,0.0,0.0,0.0,0.0,0.0,0.0,0.0,0.0,0.0,0.0,0.0,0.0,0.0,0.0,0.0,0.0,0.0,0.0,0.0,0.0,0.0,0.0,0.0,0.0,0.0,0.0,0.0,0.0,0.0,0.0,0.0,0.0,0.0,0.0,0.0,0.0,0.0,0.0,0.0,0.0,0.0,0.0,0.0,0.0,0.0,0.0,0.0,0.0,0.0,0.0,0.0,0.0,0.0,0.0,0.0,0.0,0.0,0.0,0.0,0.0,0.0,0.0,0.0,0.0,0.0,0.0,0.0,0.0,0.0,0.0,0.0,0.0,0.0,0.0,0.0,0.0,0.0,0.0,0.0,0.0,0.0,0.0,0.0,0.0,0.0,0.0,0.0,0.0,0.0,0.0,0.0,0.0,0.0,0.0,0.0,0.0,0.0,0.0,0.0,0.0,0.6578,0.4135,0.426,0.1882,0.0293,0.029,0.0091,0.0,0.0,0.0,0.0,0.0,0.0,0.0,0.0,0.0,0.0,0.0,0.0,0.0,0.0,0.0,0.0,0.0,0.0,0.0,0.0,0.0,0.0,0.0,0.0,0.0,0.0,0.0,0.0,0.0,0.0,0.0,0.0,0.0,0.0,0.0,0.0,0.0,0.0,0.0,0.0,0.0,0.0,0.0,0.0,0.0,0.0,0.0,0.0,0.0,0.0,0.0,0.0,0.0,0.0,0.0,0.0,0.0,0.0,0.0,0.0,0.0,0.0,0.0,0.0,0.0,0.0,0.0,0.0,0.0,0.0,0.0,0.0,0.0,0.0,0.0,0.0,0.0,0.0,0.0,0.0,0.0,0.0,0.0,0.0,0.0,0.0,0.0,0.0,0.0,0.0,0.0,0.0,0.0,0.0,0.0,0.0,0.0,0.0,0.0,0.0,0.0,0.0,0.0,0.0,0.0,0.3552,0.2819,0.1621,0.0604,0.0,0.0,0.0,0.0,0.0,0.0,0.0,0.0,0.0,0.0,0.0,0.0,0.0,0.0,0.0,0.0,0.0,0.0,0.0,0.0,0.0,0.0,0.0,0.0,0.0,0.0,0.0,0.0,0.0,0.0,0.0,0.0,0.0,0.0,0.0,0.0,0.0,0.0,0.0,0.0,0.0,0.0,0.0,0.0,0.0,0.0,0.0,0.0,0.0,0.0,0.0,0.0,0.0,0.0,0.0,0.0,0.0,0.0,0.0,0.0,0.0,0.0,0.0,0.0,0.0,0.0,0.0,0.0,0.0,0.0,0.0,0.0,0.0,0.0,0.0,0.0,0.0,0.0,0.0,0.0,0.0,0.0,0.0,0.0,0.0,0.0,0.0,0.0,0.0,0.0,0.0,0.0,0.0,0.0,0.0,0.0,0.0,0.0,0.0,0.0,0.0,0.0,0.0,0.0,0.0,0.0,0.0,0.1088,0.1658,0.1574,0.0153,0.0,0.0,0.0,0.0,0.0,0.0,0.0,0.0,0.0,0.0,0.0,0.0,0.0,0.0,0.0,0.0,0.0,0.0,0.0,0.0,0.0,0.0,0.0,0.0,0.0,0.0,0.0,0.0,0.0,0.0,0.0,0.0,0.0,0.0,0.0,0.0,0.0,0.0,0.0,0.0,0.0,0.0,0.0,0.0,0.0,0.0,0.0,0.0,0.0,0.0,0.0,0.0,0.0,0.0,0.0,0.0,0.0,0.0,0.0,0.0,0.0,0.0,0.0,0.0,0.0,0.0,0.0,0.0,0.0,0.0,0.0,0.0,0.0,0.0,0.0,0.0,0.0,0.0,0.0,0.0,0.0,0.0,0.0,0.0,0.0,0.0,0.0,0.0,0.0,0.0,0.0,0.0,0.0,0.0,0.0,0.0,0.0,0.0,0.0,0.0,0.0,0.0,0.0,0.0,0.0,0.0,0.0,0.0,0.2799,0.1266,0.0,0.0,0.0,0.0,0.0,0.0,0.0,0.0,0.0,0.0,0.0,0.0,0.0,0.0,0.0,0.0,0.0,0.0,0.0,0.0,0.0,0.0,0.0,0.0,0.0,0.0,0.0,0.0,0.0,0.0,0.0,0.0,0.0,0.0,0.0,0.0,0.0,0.0,0.0,0.0,0.0,0.0,0.0,0.0,0.0,0.0,0.0,0.0,0.0,0.0,0.0,0.0,0.0,0.0,0.0,0.0,0.0,0.0,0.0,0.0,0.0,0.0,0.0,0.0,0.0,0.0,0.0,0.0,0.0,0.0,0.0,0.0,0.0,0.0,0.0,0.0,0.0,0.0,0.0,0.0,0.0,0.0,0.0,0.0,0.0,0.0,0.0,0.0,0.0,0.0,0.0,0.0,0.0,0.0,0.0,0.0,0.0,0.0,0.0,0.0,0.0,0.0,0.0,0.0,0.0,0.0,0.0,0.0,0.0,0.0,0.0836,0.0394,0.0,0.0,0.0,0.0,0.0,0.0,0.0,0.0,0.0,0.0,0.0,0.0,0.0,0.0,0.0,0.0,0.0,0.0,0.0,0.0,0.0,0.0,0.0,0.0,0.0,0.0,0.0,0.0,0.0,0.0,0.0,0.0,0.0,0.0,0.0,0.0,0.0,0.0,0.0,0.0,0.0,0.0,0.0,0.0,0.0,0.0,0.0,0.0,0.0,0.0,0.0,0.0,0.0,0.0,0.0,0.0,0.0,0.0,0.0,0.0,0.0,0.0,0.0,0.0,0.0,0.0,0.0,0.0,0.0,0.0,0.0,0.0,0.0,0.0,0.0,0.0,0.0,0.0,0.0,0.0,0.0,0.0,0.0,0.0,0.0,0.0,0.0,0.0,0.0,0.0,0.0,0.0,0.0,0.0,0.0,0.0,0.0,0.0,0.0,0.0,0.0,0.0,0.0,0.0,0.0,0.0,0.0,0.0,0.0,0.0,0.0,0.0,0.0,0.0,0.0,0.0,0.0,0.0,0.0,0.0,0.0,0.0,0.0,0.0,0.0,0.0,0.0,0.0,0.0,0.0,0.0,0.0,0.0,0.0,0.0,0.0,0.0,0.0,0.0,0.0,0.0,0.0,0.0,0.0,0.0,0.0,0.0,0.0,0.0,0.0,0.0,0.0,0.0,0.0,0.0,0.0,0.0,0.0,0.0,0.0,0.0,0.0,0.0,0.0,0.0,0.0,0.0,0.0,0.0,0.0,0.0,0.0,0.0,0.0,0.0,0.0,0.0,0.0,0.0,0.0,0.0,0.0,0.0,0.0,0.0,0.0,0.0,0.0,0.0,0.0,0.0,0.0,0.0,0.0,0.0,0.0,0.0,0.0,0.0,0.0,0.0,0.0,0.0,0.0,0.0,0.0,0.0,0.0,0.0,0.0,0.0,0.0,0.0,0.0,0.0,0.0,0.0,0.0,0.0,0.0,0.0,0.0,0.0,0.0,0.0,0.0,0.0,0.0,0.0,0.0,0.0,0.0,0.0,0.0,0.0,0.0,0.0,0.0,0.0,0.0,0.0,0.0,0.0,0.0,0.0,0.0,0.0,0.0,0.0,0.0,0.0,0.0,0.0,0.0,0.0,0.0,0.0,0.0,0.0,0.0,0.0,0.0,0.0,0.0,0.0,0.0,0.0,0.0,0.0,0.0,0.0,0.0,0.0,0.0,0.0,0.0,0.0,0.0,0.0,0.0,0.0,0.0,0.0,0.0,0.0,0.0,0.0,0.0,0.0,0.0,0.0,0.0,1.3889,1.3324,0.0,0.0,0.0,0.0,0.0,0.0,0.0,0.0,0.0,0.0,0.0,0.0,0.0,0.0,0.0,0.0,0.0,0.0,0.0,0.0,0.0,0.0,0.0,0.0,0.0,0.0,0.0,0.0,0.0,0.0,0.0,0.0,0.0,0.0,0.0,0.0,0.0,0.0,0.0,0.0,0.0,0.0,0.0,0.0,0.0,0.0,0.0,0.0,0.0,0.0,0.0,0.0,0.0,0.0,0.0,0.0,0.0,0.0,0.0,0.0,0.0,0.0,0.0,0.0,0.0,0.0,0.0,0.0,0.0,0.0,0.0,0.0,0.0,0.0,0.0,0.0,0.0,0.0,0.0,0.0,0.0,0.0,0.0,0.0,0.0,0.0,0.0,0.0,0.0,0.0,0.0,0.0,0.0,0.0,0.0,0.0,0.0,0.0,0.0,0.0,0.0,0.0,0.0,0.0,0.0,0.0,0.0,0.0,0.0,0.0,1.5595,1.5064,0.0,0.0,0.0,0.0,0.0,0.0,0.0,0.0,0.0,0.0,0.0,0.0,0.0,0.0,0.0,0.0,0.0,0.0,0.0,0.0,0.0,0.0,0.0,0.0,0.0,0.0,0.0,0.0,0.0,0.0,0.0,0.0,0.0,0.0,0.0,0.0,0.0,0.0,0.0,0.0,0.0,0.0,0.0,0.0,0.0,0.0,0.0,0.0,0.0,0.0,0.0,0.0,0.0,0.0,0.0,0.0,0.0,0.0,0.0,0.0,0.0,0.0,0.0,0.0,0.0,0.0,0.0,0.0,0.0,0.0,0.0,0.0,0.0,0.0,0.0,0.0,0.0,0.0,0.0,0.0,0.0,0.0,0.0,0.0,0.0,0.0,0.0,0.0,0.0,0.0,0.0,0.0,0.0,0.0,0.0,0.0,0.0,0.0,0.0,0.0,0.0,0.0,0.0,0.0,1.7487,1.737,1.7225,1.673,1.6498,1.6451,1.5218,1.4999,1.524,1.2058,0.0,0.0,0.0,0.0,0.0,0.0,0.0,0.0,0.0,0.0,0.0,0.0,0.0,0.0,0.0,0.0,0.0,0.0,0.0,0.0,0.0,0.0,0.0,0.0,0.1419,0.3159,0.452,0.0,0.0,0.0,0.0,0.0,0.0,0.0,0.0,0.0,0.0,0.0,0.0,0.0,0.0,0.0,0.0,0.0,0.0,0.0,0.0,0.0,0.0,0.0,0.0,0.0,0.0,0.0,0.0,0.0,0.0,0.0,0.0,0.0,0.0,0.0,0.0,0.0,0.0,0.0,0.0,0.0,0.0,0.0,0.0,0.0,0.0,0.0,0.0,0.0,0.0,0.0,0.0,0.0,0.0,0.0,0.8462,0.8733,0.0,0.0,0.0,0.0,0.0,0.0,0.0,0.0,0.0,0.0,0.0,0.0,0.0,1.5545,1.8014,1.8355,1.8531,1.8643,1.8938,1.7532,1.4621,1.4657,1.2997,1.0116,0.9897,0.0,1.2895,0.9504,0.0,0.0,0.0,0.0,0.0,0.0,0.0,0.0,0.0,0.0,0.0,0.0,0.0,0.0,0.0,0.0,0.0,0.0,0.0,0.0,0.0,0.0,0.0,0.0,0.0217,0.049,0.0694,0.3545,0.6105,0.6351,0.6129,0.5913,0.0,0.0,0.0,0.0,0.0,0.0,0.0,0.0,0.0,0.0,0.0,0.0,0.0,0.0,0.0,0.0,0.0,0.0,0.0,0.0,0.0,0.0,0.0,0.0,0.0,0.0,0.0,0.0,0.0,0.0,0.0,0.0,0.0,0.0,0.0,0.0,0.0,0.0,0.0,0.0,0.0,0.0,0.0,0.0,0.0,0.0,0.0,0.0,0.0,0.6414,0.8955,1.0102,1.0138,1.0159,0.0,0.0,0.0,0.0,0.0,0.0,0.0,0.0,0.0,1.6881,1.7168,1.7895,1.9325,1.9535,1.9732,1.995,2.0085,1.9437,1.7992,1.7973,1.6021,1.2555,1.0528,0.9219,0.8302,0.6561,0.5124,0.3783,0.0,0.0,0.0,0.0,0.6437,0.8944,0.7371,0.6757,0.6157,0.3288,0.0,0.0,0.0,0.0,0.0,0.0,0.0,0.0,0.0,0.0,0.0,0.0,0.0,0.0,0.0,0.1485,0.2834,0.2872,0.281,0.2784,0.2921,0.2051,0.0,0.0,0.0,0.0,0.0,0.0,0.0,0.0,0.0,0.0,0.0,0.0,0.0,0.0,0.0,0.0,0.0,0.0,0.0,0.0,0.0,0.0,0.0,0.0,0.0,0.0,0.0,0.0,0.0,0.0,0.0,0.0,0.0,0.0,0.0,0.0,0.0,0.0,0.0,0.0,0.0,0.0,0.0,0.0,0.0,0.0,0.0,0.6962,0.9916,1.2136,1.1205,1.1027,0.0,0.0,0.0,0.0,0.0,0.0,1.5828,1.6112,1.7296,1.9651,1.9976,2.0241,2.0505,2.0614,2.0327,1.961,1.9578,1.8628,1.6946,1.6847,1.4882,1.146,0.8806,0.6222,0.3824,0.4402,0.4554,0.4282,0.3019,0.3915,0.5981,0.6813,0.9729,1.2995,1.0891,0.951,0.8223,0.5276,0.2379,0.0,0.0,0.0,0.0,0.0,0.0,0.0,0.0,0.0,0.0,0.0,0.0,0.0,0.0,0.0,0.0,0.0,0.0,0.0206,0.082,0.0386,0.0,0.0849,0.0397,0.0,0.0,0.0,0.0,0.0,0.0,0.0,0.0,0.0,0.0,0.0,0.0,0.0,0.0,0.0,0.0,0.0,0.0,0.0,0.0,0.0,0.0,0.0,0.0,0.0,0.0,0.0,0.0,0.0,0.0,0.0,0.0,0.0,0.0,0.0,0.0,0.0,0.0,0.0,0.0,0.0,0.0,0.0,0.0,0.0,0.0,1.288,1.3875,0.0,0.0,0.0,0.0,1.4396,1.7242,1.9179,1.9804,2.01,2.047,2.1089,2.1265,2.1421,2.1651,2.1604,1.9846,1.6328,1.6225,1.2575,0.5898,0.5898,0.4023,0.0806,0.06,0.0396,0.0519,0.3709,0.4983,0.5197,0.8287,0.9518,0.9843,1.2596,1.3781,1.4005,1.369,1.1624,0.8688,0.5645,0.2557,0.0,0.0,0.0,0.0,0.0,0.0,0.0,0.0,0.0,0.0,0.0,0.0,0.0,0.0,0.0,0.0,0.0,0.0,0.0747,0.3003,0.0,0.0765,0.305,0.145,0.0,0.0,0.0,0.0,0.0,0.0,0.0,0.0,0.0,0.0,0.0,0.0,0.0,0.0,0.0,0.0,0.0,0.0,0.0,0.0,0.0,0.0,0.0,0.0,0.0,0.0,0.0,0.0,0.0,0.0,0.0,0.0,0.0,0.0,0.0,0.0,0.0,0.0,0.0,0.0,0.0,0.0,0.0,0.0,0.0,0.0,1.4041,1.4814,0.0,1.7061,1.5987,1.6081,1.8131,1.9697,2.0736,2.1089,2.1387,2.1618,2.1794,2.1937,2.0797,1.8365,1.8365,1.6451,1.2617,1.2576,1.1188,0.8687,0.8727,0.6805,0.3495,0.3472,0.2156,0.0465,0.6237,0.7197,0.5379,0.8854,1.1294,1.2973,1.4098,1.5633,1.6683,1.2555,1.0373,0.8615,0.339,0.091,0.0,0.0,0.0,0.0,0.0,0.0,0.0,0.0,0.0,0.0,0.0,0.0,0.0,0.0,0.0,0.0,0.0,0.0,0.028,0.1134,0.0592,0.0268,0.1167,0.0541,0.0,0.0,0.0,0.0,0.0,0.0,0.0,0.0,0.0,0.0,0.0,0.0,0.0,0.0,0.0,0.0,0.0,0.0,0.0,0.0,0.0,0.0,0.0,0.0,0.0,0.0,0.0,0.0,0.0,0.0,0.0,0.0,0.0,0.0,0.0,0.0,0.0,0.0,0.0,0.0,0.0,0.0,0.0,0.0,1.3449,1.545,1.6438,1.7196,1.8196,1.9663,1.8554,1.8577,2.0776,2.1333,2.1149,2.0096,2.0257,1.9815,1.8482,1.8542,1.7403,1.4795,1.4804,1.2868,0.9043,0.8992,0.828,0.7059,0.7091,0.583,0.357,0.3606,0.2198,0.0476,0.6296,0.7249,0.5698,1.1455,1.4136,1.4673,1.48,1.5296,1.5122,0.986,0.8009,0.7096,0.1758,0.0,0.0,0.0,0.0,0.0,0.0,0.0,0.0,0.0,0.0,0.0,0.0,0.0,0.0,0.0,0.0,0.0,0.0,0.0,0.0,0.0,0.0,0.0,0.0,0.0,0.0,0.0,0.0,0.0,0.0,0.0,0.0,0.0,0.0,0.0,0.0,0.0,0.0,0.0,0.0,0.0,0.0,0.0,0.0,0.0,0.0,0.0,0.0,0.0,0.0,0.0,0.0,0.0,0.0,0.0,0.0,0.0,0.0,0.0,0.0,0.0,0.0,0.0,0.0,0.0,0.0,0.0,0.0,1.4359,1.558,1.7096,1.9834,2.1055,2.1516,2.1089,2.1497,2.176,2.1901,2.1931,2.0392,1.6762,1.6737,1.5097,1.1327,1.1327,1.136,1.1224,1.1224,0.9354,0.5619,0.5514,0.3502,0.0,0.0,0.0,0.0,0.0,0.0,0.0277,0.3729,0.513,0.6102,1.6201,1.8004,1.4822,1.4822,1.2616,0.9217,0.5994,0.4776,0.4069,0.1019,0.0,0.0,0.0,0.0,0.0,0.0,0.0,0.0,0.0,0.0,0.0,0.0,0.0,0.0,0.0,0.0,0.0,0.0,0.0,0.0,0.0,0.0,0.0,0.0,0.0,0.0,0.0,0.0,0.0,0.0,0.0,0.0,0.0,0.0,0.0,0.0,0.0,0.0,0.0,0.0,0.0,0.0,0.0,0.0,0.0,0.0,0.0,0.0,0.0,0.0,0.0,0.0,0.0,0.0,0.0,0.0,0.0,0.0,0.0,0.0,0.0,0.0,0.0,0.0,0.0,0.0,0.6218,0.921,1.7302,1.9017,1.9908,2.1125,2.1686,2.1991,2.1971,1.9638,1.8244,1.8219,1.5867,1.3987,1.2944,1.3003,1.2622,1.1548,1.1565,1.021,0.7389,0.7317,0.5427,0.1589,0.1521,0.1013,0.0,0.0,0.0,0.0,0.0,0.0,0.0279,0.3865,0.5227,0.5661,1.102,1.2375,1.1394,1.1394,0.9216,0.609,0.5226,0.3288,0.1175,0.0305,0.0,0.0,0.0,0.0,0.0,0.0,0.0,0.0,0.0,0.0,0.0,0.0,0.0,0.0,0.0,0.0,0.0,0.0,0.0,0.0,0.0,0.0,0.0,0.0,0.0,0.0,0.0,0.0,0.0,0.0,0.0,0.0,0.0,0.0,0.0,0.0,0.0,0.0,0.0,0.0,0.0,0.0,0.0,0.0,0.0,0.0,0.0,0.0,0.0,0.0,0.0,0.0,0.0,0.0,0.0,0.0,0.0,0.0,0.0,0.0,0.0,0.0,0.0,0.0,0.0,0.0,0.5062,0.7767,1.4932,1.6319,1.6728,1.7235,1.748,1.7672,1.7784,1.5867,1.464,1.4604,1.2665,1.0785,0.9174,0.9162,0.8455,0.6813,0.6724,0.5622,0.3362,0.3362,0.2259,0.0,0.0,0.0,0.0,0.0,0.0,0.0,0.0,0.0,0.0141,0.2237,0.3095,0.3436,0.0,0.0,0.0,0.0,0.4541,0.2858,0.2838,0.1574,0.0,0.0,0.0,0.0,0.0,0.0,0.0,0.0,0.0,0.0,0.0,0.0,0.0,0.0,0.0,0.0,0.0,0.0,0.0,0.0,0.0,0.0,0.0,0.0,0.0,0.0,0.0,0.0,0.0,0.0,0.0,0.0,0.0,0.0,0.0,0.0,0.0,0.0,0.0,0.0,0.0,0.0,0.0,0.0,0.0,0.0,0.0,0.4072,0.0,0.0,0.1634,0.241,0.0,0.0,0.0,0.0,0.0,0.0,0.0,0.0,0.0,0.0,0.0,0.0,0.0,0.0,0.0,0.0,0.4668,0.587,0.8886,0.9394,0.9901,1.1065,1.1344,1.1466,1.162,1.1188,1.093,1.0921,1.0571,0.8761,0.5335,0.5118,0.0,0.0,0.0,0.0,0.0,0.0,0.0,0.0,0.0,0.0,0.0,0.0,0.0,0.0,0.0,0.0,0.0,0.0,0.0,0.0612,0.6872,0.7329,0.4139,0.1111,0.0,0.0,0.0,0.0,0.0,0.0,0.0,0.0,0.0,0.0,0.0,0.0,0.0,0.0,0.0,0.0,0.0,0.0,0.0,0.0,0.0,0.0,0.0,0.0,0.0,0.0,0.0,0.0,0.0,0.0,0.0,0.0,0.0,0.0,0.0,0.0,0.0,0.0,0.0,0.0,0.0,0.0,0.0,0.0,0.0,0.0,0.0,0.0,0.2753,0.2786,0.0,0.5976,0.7454,0.4712,0.4392,0.4634,0.0,0.0,0.0,0.0,0.0,0.0,0.0,0.0,0.0,0.0,0.0,0.0,0.0,0.0,0.0,0.0904,0.1005,0.1241,0.195,0.2055,0.4359,1.0452,1.131,1.1483,1.1615,0.8783,0.6902,0.6948,0.4018,0.1939,0.1189,0.112,0.0747,0.0,0.0,0.0,0.0,0.0,0.0,0.0,0.0,0.0,0.0,0.0,0.0,0.0,0.0,0.0,0.0,0.0,0.0,0.0136,0.153,0.1583,0.0922,0.0262,0.0,0.0,0.0,0.0,0.0,0.0,0.0,0.0,0.0,0.0,0.0,0.0,0.0,0.0,0.0,0.0,0.0,0.0,0.0,0.0,0.0,0.0,0.0,0.0,0.0,0.0,0.0,0.0,0.0,0.0,0.0,0.0,0.0,0.0,0.0,0.0,0.0,0.0,0.0,0.0,0.0,0.0,0.0,0.0,0.0,0.0,0.0,0.0,0.0618,0.062,0.0,0.3866,0.5436,0.4895,0.7302,0.8509,0.0,0.0,0.0,0.0,0.0,0.0,0.0,0.0,0.0,0.0,0.0,0.0,0.0,0.0,0.0,0.0,0.0,0.0,0.0,0.0,0.1372,0.5115,0.5648,0.5695,0.582,0.406,0.2891,0.2921,0.1128,0.0,0.0,0.0,0.0,0.0,0.0,0.0,0.0,0.0,0.0,0.0,0.0,0.0,0.0,0.0,0.0,0.0,0.0,0.0,0.0,0.0,0.0,0.0,0.0,0.0,0.0,0.0,0.0,0.0,0.0,0.0,0.0,0.0,0.0,0.0,0.0,0.0,0.0,0.0,0.0,0.0,0.0,0.0,0.0,0.0,0.0,0.0,0.0,0.0,0.0,0.0,0.0,0.0,0.0,0.0,0.0,0.0,0.0,0.0,0.0,0.0,0.0,0.0,0.0,0.0,0.0,0.0,0.0,0.0,0.0,0.0,0.0,0.0,0.0,0.0,0.1567,0.2384,0.2443,0.7249,0.9652,0.9902,1.3164,1.3724,0.0,0.0,0.0,0.0,0.0,0.0,0.0,0.0,0.0,0.0,0.0,0.0,0.0,0.0,0.0,0.0,0.0,0.0,0.0,0.0,0.0,0.0,0.0,0.0,0.0,0.0,0.0,0.0,0.0,0.0,0.0,0.0,0.0,0.0,0.0,0.0,0.0,0.0,0.0,0.0,0.0,0.0,0.0,0.0,0.0,0.0,0.0,0.0,0.0,0.0,0.0,0.0,0.0,0.0,0.0,0.0,0.0,0.0,0.0,0.0,0.0,0.0,0.0,0.0,0.0,0.0,0.0,0.0,0.0,0.0,0.0,0.0,0.0,0.0,0.0,0.0,0.0,0.0,0.0,0.0,0.0,0.0,0.0,0.0,0.0,0.0,0.0,0.0,0.0,0.0,0.0,0.0,0.0,0.0,0.0,0.0,0.0,0.0,0.0,0.0,0.0,0.0,0.0,0.0,0.2497,0.4172,0.4887,1.0685,1.3909,1.4845,1.8239,1.8246,0.0,0.0,0.0,0.0,0.0,0.0,0.0,0.0,0.0,0.0,0.0,0.0,0.0,0.0,0.0,0.0,0.0,0.0,0.0,0.0,0.0,0.0,0.0,0.0,0.0,0.0,0.0,0.0,0.0,0.0,0.0,0.0,0.0,0.0,0.0,0.0,0.0,0.0,0.0,0.0,0.0,0.0,0.0,0.0,0.0,0.0,0.0,0.0,0.0,0.0,0.0,0.0,0.0,0.0,0.0,0.0,0.0,0.0,0.0,0.0,0.0,0.0,0.0,0.0,0.0,0.0,0.0,0.0,0.0,0.0,0.0,0.0,0.0,0.0,0.0,0.0,0.0,0.0,0.0,0.0,0.0,0.0,0.0,0.0,0.0,0.0,0.0,0.0,0.0,0.0,0.0,0.0,0.0,0.0,0.0,0.0,0.0,0.0,0.0,0.0,0.0,0.0,0.0,0.0,0.0361,0.1985,0.4927,0.8638,1.2008,1.503,1.8484,1.9771,0.0,0.0,0.0,0.0,0.0,0.0,0.0,0.0,0.0,0.0,0.0,0.0,0.0,0.0,0.0,0.0,0.0,0.0,0.0,0.0,0.0,0.0,0.0,0.0,0.0,0.0,0.0,0.0,0.0,0.0,0.0,0.0,0.0,0.0,0.0,0.0,0.0,0.0,0.0,0.0,0.0,0.0,0.0,0.0,0.0,0.0,0.0,0.0,0.0,0.0,0.0,0.0,0.0,0.0,0.0,0.0,0.0,0.0,0.0,0.0,0.0,0.0,0.0,0.0,0.0,0.0,0.0,0.0,0.0,0.0,0.0,0.0,0.0,0.0,0.0,0.0,0.0,0.0,0.0,0.0,0.0,0.0,0.0,0.0,0.0,0.0,0.0,0.0,0.0,0.0,0.0,0.0,0.0,0.0,0.0,0.0,0.0,0.0,0.0,0.0,0.0,0.0,0.0,0.0,0.0,0.1602,0.4881,0.8317,1.1781,1.5213,1.8599,2.0241,0.0,0.0,0.0,0.0,0.0,0.0,0.0,0.0,0.0,0.0,0.0,0.0,0.0,0.0,0.0,0.0,0.0,0.0,0.0,0.0,0.0,0.0,0.0,0.0,0.0,0.0,0.0,0.0,0.0,0.0,0.0,0.0,0.0,0.0,0.0,0.0,0.0,0.0,0.0,0.0,0.0,0.0,0.0,0.0,0.0,0.0,0.0,0.0,0.0,0.0,0.0,0.0,0.0,0.0,0.0,0.0,0.0,0.0,0.0,0.0,0.0,0.0,0.0,0.0,0.0,0.0,0.0,0.0,0.0,0.0,0.0,0.0,0.0,0.0,0.0,0.0,0.0,0.0,0.0,0.0,0.0,0.0,0.0,0.0,0.0,0.0,0.0,0.0,0.0,0.0,0.0,0.0,0.0,0.0,0.0,0.0,0.0,0.0,0.0,0.0,0.0,0.0,0.0,0.0,0.0,0.2068,0.629,0.8877,1.232,1.6696,1.9152,2.0438,0.0,0.0,0.0,0.0,0.0,0.0,0.0,0.0,0.0,0.0,0.0,0.0,0.0,0.0,0.0,0.0,0.0,0.0,0.0,0.0,0.0,0.0,0.0,0.0,0.0,0.0,0.0,0.0,0.0,0.0,0.0,0.0,0.0,0.0,0.0,0.0,0.0,0.0,0.0,0.0,0.0,0.0,0.0,0.0,0.0,0.0,0.0,0.0,0.0,0.0,0.0,0.0,0.0,0.0,0.0,0.0,0.0,0.0,0.0,0.0,0.0,0.0,0.0,0.0,0.0,0.0,0.0,0.0,0.0,0.0,0.0,0.0,0.0,0.0,0.0,0.0,0.0,0.0,0.0,0.0,0.0,0.0,0.0,0.0,0.0,0.0,0.0,0.0,0.0,0.0,0.0,0.0,0.0,0.0,0.0,0.0,0.0,0.0,0.0,0.0,0.0,0.0,0.0,0.0,0.0,0.3273,0.9862,1.0122,1.3705,2.0134,2.0408,2.0476,0.0,0.0,0.0,0.0,0.0,0.0,0.0,0.0,0.0,0.0,0.0,0.0,0.0,0.0,0.0,0.0,0.0,0.0,0.0,0.0,0.0,0.0,0.0,0.0,0.0,0.0,0.0,0.0,0.0,0.0,0.0,0.0,0.0,0.0,0.0,0.0,0.0,0.0,0.0,0.0,0.0,0.0,0.0,0.0,0.0,0.0,0.0,0.0,0.0,0.0,0.0,0.0,0.0,0.0,0.0,0.0,0.0,0.0,0.0,0.0,0.0,0.0,0.0,0.0,0.0,0.0,0.0,0.0,0.0,0.0,0.0,0.0,0.0,0.0,0.0,0.0,0.0,0.0,0.0,0.0,0.0,0.0,0.0,0.0,0.0,0.0,0.0,0.0,0.0,0.0,0.0,0.0,0.0,0.0,0.0,0.0,0.0,0.0,0.0,0.0,0.0,0.0,0.0,0.0,0.0,0.2228,0.6767,0.9137,1.2601,1.7073,1.9433,2.0476,0.0,0.0,0.0,0.0,0.0,0.0,0.0,0.0,0.0,0.0,0.0,0.0,0.0,0.0,0.0,0.0,0.0,0.0,0.0,0.0,0.0,0.0,0.0,0.0,0.0,0.0,0.0,0.0,0.0,0.0,0.0,0.0,0.0,0.0,0.0,0.0,0.0,0.0,0.0,0.0,0.0,0.0,0.0,0.0,0.0,0.0,0.0,0.0,0.0,0.0,0.0,0.0,0.0,0.0,0.0,0.0,0.0,0.0,0.0,0.0,0.0,0.0,0.0,0.0,0.0,0.0,0.0,0.0,0.0,0.0,0.0,0.0,0.0,0.0,0.0,0.0,0.0,0.0,0.0,0.0,0.0,0.0,0.0,0.0,0.0,0.0,0.0,0.0,0.0,0.0,0.0,0.0,0.0,0.0,0.0,0.0,0.0,0.0,0.1142,0.1843,0.1791,0.1847,0.1851,0.1804,0.0642,0.2308,0.694,0.9182,1.2707,1.7263,1.9509,2.0476,0.0,0.0,0.0,0.0,0.0,0.0,0.0,0.0,0.0,0.0,0.0,0.0,0.0,0.0,0.0,0.0,0.0,0.0,0.0,0.0,0.0,0.0,0.0,0.0,0.0,0.0,0.0,0.0,0.0,0.0,0.0,0.0,0.0,0.0,0.0,0.0,0.0,0.0,0.0,0.0,0.0,0.0,0.0,0.0,0.0,0.0,0.0,0.0,0.0,0.0,0.0,0.0,0.0,0.0,0.0,0.0,0.0,0.0,0.0,0.0,0.0,0.0,0.0,0.0,0.0,0.0,0.0,0.0,0.0,0.0,0.0,0.0,0.0,0.0,0.0,0.0,0.0,0.0,0.0,0.0,0.0,0.0,0.0,0.0,0.0,0.0,0.0,0.0,0.0,0.0,0.0,0.0,0.0,0.0,0.0,0.0,0.0,0.0,0.32,0.5108,0.5083,0.5083,0.5083,0.5083,0.1741,0.3283,1.0012,1.0207,1.3729,2.0215,2.0412,2.0476,0.0,0.0,0.0,0.0,0.0,0.0,0.0,0.0,0.0,0.0,0.0,0.0,0.0,0.0,0.0,0.0,0.0,0.0,0.0,0.0,0.0,0.0,0.0,0.0,0.0,0.0,0.0,0.0,0.0,0.0,0.0,0.0,0.0,0.0,0.0,0.0,0.0,0.0,0.0,0.0,0.0,0.0,0.0,0.0,0.0,0.0,0.0,0.0,0.0,0.0,0.0,0.0,0.0,0.0,0.0,0.0,0.0,0.0,0.0,0.0,0.0,0.0,0.0,0.0,0.0,0.0,0.0,0.0,0.0,0.0,0.0,0.0,0.0,0.0,0.0,0.0,0.0,0.0,0.0,0.0,0.0,0.0,0.0,0.0,0.0,0.0,0.0,0.0,0.0,0.0,0.0,0.0,0.0,0.0,0.0,0.0,0.0,0.0,0.3213,0.5075,0.5083,0.5083,0.5083,0.5083,0.1741,0.2126,0.6431,0.9054,1.2511,1.6753,1.9318,2.0476,0.0,0.0,0.0,0.0,0.0,0.0,0.0,0.0,0.0,0.0,0.0,0.0,0.0,0.0,0.0,0.0,0.0,0.0,0.0,0.0,0.0,0.0,0.0,0.0,0.0,0.0,0.0,0.0,0.0,0.0,0.0,0.0,0.0,0.0,0.0,0.0,0.0,0.0,0.0,0.0,0.0,0.0,0.0,0.0,0.0,0.0,0.0,0.0,0.0,0.0,0.0,0.0,0.0,0.0,0.0,0.0,0.0,0.0,0.0,0.0,0.0,0.0,0.0,0.0,0.0,0.0,0.0,0.0,0.0,0.0,0.0,0.0,0.0,0.0,0.0,0.0,0.0,0.0,0.0,0.0,0.0,0.0,0.0,0.0,0.0,0.0,0.0,0.0,0.0,0.0,0.0,0.0,0.0,0.0,0.0,0.0,0.0,0.0,0.4633,0.6684,0.5147,0.6559,0.6684,0.5147,0.1741,0.1676,0.5083,0.7071,1.0531,1.5467,1.739,1.9058,0.0,0.0,0.0,0.0,0.0,0.0,0.0,0.0,0.0,0.0,0.0,0.0,0.0,0.0,0.0,0.0,0.0,0.0,0.0,0.0,0.0,0.0,0.0,0.0,0.0,0.0,0.0,0.0,0.0,0.0,0.0,0.0,0.0,0.0,0.0,0.0,0.0,0.0,0.0,0.0,0.0,0.0,0.0,0.0,0.0,0.0,0.0,0.0,0.0,0.0,0.0,0.0,0.0,0.0,0.0,0.0,0.0,0.0,0.0,0.0,0.0,0.0,0.0,0.0,0.0,0.0,0.0,0.0,0.0,0.0,0.0,0.0,0.0,0.0,0.0,0.0,0.0,0.0,0.0,0.0,0.0,0.0,0.0,0.0,0.0,0.0,0.0,0.0,0.0,0.0,0.0,0.0,0.0,0.0,0.0,0.0,0.0,0.0,0.6049,0.8232,0.5212,0.8031,0.8159,0.5147,0.1741,0.1483,0.4443,0.489,0.8159,1.4053,1.4951,1.6753,0.0,0.0,0.0,0.0,0.0,0.0,0.0,0.0,0.0,0.0,0.0,0.0,0.0,0.0,0.0,0.0,0.0,0.0,0.0,0.0,0.0,0.0,0.0,0.0,0.0,0.0,0.0,0.0,0.0,0.0,0.0,0.0,0.0,0.0,0.0,0.0,0.0,0.0,0.0,0.0,0.0,0.0,0.0,0.0,0.0,0.0,0.0,0.0,0.0,0.0,0.0,0.0,0.0,0.0,0.0,0.0,0.0,0.0,0.0,0.0,0.0,0.0,0.0,0.0,0.0,0.0,0.0,0.0,0.0,0.0,0.0,0.0,0.0,0.0,0.0,0.0,0.0,0.0,0.0,0.0,0.0,0.0,0.0,0.0,0.0,0.0,0.0,0.0,0.0,0.0,0.0,0.0,0.0,0.0,0.0,0.0,0.0,0.0,0.3768,0.5762,0.5147,0.5658,0.5722,0.5083,0.1741,0.0323,0.0903,0.3734,0.5722,0.7004,1.277,1.4185,-0.2383,-0.149,0.0,0.0,0.0,0.0,0.0,0.0,0.0,0.0,0.0,0.0,0.0,0.0,0.0,0.0,0.0,0.0,0.0,0.0,0.0,0.0,0.0,0.0,0.0,0.0,0.0,0.0,0.0,0.0,0.0,0.0,0.0,0.0,0.0,0.0,0.0,0.0,0.0,0.0,0.0,0.0,0.0,0.0,0.0,0.0,0.0,0.0,0.0,0.0,0.0,0.0,0.0,0.0,0.0,0.0,0.0,0.0,0.0,0.0,0.0,0.0,0.0,0.0,0.0,0.0,0.0,0.0,0.0,0.0,0.0,0.0,0.0,0.0,0.0,0.0,0.0,0.0,0.0,0.0,0.0,0.0,0.0,0.0,0.0,0.0,0.0,0.0,0.0,0.0,0.0,0.0,0.0,0.0,0.0,0.0,0.0,0.0,0.3189,0.4282,0.2512,0.4185,0.425,0.2512,0.0838,0.0,0.0,0.1676,0.3348,0.5212,0.848,1.0143,-0.4698,-0.2774,0.0,0.0,0.0,0.0,0.0,0.0,0.0,0.0,0.0,0.0,0.0,0.0,0.0,0.0,0.0,0.0,0.0,0.0,0.0,0.0,0.0,0.0,0.0,0.0,0.0,0.0,-0.0782,-0.094,-0.0078,0.0,0.0,0.0,0.0,0.0,0.0,0.0,0.0,0.0,0.0,0.0,0.0,0.0,0.0,0.0,0.0,0.0,0.0,0.0,0.0,0.0,0.0,0.0,0.0,0.0,0.0,0.0,0.0,0.0,0.0,0.0,0.0,0.0,0.0,0.0,0.0,0.0,0.0,0.0,0.0,0.0,0.0,0.0,0.0,0.0,0.0,0.0,0.0,0.0,0.0,0.0,0.0,0.0,0.0,0.0,0.0,0.0,0.0,0.0,0.0,0.0,0.0,0.0,0.0,0.0,0.0,0.0,0.2542,0.2791,0.0129,0.2577,0.277,0.0065,0.0,0.0,0.0,0.0,0.1354,0.4057,0.4762,0.6178,-0.5047,-0.2596,0.0,0.0,0.0,0.0,0.0,0.0,0.0,0.0,0.0,0.0,0.0,0.0,0.0,0.0,0.0,0.0,0.0,0.0,0.0,0.0,0.0,0.0,0.0,0.0,0.0,0.0,-0.3352,-0.3879,-0.0232,0.0,0.0,0.0,0.0,0.0,0.0,0.0,0.0,0.0,0.0,0.0,0.0,0.0,0.0,0.0,0.0,0.0,0.0,0.0,0.0,0.0,0.0,0.0,0.0,0.0,0.0,0.0,0.0,0.0,0.0,0.0,0.0,0.0,0.0,0.0,0.0,0.0,0.0,0.0,0.0,0.0,0.0,0.0,0.0,0.0,0.0,0.0,0.0,0.0,0.0,0.0,0.0,0.0,0.0,0.0,0.0,0.0,0.0,0.0,0.0,0.0,0.0,0.0,0.0,0.0,0.0,0.0,0.0327,0.0325,0.0,0.0323,0.0323,0.0,0.0,0.0,0.0,0.0,0.0194,0.0516,0.3669,0.3617,-0.8194,-0.58,-0.2575,-0.048,0.0,0.0,0.0,0.0,0.0,0.0,0.0,0.0,0.0,0.0,-0.0658,-0.2653,-0.298,-0.2921,-0.2959,-0.2951,-0.2188,-0.0223,0.0,0.0,0.0,0.0,0.0,0.0,-0.3625,-0.521,-0.3581,-0.579,-0.7076,-0.7122,-0.4768,-0.3471,-0.3528,-0.1132,0.0,0.0,0.0,0.0,0.0,0.0,0.0,0.0,0.0,0.0,0.0,0.0,0.0,0.0,0.0,0.0,0.0,0.0,0.0,0.0,0.0,0.0,0.0,0.0,0.0,0.0,0.0,0.0,0.0,0.0,0.0,0.0,0.0,0.0,0.0,0.0,0.0,0.0,0.0,0.0,0.0,0.0,0.0,0.0,0.0,0.0,0.0,0.0,0.0,0.0,0.0,0.0,0.0,0.0,0.0,0.0,0.0,0.0,0.0,0.0,0.0,0.0,0.0,0.0,0.0,0.0,0.0,0.0,0.0,0.0,0.0,0.0065,0.1421,0.1295,-1.1573,-0.9229,-0.573,-0.2364,-0.1517,-0.1214,-0.0246,0.0,0.0,0.0,0.0,0.0,0.0,0.0,-0.1065,-0.4326,-0.4894,-0.5243,-0.6225,-0.6408,-0.5571,-0.3293,-0.3054,-0.318,-0.3268,-0.3451,-0.3536,-0.3516,-0.7152,-0.9382,-0.9305,-1.3078,-1.413,-1.1845,-0.9018,-0.7566,-0.7482,-0.3675,-0.1729,-0.1713,-0.052,0.0,0.0,0.0,0.0,0.0,0.0,0.0,0.0,0.0,0.0,0.0,0.0,0.0,0.0,0.0,0.0,0.0,0.0,0.0,0.0,0.0,0.0,0.0,0.0,0.0,0.0,0.0,0.0,0.0,0.0,0.0,0.0,0.0,0.0,0.0,0.0,0.0,0.0,0.0,0.0,0.0,0.0,0.0,0.0,0.0,0.0,0.0,0.0,0.0,0.0,0.0,0.0,0.0,0.0,0.0,0.0,0.0,0.0,0.0,0.0,0.0,0.0,0.0,0.0,0.0,0.0,0.0,0.0,0.0,0.0,0.0,-1.4578,-1.2389,-0.9273,-0.5859,-0.5019,-0.4186,-0.0789,0.0,0.0,0.0,0.0,0.0,0.0,0.0,-0.1059,-0.4172,-0.4824,-0.6025,-0.928,-0.988,-1.0023,-1.0167,-1.0324,-1.058,-1.1071,-1.1585,-1.1891,-1.1668,-1.5469,-1.768,-1.7459,-2.1174,-1.9697,-1.1837,-1.1693,-1.169,-1.1539,-0.7825,-0.5836,-0.5687,-0.185,0.0,0.0,0.0,0.0,0.0,0.0,0.0,0.0,0.0,0.0,0.0,0.0,0.0,0.0,0.0,0.0,0.0,0.0,0.0,0.0,0.0,0.0,0.0,0.0,0.0,0.0,0.0,0.0,0.0,0.0,0.0,0.0,0.0,0.0,0.0,0.0,0.0,0.0,0.0,0.0,0.0,0.0,0.0,0.0,0.0,0.0,0.0,0.0,0.0,0.0,0.0,0.0,0.0,0.0,0.0,0.0,0.0,0.0,0.0,0.0,0.0,0.0,0.0,0.0,0.0,0.0,0.0,0.0,0.0,0.0,0.0,-1.1465,-1.1779,-1.1816,-0.8299,-0.595,-0.4179,-0.314,-0.1378,0.0,0.0,0.0,0.0,0.0,-0.1749,-0.4369,-0.7972,-1.034,-1.2199,-1.3461,-1.3909,-1.3279,-1.099,-1.1086,-1.1506,-1.1828,-1.1966,-1.1982,-1.1811,-1.5478,-1.7639,-1.749,-2.1184,-2.2191,-1.9759,-1.7071,-1.5575,-1.5544,-1.1737,-0.9832,-0.9745,-0.8501,-0.7908,-0.7963,-0.7935,-0.7898,-0.7796,-0.7796,-0.775,-0.7667,-0.7649,-0.7685,-0.7426,-0.4831,-0.3838,-0.3547,-0.098,0.0,0.0,0.0,0.0,0.0,0.0,0.0,0.0,0.0,0.0,0.0,0.0,0.0,0.0,0.0,0.0,0.0,0.0,0.0,0.0,0.0,0.0,0.0,0.0,0.0,0.0,0.0,0.0,0.0,0.0,0.0,0.0,0.0,0.0,0.0,0.0,0.0,0.0,0.0,0.0,0.0,0.0,0.0,0.0,0.0,0.0,0.0,0.0,0.0,0.0,0.0,0.0,0.0,0.0,0.0,0.0,-1.1421,-1.2451,-1.3425,-1.1045,-0.9084,-0.7406,-0.614,-0.4519,-0.3269,-0.3305,-0.3338,-0.3373,-0.3441,-0.5101,-0.7577,-1.1227,-1.3483,-1.5356,-1.6949,-1.7593,-1.7236,-1.544,-1.5696,-1.6079,-1.625,-1.6431,-1.6441,-1.6176,-1.8447,-1.9698,-1.9566,-2.1885,-2.3259,-2.3289,-2.0919,-1.9639,-1.9579,-1.5749,-1.3872,-1.3759,-1.2322,-1.1598,-1.1581,-1.152,-1.1476,-1.1432,-1.1334,-1.1249,0.0,-1.1205,-1.1235,-1.0955,-0.8656,-0.7652,-0.713,-0.3491,-0.208,-0.1847,-0.0481,0.0,0.0,0.0,0.0,0.0,0.0,0.0,0.0,0.0,0.0,0.0,0.0,0.0,0.0,0.0,0.0,0.0,0.0,0.0,0.0,0.0,0.0,0.0,0.0,0.0,0.0,0.0,0.0,0.0,0.0,0.0,0.0,0.0,0.0,0.0,0.0,0.0,0.0,0.0,0.0,0.0,0.0,0.0,0.0,0.0,0.0,0.0,0.0,0.0,0.0,0.0,0.0,0.0,0.0,-1.4112,-1.4421,-1.394,-1.3693,-1.2734,-0.9532,-0.8734,0.0,-0.8691,-0.8816,-0.895,-0.9134,-0.9385,-1.0568,-1.3849,-1.4647,-1.6097,-1.9603,-2.0539,-2.1245,-2.2303,-2.2798,-2.3097,-2.3259,-2.3646,-2.3754,-2.3397,-2.3377,-2.3309,-2.3219,-2.3219,-2.3219,-2.3219,-2.3289,-2.3361,-2.3219,-1.9772,-1.7934,-1.7783,-1.4113,-1.2449,-1.2441,-1.2293,-1.2217,-1.221,-1.2056,-1.1969,-1.1968,-1.1968,-1.2001,-1.1925,-1.1716,-1.1459,-1.0851,-0.6965,-0.5519,-0.4888,-0.1233,0.0,0.0,0.0,0.0,0.0,0.0,0.0,0.0,0.0,0.0,0.0,0.0,0.0,0.0,0.0,0.0,0.0,0.0,0.0,0.0,0.0,0.0,0.0,0.0,0.0,0.0,0.0,0.0,0.0,0.0,0.0,0.0,0.0,0.0,0.0,0.0,0.0,0.0,0.0,0.0,0.0,0.0,0.0,0.0,0.0,0.0,0.0,0.0,0.0,0.0,0.0,0.0,0.0,-1.218,0.0,-1.6445,-1.6267,-1.4534,-1.2753,0.0,-1.0205,-0.8599,-0.8657,-0.8703,-0.8816,-0.9169,-1.1065,-1.3073,-1.4725,-1.6928,-1.8945,-2.0217,-2.1123,-2.2059,-2.3225,-2.3361,-2.3449,-2.3714,-2.3734,-2.3646,-2.3397,-2.3377,-2.3309,-2.3219,-2.3219,-2.3219,-2.3219,-2.3259,-2.3259,-2.3219,-2.231,-2.1885,-2.1813,-2.0905,-2.0467,-2.0497,-2.0341,-2.0215,-2.0108,-1.997,-1.9844,-1.9719,-1.9719,-1.9707,-1.9388,-1.6445,-1.5237,-1.4402,-0.7881,-0.5411,-0.4857,-0.1231,0.0,0.0,0.0,0.0,0.0,0.0,0.0,0.0,0.0,0.0,0.0,0.0,0.0,0.0,0.0,0.0,0.0,0.0,0.0,0.0,0.0,0.0,0.0,0.0,0.0,0.0,0.0,0.0,0.0,0.0,0.0,0.0,0.0,0.0,0.0,0.0,0.0,0.0,0.0,0.0,0.0,0.0,0.0,0.0,0.0,0.0,0.0,0.0,0.0,0.0,0.0,0.0,0.0,-1.4008,-1.4838,-1.556,-1.6776,-1.5901,-1.4768,-1.488,-1.3637,-1.2492,-1.2605,-1.2625,-1.2792,-1.3116,-1.4588,-1.6062,-1.69,-1.8514,-1.9997,-2.0933,-2.1652,-2.2466,-2.3449,-2.3503,-2.3444,-2.368,-2.3626,-2.3503,-2.3289,-2.3347,-2.3307,-2.3219,-2.3219,-2.3219,-2.3219,-2.3219,-2.3219,-2.3219,-2.3219,-2.3219,-2.3219,-2.3219,-2.3185,-2.3117,-2.2974,-2.2818,-2.2676,-2.252,-2.2411,-2.2268,-2.2268,-2.2268,-2.2054,-1.995,-1.9107,-1.8275,-1.2719,-1.0559,-0.9645,-0.4386,-0.144,0.0,0.0,0.0,0.0,0.0,0.0,0.0,0.0,0.0,0.0,0.0,0.0,0.0,0.0,0.0,0.0,0.0,0.0,0.0,0.0,0.0,0.0,0.0,0.0,0.0,0.0,0.0,0.0,0.0,0.0,0.0,0.0,0.0,0.0,0.0,0.0,0.0,0.0,0.0,0.0,0.0,0.0,0.0,0.0,0.0,0.0,0.0,0.0,0.0,0.0,0.0,0.0,-1.6621,-1.52,-1.4229,-1.6571,-1.7175,-1.7195,-1.7195,-1.7175,-1.7168,-1.7188,-1.7297,-1.7494,-1.7881,-1.8124,-1.8531,-1.9169,-1.959,-2.0344,-2.1564,-2.2093,-2.2552,-2.3289,-2.3356,-2.3356,-2.3377,-2.3356,-2.3289,-2.3239,-2.3219,-2.3219,-2.3219,-2.3219,-2.3219,-2.3219,-2.3219,-2.3219,-2.3219,-2.3219,-2.3219,-2.3219,-2.3219,-2.3151,-2.3008,-2.2852,-2.2767,-2.2624,-2.2391,-2.2268,-2.2268,-2.2268,-2.2268,-2.2268,-2.2254,-2.2127,-2.1496,-1.8003,-1.6552,-1.522,-0.8034,-0.3154,0.0,0.0,0.0,0.0,0.0,0.0,0.0,0.0,0.0,0.0,0.0,0.0,0.0,0.0,0.0,0.0,0.0,-0.0404,-0.0809,-0.0808,-0.0808,-0.0808,-0.0806,-0.0337,0.0,0.0,0.0,0.0,0.0,0.0,0.0,0.0,0.0,0.0,0.0,0.0,0.0,0.0,0.0,0.0,0.0,0.0,0.0,0.0,0.0,0.0,0.0,0.0,0.0,0.0,0.0,0.0,-1.6466,-1.655,-1.6624,-1.6934,-1.7107,-1.7195,-1.7195,-1.71,-1.7046,-1.7168,-1.7209,-1.7399,-1.7948,-1.8199,-1.8599,-1.9507,-2.0215,-2.0933,-2.1903,-2.2215,-2.2552,-2.3289,-2.3327,-2.3307,-2.3363,-2.3327,-2.3239,-2.3219,-2.3219,-2.3219,-2.3219,-2.3219,-2.3219,-2.3219,-2.3219,-2.3219,-2.3219,-2.3219,-2.3219,-2.3219,-2.3219,-2.3151,-2.3008,-2.2852,-2.2767,-2.2624,-2.2391,-2.2268,-2.2268,-2.2268,-2.2268,-2.2323,-2.2201,-2.2038,-2.1483,-1.7748,-1.63,-1.511,-0.7929,-0.3061,0.0,0.0,0.0,0.0,0.0,0.0,0.0,0.0,0.0,0.0,0.0,0.0,0.0,0.0,0.0,0.0,0.0,-0.2433,-0.4602,-0.4571,-0.4568,-0.4557,-0.4597,-0.2009,0.0,0.0,0.0,0.0,0.0,0.0,0.0,0.0,0.0,0.0,0.0,0.0,0.0,0.0,0.0,0.0,0.0,0.0,0.0,0.0,0.0,0.0,0.0,0.0,0.0,0.0,0.0,0.0,-1.6347,-1.6673,-1.6958,-1.6978,-1.727,-1.7555,-1.7555,-1.7446,-1.7358,-1.7426,-1.7372,-1.7473,-1.8002,-1.8355,-1.8905,-1.9963,-2.0702,-2.1367,-2.2025,-2.2303,-2.2676,-2.3259,-2.3259,-2.3187,-2.3255,-2.3259,-2.3219,-2.3219,-2.3219,-2.3219,-2.3219,-2.3219,-2.3219,-2.3219,-2.3219,-2.3219,-2.3219,-2.3219,-2.3219,-2.3219,-2.3151,-2.3029,-2.2886,-2.273,-2.2567,-2.2432,-2.2308,-2.2268,-2.2268,-2.2268,-2.2268,-2.2268,-2.22,-2.2147,-2.1793,-1.9978,-1.7981,-1.5436,-1.0161,-0.5965,-0.2581,-0.0612,0.0,0.0,0.0,0.0,0.0,0.0,0.0,0.0,0.0,0.0,0.0,0.0,0.0,0.0,0.0,-0.1289,-0.3051,-0.5043,-0.5371,-0.5433,-0.5415,-0.4023,-0.2285,-0.0268,0.0,0.0,0.0,0.0,0.0,0.0,0.0,0.0,0.0,0.0,0.0,0.0,0.0,0.0,0.0,0.0,0.0,0.0,0.0,0.0,0.0,0.0,0.0,0.0,0.0,0.0,-1.6239,-1.6446,-1.6682,-1.689,-1.7317,-1.7793,-1.7936,-1.7806,-1.7683,-1.7825,-1.7737,-1.7806,-1.8233,-1.8728,-1.9434,-2.0462,-2.1143,-2.1652,-2.2093,-2.2391,-2.2767,-2.3083,-2.3151,-2.3171,-2.3171,-2.3205,-2.3219,-2.3219,-2.3219,-2.3205,-2.3171,-2.3205,-2.3205,-2.3171,-2.3205,-2.3219,-2.3219,-2.3185,-2.3171,-2.3171,-2.3063,-2.2907,-2.273,-2.2678,-2.2479,-2.2268,-2.2268,-2.2254,-2.222,-2.222,-2.222,-2.222,-2.2249,-2.2147,-2.2004,-2.1916,-1.9547,-1.5907,-1.316,-0.9758,-0.611,-0.2437,-0.1282,-0.1078,-0.027,0.0,0.0,0.0,0.0,0.0,0.0,0.0,0.0,0.0,0.0,0.0,0.0,-0.068,-0.2102,-0.484,-0.5371,-0.5433,-0.5424,-0.4695,-0.3223,-0.0403,0.0,0.0,0.0,0.0,0.0,0.0,0.0,0.0,0.0,0.0,0.0,0.0,0.0,0.0,0.0,0.0,0.0,0.0,0.0,0.0,0.0,0.0,0.0,0.0,0.0,0.0,-1.6266,-1.6422,-1.6571,-1.6675,-1.7005,-1.7385,-1.7948,-1.8004,-1.8058,-1.8623,-1.8565,-1.8552,-1.8864,-1.9522,-2.0261,-2.1034,-2.1441,-2.1815,-2.2249,-2.2466,-2.2692,-2.2798,-2.294,-2.3029,-2.3029,-2.3151,-2.3219,-2.3219,-2.3219,-2.3171,-2.3029,-2.3151,-2.3171,-2.3029,-2.3151,-2.3219,-2.3219,-2.3097,-2.3029,-2.3029,-2.3008,-2.2852,-2.2644,-2.2624,-2.2479,-2.2268,-2.2268,-2.2249,-2.2127,-2.2127,-2.2127,-2.2113,-2.1971,-2.1828,-2.1726,-2.1828,-1.9547,-1.6251,-1.6,-1.3524,-0.9915,-0.6229,-0.5023,-0.4377,-0.1025,0.0,0.0,0.0,0.0,0.0,0.0,0.0,0.0,0.0,0.0,0.0,0.0,-0.265,-0.508,-0.5379,-0.5371,-0.5424,-0.5389,-0.2611,-0.0269,-0.0067,0.0,0.0,0.0,0.0,0.0,0.0,0.0,0.0,0.0,0.0,0.0,0.0,0.0,0.0,0.0,0.0,0.0,0.0,0.0,0.0,0.0,0.0,0.0,0.0,0.0,0.0,-1.5961,-1.6266,-1.6506,-1.6662,-1.6993,-1.7494,-1.8091,-1.8247,-1.8443,-1.9061,-1.9061,-1.904,-1.9345,-1.9875,-2.0404,-2.0858,-2.1353,-2.1794,-2.2147,-2.2411,-2.2678,-2.2764,-2.2832,-2.2873,-2.2873,-2.292,-2.294,-2.294,-2.3029,-2.3063,-2.3008,-2.3151,-2.3205,-2.3151,-2.3185,-2.3185,-2.3097,-2.3042,-2.292,-2.273,-2.273,-2.2732,-2.2624,-2.2466,-2.2344,-2.2201,-2.2201,-2.2113,-2.1971,-2.1971,-2.2025,-2.2113,-2.2147,-2.2025,-2.1815,-2.1862,-2.0872,-1.9158,-1.6955,-1.533,-1.365,-0.9996,-0.7324,-0.5283,-0.39,-0.1842,0.0,0.0,0.0,0.0,0.0,0.0,-0.054,-0.2848,-0.3328,-0.3936,-0.6169,-0.5965,-0.6024,-0.8256,-0.6911,-0.6101,-0.8284,-0.7567,-0.5898,-0.3682,-0.3355,-0.2556,-0.0269,0.0,0.0,0.0,0.0,0.0,0.0,0.0,0.0,0.0,0.0,0.0,0.0,0.0,0.0,0.0,0.0,0.0,0.0,0.0,0.0,0.0,0.0,0.0,-1.5922,-1.6218,-1.6506,-1.6662,-1.7,-1.7541,-1.8287,-1.8565,-1.8864,-1.9509,-1.959,-1.9569,-1.982,-2.0153,-2.0505,-2.0858,-2.1333,-2.176,-2.2004,-2.2215,-2.2378,-2.2479,-2.2588,-2.2642,-2.2642,-2.273,-2.2784,-2.2784,-2.2886,-2.292,-2.2873,-2.3049,-2.3117,-2.3008,-2.3097,-2.3083,-2.294,-2.2886,-2.2764,-2.2624,-2.2569,-2.2479,-2.2479,-2.2337,-2.2215,-2.2113,-2.2059,-2.195,-2.1815,-2.1815,-2.1848,-2.1916,-2.216,-2.2059,-2.176,-2.1848,-2.1726,-2.117,-1.8686,-1.7925,-1.7399,-1.3773,-1.0985,-0.8752,-0.7669,-0.5543,-0.3546,-0.3564,-0.3555,-0.354,-0.3524,-0.2636,-0.2706,-0.633,-0.7207,-0.7801,-1.0251,-0.8806,-0.7824,-1.0263,-0.8714,-0.7847,-1.0313,-1.0634,-0.9827,-0.7442,-0.7029,-0.5755,-0.2145,-0.1736,-0.126,-0.0132,0.0,0.0,0.0,0.0,0.0,0.0,0.0,0.0,0.0,0.0,0.0,0.0,0.0,0.0,0.0,0.0,0.0,0.0,0.0,0.0,-1.6083,-1.6293,-1.6506,-1.6662,-1.6978,-1.748,-1.8531,-1.8884,-1.9257,-2.009,-2.0207,-2.0153,-2.0295,-2.0388,-2.0618,-2.1143,-2.1462,-2.1726,-2.1862,-2.1882,-2.1882,-2.1882,-2.2147,-2.2268,-2.2268,-2.2608,-2.2784,-2.2784,-2.2784,-2.271,-2.2624,-2.2832,-2.2873,-2.2644,-2.2852,-2.294,-2.2784,-2.2692,-2.2624,-2.2624,-2.2411,-2.2268,-2.2268,-2.2181,-2.2113,-2.2093,-2.195,-2.1794,-2.1672,-2.1672,-2.1584,-2.1429,-2.1937,-2.1828,-2.1409,-2.1774,-2.1794,-2.1672,-2.1672,-2.1672,-2.1082,-1.7524,-1.6326,-1.5668,-1.231,-1.1206,-1.1218,-1.1218,-1.1218,-1.1218,-1.1218,-0.8515,-0.6666,-1.0402,-1.1075,-1.0985,-1.0997,-1.089,-1.0717,-1.0717,-1.0717,-1.0717,-1.0717,-1.0656,-1.0573,-1.0707,-1.0656,-0.9288,-0.5912,-0.5447,-0.4031,-0.0457,-0.0065,-0.0065,0.0,0.0,0.0,0.0,0.0,0.0,0.0,0.0,0.0,0.0,0.0,0.0,0.0,0.0,0.0,0.0,0.0,0.0,-1.5942,-1.6144,-1.6483,-1.6944,-1.7528,-1.8179,-1.8905,-1.9115,-1.9393,-2.0232,-2.03,-2.0275,-2.0266,-2.03,-2.0505,-2.0845,-2.1157,-2.1441,-2.1692,-2.1815,-2.1882,-2.1882,-2.1971,-2.2059,-2.216,-2.2255,-2.2357,-2.2466,-2.2567,-2.2608,-2.2624,-2.2744,-2.2798,-2.271,-2.2798,-2.2784,-2.2692,-2.2644,-2.25,-2.2411,-2.2357,-2.2268,-2.2268,-2.2289,-2.2147,-2.195,-2.1903,-2.174,-2.1509,-2.1618,-2.1638,-2.1618,-2.1862,-2.1815,-2.1618,-2.1706,-2.1638,-2.1509,-2.1509,-2.1652,-2.1686,-2.0557,-1.8553,-1.6358,-1.5391,-1.3287,-1.1172,-1.1223,-1.1199,-1.1787,-1.4402,-1.4159,-1.3579,-1.4657,-1.4783,-1.5369,-1.7976,-1.6374,-1.4529,-1.4529,-1.2461,-1.1515,-1.4072,-1.444,-1.4426,-1.4463,-1.444,-1.3137,-0.943,-0.8986,-0.7614,-0.3974,-0.3556,-0.2641,-0.0194,0.0,0.0,0.0,0.0,0.0,0.0,0.0,0.0,0.0,0.0,0.0,0.0,0.0,0.0,0.0,0.0,0.0,-1.6062,-1.6429,-1.6876,-1.7419,-1.8023,-1.8687,-1.9393,-1.961,-1.982,-2.0354,-2.0374,-2.0349,-2.0397,-2.0354,-2.0492,-2.0736,-2.1021,-2.1285,-2.1462,-2.1618,-2.1706,-2.1706,-2.176,-2.1862,-2.2004,-2.2079,-2.2181,-2.2323,-2.2411,-2.2466,-2.2466,-2.2608,-2.2656,-2.2608,-2.2656,-2.2622,-2.2466,-2.2466,-2.2432,-2.2268,-2.2268,-2.2303,-2.2249,-2.2181,-2.2059,-2.1882,-2.176,-2.1597,-2.1389,-2.1597,-2.1638,-2.1597,-2.1815,-2.1794,-2.1672,-2.1672,-2.1618,-2.153,-2.1455,-2.1497,-2.1726,-2.1848,-2.0466,-1.8752,-1.8903,-1.7358,-1.5555,-1.5595,-1.5581,-1.6095,-1.8327,-1.8817,-1.8735,-1.8735,-1.8602,-1.9017,-2.1256,-1.9863,-1.8216,-1.8216,-1.6465,-1.5666,-1.7812,-1.817,-1.8159,-1.8205,-1.6927,-1.5168,-1.2834,-1.1299,-0.961,-0.7379,-0.7152,-0.6302,-0.4246,-0.4117,-0.4117,-0.4117,-0.2782,-0.2014,-0.2019,-0.0724,0.0,0.0,0.0,0.0,0.0,0.0,0.0,0.0,0.0,0.0,-1.6429,-1.6937,-1.7521,-1.8002,-1.8518,-1.9174,-1.9963,-2.0241,-2.032,-2.0442,-2.0374,-2.0383,-2.0462,-2.0496,-2.0614,-2.077,-2.1034,-2.1211,-2.1231,-2.1353,-2.1375,-2.1375,-2.1564,-2.1706,-2.1848,-2.2004,-2.2147,-2.2303,-2.2268,-2.2268,-2.2268,-2.2466,-2.2479,-2.2337,-2.2466,-2.2466,-2.2268,-2.2268,-2.2268,-2.2268,-2.2268,-2.2249,-2.2113,-2.1971,-2.1882,-2.1848,-2.1564,-2.1375,-2.1389,-2.1597,-2.1564,-2.1409,-2.174,-2.1774,-2.1672,-2.1652,-2.1652,-2.1652,-2.1496,-2.1389,-2.1509,-2.1774,-2.1794,-2.1794,-2.2201,-2.2235,-2.216,-2.2303,-2.2323,-2.2254,-2.2254,-2.2201,-2.2072,-2.2072,-2.1862,-2.1672,-2.1672,-2.155,-2.1375,-2.1375,-2.1375,-2.1375,-2.1375,-2.1319,-2.1279,-2.1355,-1.8534,-1.63,-1.6114,-1.3292,-1.1111,-1.0787,-1.0787,-1.0659,-1.0335,-1.0271,-1.0271,-1.0271,-0.7328,-0.5548,-0.559,-0.198,0.0,0.0,0.0,0.0,0.0,0.0,0.0,0.0,0.0,0.0,-1.6307,-1.6788,-1.7433,-1.8233,-1.9217,-2.0064,-2.032,-2.0471,-2.0442,-2.0476,-2.0462,-2.0442,-2.0476,-2.0648,-2.077,-2.0933,-2.1109,-2.1245,-2.1367,-2.1355,-2.1375,-2.1375,-2.1409,-2.155,-2.1706,-2.1848,-2.1991,-2.2147,-2.2269,-2.2268,-2.2268,-2.2308,-2.2308,-2.2268,-2.2308,-2.2308,-2.2268,-2.2268,-2.2268,-2.2268,-2.2268,-2.2249,-2.2113,-2.2079,-2.1937,-2.1706,-2.153,-2.1375,-2.1375,-2.1475,-2.1409,-2.1441,-2.1509,-2.1584,-2.1652,-2.153,-2.1564,-2.1652,-2.1496,-2.1509,-2.1638,-2.1692,-2.1848,-2.2038,-2.2127,-2.2215,-2.2234,-2.2323,-2.2249,-2.216,-2.216,-2.1971,-2.176,-2.176,-2.1726,-2.1672,-2.1672,-2.155,-2.1375,-2.1375,-2.1375,-2.1375,-2.1375,-2.1408,-2.1341,-2.1375,-2.062,-1.9979,-1.985,-1.9052,-1.7447,-1.4637,-1.4313,-1.3222,-1.0531,-1.0271,-1.0271,-1.0271,-0.957,-0.9213,-0.9153,-0.3282,0.0,0.0,0.0,0.0,0.0,0.0,0.0,0.0,0.0,0.0,-1.6334,-1.6904,-1.7684,-1.8796,-1.9766,-2.0388,-2.0462,-2.0476,-2.0476,-2.0476,-2.0476,-2.0476,-2.0476,-2.0614,-2.0716,-2.0858,-2.1021,-2.1157,-2.1319,-2.1387,-2.1375,-2.1375,-2.1375,-2.1496,-2.1652,-2.174,-2.1862,-2.2093,-2.2113,-2.2181,-2.2268,-2.2269,-2.22,-2.2268,-2.2268,-2.2303,-2.2235,-2.2235,-2.2201,-2.2127,-2.2201,-2.2147,-2.2004,-2.1937,-2.1774,-2.1564,-2.1475,-2.1375,-2.1375,-2.1375,-2.1375,-2.1441,-2.153,-2.1638,-2.176,-2.1597,-2.1652,-2.174,-2.1509,-2.1496,-2.1584,-2.1726,-2.1828,-2.1937,-2.216,-2.2215,-2.2249,-2.2254,-2.2235,-2.2113,-2.2113,-2.1937,-2.176,-2.1692,-2.1618,-2.1564,-2.1564,-2.1496,-2.1375,-2.1375,-2.1375,-2.1375,-2.1375,-2.1375,-2.1355,-2.1333,-2.1211,-2.1055,-2.0912,-2.0824,-2.0055,-1.8045,-1.7959,-1.7204,-1.5339,-1.5207,-1.5207,-1.5207,-1.3665,-1.2728,-1.2718,-0.7768,-0.5015,-0.5052,-0.5084,-0.5102,-0.5102,-0.5102,-0.5102,-0.5102,-0.5102,-0.5102,-1.6266,-1.7,-1.8014,-1.9345,-2.0085,-2.0442,-2.0476,-2.0476,-2.0476,-2.0476,-2.0476,-2.0476,-2.0476,-2.056,-2.0627,-2.079,-2.0933,-2.1089,-2.1231,-2.1353,-2.1375,-2.1375,-2.1375,-2.1496,-2.1618,-2.1652,-2.1774,-2.2025,-2.1937,-2.1991,-2.2249,-2.216,-2.216,-2.2234,-2.2323,-2.222,-2.2147,-2.2147,-2.2093,-2.1971,-2.2059,-2.2038,-2.1916,-2.1774,-2.1618,-2.1375,-2.1375,-2.1375,-2.1375,-2.1375,-2.1389,-2.1496,-2.1618,-2.1774,-2.1903,-2.174,-2.176,-2.1848,-2.1543,-2.1375,-2.1429,-2.176,-2.1781,-2.1774,-2.2181,-2.2235,-2.2181,-2.2303,-2.2215,-2.2079,-2.2079,-2.1937,-2.1774,-2.1652,-2.153,-2.1375,-2.1375,-2.1455,-2.1409,-2.1441,-2.1375,-2.1375,-2.1375,-2.1375,-2.1341,-2.1265,-2.1109,-2.0967,-2.0858,-2.077,-2.0702,-2.0594,-2.0668,-2.0682,-2.0496,-2.0476,-2.0476,-2.0476,-1.7848,-1.6312,-1.6328,-1.3744,-1.2301,-1.2327,-1.1275,-1.0717,-1.0717,-1.0717,-1.0717,-1.0717,-1.0717,-1.0717,-1.5695,-1.6912,-1.8464,-1.9473,-2.001,-2.0383,-2.0442,-2.0476,-2.0476,-2.0476,-2.0476,-2.0476,-2.0476,-2.0648,-2.079,-2.0946,-2.1089,-2.1231,-2.1321,-2.1421,-2.1375,-2.1375,-2.1375,-2.1441,-2.1409,-2.1597,-2.1686,-2.1726,-2.1828,-2.1903,-2.1937,-2.2059,-2.2127,-2.2147,-2.2269,-2.2323,-2.2303,-2.2303,-2.2234,-2.2269,-2.216,-2.2093,-2.2079,-2.1916,-2.1706,-2.1375,-2.1375,-2.1375,-2.1375,-2.1375,-2.1509,-2.1638,-2.1672,-2.1848,-2.2038,-2.1774,-2.176,-2.1848,-2.1543,-2.1375,-2.1409,-2.1638,-2.1774,-2.1882,-2.2079,-2.2215,-2.2254,-2.2268,-2.2127,-2.1916,-2.1916,-2.1706,-2.1496,-2.1409,-2.1389,-2.1375,-2.1375,-2.155,-2.1597,-2.1455,-2.1375,-2.1375,-2.1375,-2.1375,-2.1375,-2.1408,-2.1177,-2.1034,-2.1143,-2.0804,-2.0614,-2.0736,-2.0648,-2.056,-2.0476,-2.0476,-2.0476,-2.0476,-2.0081,-1.9892,-2.0094,-1.9799,-1.9679,-1.9747,-1.381,-1.0717,-1.0717,-1.0717,-1.0717,-1.0717,-1.0717,-1.0717,-1.6205,-1.7148,-1.8123,-1.9169,-1.9746,-2.0139,-2.0363,-2.0422,-2.0476,-2.0476,-2.0476,-2.0476,-2.0476,-2.0594,-2.0716,-2.0967,-2.1055,-2.1177,-2.1341,-2.1375,-2.1375,-2.1375,-2.1375,-2.1375,-2.1375,-2.1496,-2.1584,-2.1672,-2.1652,-2.1706,-2.1862,-2.1862,-2.1903,-2.1991,-2.2127,-2.216,-2.2079,-2.216,-2.216,-2.2079,-2.2025,-2.1937,-2.1862,-2.1794,-2.174,-2.1686,-2.1686,-2.1686,-2.1686,-2.1686,-2.1726,-2.1794,-2.1794,-2.1916,-2.2079,-2.1774,-2.176,-2.1848,-2.1543,-2.1496,-2.1597,-2.174,-2.1828,-2.1937,-2.216,-2.2235,-2.2215,-2.2215,-2.2059,-2.1862,-2.1781,-2.1672,-2.155,-2.1455,-2.1509,-2.155,-2.1389,-2.1496,-2.153,-2.1389,-2.1375,-2.1375,-2.1375,-2.1375,-2.1341,-2.1319,-2.1143,-2.1001,-2.0967,-2.079,-2.0668,-2.0648,-2.0668,-2.0627,-2.0539,-2.0476,-2.0476,-2.0476,-2.0476,-2.051,-2.0648,-2.079,-2.0946,-2.1089,-1.8184,-1.667,-1.667,-1.667,-1.667,-1.667,-1.6601,-1.6601,-1.6354,-1.7019,-1.7609,-1.8674,-1.9291,-1.9746,-2.0119,-2.0329,-2.0438,-2.0471,-2.0462,-2.0476,-2.0476,-2.0476,-2.0584,-2.0946,-2.0967,-2.1055,-2.1333,-2.1321,-2.1321,-2.1321,-2.1355,-2.1375,-2.1375,-2.1375,-2.1496,-2.1597,-2.1509,-2.153,-2.176,-2.174,-2.1774,-2.1882,-2.2072,-2.2113,-2.2004,-2.2113,-2.2079,-2.1882,-2.1916,-2.1862,-2.1726,-2.1726,-2.1781,-2.1882,-2.1848,-2.1848,-2.1882,-2.1882,-2.1937,-2.1991,-2.195,-2.2004,-2.2079,-2.1815,-2.1774,-2.1794,-2.1584,-2.1584,-2.1692,-2.1828,-2.1882,-2.1916,-2.2147,-2.2147,-2.2059,-2.2059,-2.195,-2.1815,-2.1706,-2.1638,-2.1584,-2.1409,-2.153,-2.1597,-2.1509,-2.1409,-2.1389,-2.1496,-2.1409,-2.1375,-2.1375,-2.1375,-2.1321,-2.1231,-2.1089,-2.0967,-2.0845,-2.0756,-2.0682,-2.0614,-2.0668,-2.0668,-2.0496,-2.0476,-2.0476,-2.0476,-2.0476,-2.0496,-2.0594,-2.0756,-2.0878,-2.1001,-2.1245,-2.1341,-2.1375,-2.1375,-2.1375,-2.1375,-2.1279,-2.1299,-1.5492,-1.6189,-1.6959,-1.7914,-1.8599,-1.9183,-1.9766,-2.001,-2.0173,-2.0246,-2.0388,-2.0476,-2.0476,-2.0476,-2.0584,-2.0946,-2.0878,-2.0892,-2.1177,-2.1231,-2.1231,-2.1231,-2.1353,-2.1375,-2.1375,-2.1375,-2.1375,-2.1389,-2.1441,-2.1441,-2.1455,-2.1726,-2.1882,-2.1882,-2.216,-2.2323,-2.2254,-2.2323,-2.2181,-2.1882,-2.2025,-2.2025,-2.1862,-2.1862,-2.1882,-2.1882,-2.174,-2.176,-2.1882,-2.1882,-2.2059,-2.2303,-2.216,-2.2113,-2.2093,-2.1937,-2.1794,-2.1739,-2.1672,-2.1672,-2.1692,-2.1828,-2.1882,-2.1882,-2.1903,-2.1903,-2.1903,-2.1903,-2.1794,-2.1686,-2.1672,-2.1564,-2.1389,-2.1375,-2.1441,-2.1496,-2.1638,-2.155,-2.1475,-2.1638,-2.155,-2.1375,-2.1375,-2.1375,-2.1321,-2.1231,-2.1089,-2.1001,-2.098,-2.0736,-2.0614,-2.08,-2.0627,-2.0539,-2.0476,-2.0476,-2.0476,-2.0476,-2.0476,-2.0614,-2.0756,-2.0912,-2.1001,-2.1001,-2.1143,-2.1299,-2.1375,-2.1375,-2.1375,-2.1375,-2.1279,-2.1299,-1.5041,-1.5974,-1.6537,-1.7439,-1.8111,-1.8687,-1.9183,-1.9644,-1.9997,-2.0153,-2.0295,-2.0374,-2.0462,-2.0476,-2.0614,-2.0824,-2.0811,-2.0878,-2.1177,-2.1143,-2.1143,-2.1333,-2.1319,-2.1333,-2.1421,-2.1375,-2.1375,-2.1375,-2.1375,-2.1375,-2.1375,-2.1638,-2.174,-2.174,-2.2038,-2.2235,-2.2268,-2.2235,-2.2093,-2.1882,-2.1937,-2.1828,-2.1597,-2.1706,-2.174,-2.174,-2.1692,-2.1815,-2.2038,-2.2127,-2.2235,-2.2323,-2.216,-2.2113,-2.2093,-2.1937,-2.1848,-2.1815,-2.1815,-2.1862,-2.1971,-2.2004,-2.1971,-2.1903,-2.2004,-2.1903,-2.174,-2.174,-2.1706,-2.1652,-2.155,-2.1475,-2.1375,-2.1375,-2.1375,-2.1389,-2.1509,-2.1475,-2.1389,-2.1509,-2.1475,-2.1375,-2.1375,-2.1353,-2.1245,-2.1109,-2.0946,-2.0824,-2.0716,-2.055,-2.056,-2.0614,-2.051,-2.0476,-2.0476,-2.0476,-2.0476,-2.0476,-2.0476,-2.0614,-2.077,-2.0824,-2.0892,-2.1001,-2.1055,-2.1143,-2.1299,-2.1299,-2.1299,-2.1285,-2.1143,-2.1157,-1.3505,-1.4945,-1.5931,-1.592,-1.6877,-1.8036,-1.8687,-1.9183,-1.9576,-1.982,-2.0085,-2.0295,-2.0438,-2.0442,-2.0614,-2.0811,-2.0756,-2.0804,-2.1109,-2.1055,-2.1055,-2.1197,-2.1211,-2.1245,-2.1353,-2.1301,-2.1321,-2.1375,-2.1375,-2.1375,-2.1375,-2.1638,-2.1794,-2.1903,-2.2093,-2.2215,-2.22,-2.216,-2.2004,-2.1815,-2.1815,-2.1686,-2.1375,-2.155,-2.1597,-2.1597,-2.1652,-2.1848,-2.2113,-2.216,-2.2249,-2.2323,-2.216,-2.2113,-2.2093,-2.1991,-2.1937,-2.1882,-2.1937,-2.2025,-2.2113,-2.2059,-2.1971,-2.1882,-2.1882,-2.174,-2.1597,-2.1597,-2.1597,-2.1564,-2.1409,-2.1375,-2.1375,-2.1375,-2.1375,-2.1375,-2.1375,-2.1375,-2.1421,-2.1367,-2.1341,-2.1341,-2.1253,-2.1245,-2.1143,-2.0946,-2.0845,-2.0716,-2.056,-2.0476,-2.056,-2.0614,-2.051,-2.056,-2.0614,-2.051,-2.0476,-2.0476,-2.0476,-2.0614,-2.077,-2.0824,-2.0878,-2.0933,-2.098,-2.1055,-2.1143,-2.1143,-2.1157,-2.1211,-2.1021,-2.098,0.0,0.0,0.0,-1.3535,-1.505,-1.7243,-1.8267,-1.862,-1.8871,-1.9325,-1.9766,-2.0119,-2.0295,-2.0374,-2.0627,-2.0933,-2.0736,-2.0648,-2.0946,-2.1001,-2.0946,-2.079,-2.1034,-2.1211,-2.1211,-2.1211,-2.1279,-2.1421,-2.1375,-2.1375,-2.1375,-2.1726,-2.2025,-2.2323,-2.2268,-2.2269,-2.2113,-2.2113,-2.195,-2.1672,-2.1672,-2.1584,-2.1375,-2.1375,-2.1375,-2.1389,-2.1597,-2.1828,-2.2093,-2.195,-2.2059,-2.2254,-2.216,-2.2113,-2.2113,-2.2113,-2.2025,-2.1916,-2.2059,-2.2113,-2.2093,-2.195,-2.1882,-2.1828,-2.1477,-2.1441,-2.1375,-2.1375,-2.1375,-2.1375,-2.1375,-2.1375,-2.1375,-2.1375,-2.1375,-2.1375,-2.1375,-2.1375,-2.1387,-2.1245,-2.1333,-2.1353,-2.1055,-2.1123,-2.1109,-2.0875,-2.077,-2.0716,-2.056,-2.0539,-2.0614,-2.0756,-2.0627,-2.0614,-2.0756,-2.0627,-2.0476,-2.0476,-2.0539,-2.0614,-2.077,-2.0933,-2.0933,-2.079,-2.0912,-2.098,-2.098,-2.098,-2.1068,-2.1211,-2.0912,-2.079,-1.3239,0.0,0.0,0.0,0.0,0.0,-1.7446,-1.7846,-1.8301,-1.8972,-1.9291,-1.959,-2.0085,-2.0232,-2.0388,-2.0627,-2.053,-2.0614,-2.0804,-2.0845,-2.0858,-2.0933,-2.1001,-2.1109,-2.1197,-2.1211,-2.1279,-2.1421,-2.1375,-2.1375,-2.1375,-2.1726,-2.2025,-2.2323,-2.2268,-2.2269,-2.2113,-2.2004,-2.1848,-2.1672,-2.1564,-2.1475,-2.1375,-2.1375,-2.1496,-2.1597,-2.153,-2.1618,-2.1815,-2.1971,-2.2093,-2.216,-2.2127,-2.2113,-2.2113,-2.2113,-2.2079,-2.2072,-2.2215,-2.2269,-2.2269,-2.2235,-2.2059,-2.1862,-2.1774,-2.1618,-2.1375,-2.1375,-2.1375,-2.1375,-2.1375,-2.1375,-2.1375,-2.1375,-2.1375,-2.1375,-2.1375,-2.1353,-2.1299,-2.1301,-2.1341,-2.1321,-2.119,-2.1109,-2.1001,-2.0811,-2.0682,-2.053,-2.0539,-2.0648,-2.0716,-2.077,-2.0736,-2.0716,-2.077,-2.0627,-2.0476,-2.0476,-2.0648,-2.077,-2.0933,-2.098,-2.098,-2.0933,-2.0878,-2.077,-2.0661,-2.079,-2.0967,-2.1211,-2.1123,-2.1034,-1.3075,-1.4654,-1.5696,-1.4775,0.0,0.0,-1.7093,-1.7392,-1.7772,-1.8477,-1.8776,-1.9061,-1.9556,-1.982,-1.9997,-2.0153,-2.0275,-2.0451,-2.0736,-2.077,-2.079,-2.0804,-2.0858,-2.0967,-2.1109,-2.1123,-2.1211,-2.1421,-2.1375,-2.1496,-2.1618,-2.1848,-2.2093,-2.2268,-2.2268,-2.2269,-2.2113,-2.195,-2.1815,-2.1672,-2.1509,-2.1375,-2.1375,-2.1375,-2.1496,-2.1564,-2.1475,-2.1496,-2.1597,-2.1828,-2.1971,-2.2025,-2.2025,-2.2093,-2.2201,-2.2201,-2.2201,-2.2215,-2.2303,-2.2268,-2.2323,-2.22,-2.2127,-2.1971,-2.1903,-2.1726,-2.153,-2.153,-2.1496,-2.1375,-2.1375,-2.1375,-2.1375,-2.1375,-2.1375,-2.1375,-2.1375,-2.1319,-2.1231,-2.1245,-2.1199,-2.1125,-2.0967,-2.0912,-2.0858,-2.0702,-2.0648,-2.0614,-2.0539,-2.0682,-2.079,-2.0858,-2.0756,-2.0736,-2.0858,-2.0668,-2.051,-2.0627,-2.0716,-2.0858,-2.1089,-2.1089,-2.1089,-2.1089,-2.1001,-2.0878,-2.0736,-2.0702,-2.079,-2.1034,-2.1157,-2.1143,-1.2155,-1.3976,-1.5532,-1.3571,-1.4743,0.0,-1.6992,-1.7148,-1.7351,-1.7901,-1.8233,-1.8531,-1.885,-1.9149,-1.9393,-1.9522,-1.9834,-2.0227,-2.0668,-2.0756,-2.0716,-2.0496,-2.0682,-2.0824,-2.0967,-2.098,-2.1109,-2.1367,-2.1341,-2.155,-2.1862,-2.2004,-2.216,-2.2268,-2.2268,-2.2249,-2.2093,-2.195,-2.1794,-2.1638,-2.1509,-2.1375,-2.1375,-2.1375,-2.1375,-2.1375,-2.1375,-2.1375,-2.1389,-2.1584,-2.1726,-2.1862,-2.1903,-2.2079,-2.2254,-2.2268,-2.2268,-2.2268,-2.2254,-2.2323,-2.2303,-2.2147,-2.2093,-2.2059,-2.1903,-2.176,-2.1652,-2.1652,-2.155,-2.1375,-2.1375,-2.1375,-2.1375,-2.1375,-2.1375,-2.1375,-2.1375,-2.1319,-2.1177,-2.1034,-2.1001,-2.0912,-2.0614,-2.0682,-2.0716,-2.056,-2.0668,-2.0702,-2.0496,-2.0682,-2.0845,-2.098,-2.075,-2.0702,-2.098,-2.0716,-2.0594,-2.0736,-2.0821,-2.0892,-2.1177,-2.1197,-2.1197,-2.1211,-2.1197,-2.1123,-2.1001,-2.0736,-2.0682,-2.0824,-2.1109,-2.1177,-1.5146,-1.5807,-1.6357,-1.5623,-1.6232,0.0,-1.6564,-1.6849,-1.7263,-1.75,-1.7649,-1.7893,-1.8375,-1.8694,-1.8871,-1.8762,-1.9413,-2.0031,-2.0363,-2.0614,-2.0716,-2.0496,-2.0682,-2.079,-2.0875,-2.0933,-2.1021,-2.1089,-2.1197,-2.1441,-2.1862,-2.1916,-2.2059,-2.2268,-2.2268,-2.2201,-2.1937,-2.1903,-2.174,-2.1496,-2.1389,-2.1375,-2.1375,-2.1375,-2.1375,-2.1375,-2.1375,-2.1375,-2.1375,-2.1409,-2.1584,-2.174,-2.1971,-2.2113,-2.216,-2.2289,-2.2268,-2.2254,-2.2201,-2.2235,-2.2289,-2.2025,-2.1937,-2.1903,-2.176,-2.1597,-2.1496,-2.1496,-2.1455,-2.1375,-2.1375,-2.1375,-2.1375,-2.1375,-2.1375,-2.1375,-2.1375,-2.1319,-2.1177,-2.1034,-2.1001,-2.0946,-2.0756,-2.0756,-2.0716,-2.056,-2.056,-2.051,-2.0539,-2.079,-2.0967,-2.1001,-2.0946,-2.0933,-2.1001,-2.0716,-2.0496,-2.058,-2.0702,-2.0858,-2.1034,-2.1034,-2.1089,-2.1211,-2.1109,-2.1034,-2.1001,-2.1055,-2.1089,-2.1123,-2.1319,-2.1321,-1.6313,-1.6463,-1.6675,-1.6653,-1.6809,0.0,0.0,-1.6863,-1.7032,-1.7263,-1.7311,-1.7433,-1.7751,-1.7989,-1.8145,-1.8287,-1.8884,-1.94,-1.9624,-2.0241,-2.0627,-2.0496,-2.0614,-2.0682,-2.077,-2.0845,-2.0946,-2.1089,-2.1245,-2.1462,-2.176,-2.1848,-2.195,-2.2113,-2.2113,-2.2004,-2.1774,-2.1774,-2.1672,-2.1375,-2.1375,-2.1475,-2.155,-2.1475,-2.1475,-2.155,-2.1409,-2.1375,-2.1375,-2.1375,-2.1496,-2.1584,-2.1882,-2.2038,-2.2127,-2.222,-2.2268,-2.2323,-2.2249,-2.2215,-2.2201,-2.2038,-2.195,-2.1862,-2.1794,-2.1672,-2.155,-2.1455,-2.1375,-2.1375,-2.1375,-2.1375,-2.1375,-2.1375,-2.1375,-2.1375,-2.1375,-2.1319,-2.1177,-2.1034,-2.1001,-2.0933,-2.0702,-2.0716,-2.0756,-2.0668,-2.0716,-2.077,-2.077,-2.0912,-2.1001,-2.1001,-2.0933,-2.0892,-2.0892,-2.0618,-2.051,-2.0648,-2.0736,-2.0878,-2.1089,-2.1109,-2.1177,-2.1319,-2.1177,-2.1143,-2.1211,-2.1211,-2.1211,-2.1211,-2.1367,-2.1375,-1.6849,-1.6797,-1.698,-1.7127,-1.71,-1.7,0.0,0.0,0.0,-1.7073,-1.7039,-1.7053,-1.729,-1.7358,-1.7487,-1.7826,-1.8378,-1.8708,-1.8796,-1.9657,-2.0232,-2.0266,-2.032,-2.0451,-2.058,-2.058,-2.0736,-2.1143,-2.1211,-2.1333,-2.1618,-2.176,-2.1848,-2.1882,-2.1882,-2.1815,-2.1672,-2.1672,-2.1597,-2.1375,-2.1375,-2.153,-2.1672,-2.1509,-2.1543,-2.1706,-2.1509,-2.1389,-2.1475,-2.1389,-2.1375,-2.1409,-2.174,-2.1916,-2.2038,-2.2201,-2.2249,-2.2249,-2.2215,-2.2147,-2.2059,-2.2004,-2.1903,-2.1794,-2.1794,-2.1726,-2.1597,-2.1475,-2.1375,-2.1375,-2.1375,-2.1375,-2.1375,-2.1341,-2.1387,-2.1321,-2.1301,-2.1265,-2.1123,-2.098,-2.0946,-2.0878,-2.0627,-2.0716,-2.0824,-2.0824,-2.0912,-2.1001,-2.1001,-2.1021,-2.1034,-2.1001,-2.0892,-2.0811,-2.077,-2.0627,-2.0614,-2.0821,-2.077,-2.0912,-2.1197,-2.1211,-2.1265,-2.1387,-2.1245,-2.1231,-2.1353,-2.1231,-2.1197,-2.1265,-2.1321,-2.1421,-1.7446,-1.7623,-1.7792,-1.7161,-1.7575,-1.7825,-1.6836,0.0,-1.7189,-1.6824,0.0,-1.6992,-1.7026,0.0,0.0,-1.7121,-1.7812,-1.8321,-1.8213,-1.8864,-1.9393,-1.9535,-1.9786,-1.9963,-1.9976,-1.9916,-2.0139,-2.0967,-2.0668,-2.0685,-2.1421,-2.1618,-2.176,-2.1882,-2.1882,-2.1815,-2.1672,-2.1672,-2.1597,-2.1375,-2.1375,-2.153,-2.1672,-2.1509,-2.1597,-2.1848,-2.1564,-2.1509,-2.1638,-2.1496,-2.1375,-2.1389,-2.1638,-2.1706,-2.174,-2.1882,-2.1937,-2.1916,-2.1794,-2.1815,-2.1862,-2.1597,-2.1443,-2.1496,-2.1496,-2.1475,-2.1455,-2.1441,-2.1375,-2.1375,-2.1375,-2.1375,-2.1341,-2.1265,-2.1231,-2.1211,-2.1068,-2.1034,-2.098,-2.0824,-2.079,-2.079,-2.0756,-2.0878,-2.098,-2.098,-2.098,-2.1001,-2.1001,-2.1109,-2.1143,-2.1021,-2.098,-2.0912,-2.079,-2.0627,-2.0614,-2.0821,-2.077,-2.0912,-2.1197,-2.1211,-2.1211,-2.1231,-2.1109,-2.1034,-2.1055,-2.1034,-2.1157,-2.1355,-2.1375,-2.1367,-1.7541,-1.7684,-1.786,-1.7467,-1.7595,-1.7717,-1.7182,-1.7107,-1.7114,-1.6924,0.0,0.0,0.0,0.0,0.0,0.0,-1.7494,-1.7772,-1.7704,-1.8124,-1.864,-1.9237,-1.9413,-1.9522,-1.961,-1.9556,-1.9834,-2.056,-2.0349,-2.0492,-2.1143,-2.1319,-2.1421,-2.1496,-2.1584,-2.1597,-2.153,-2.1618,-2.1597,-2.1375,-2.1618,-2.1726,-2.1794,-2.1726,-2.1815,-2.2004,-2.1706,-2.1618,-2.1652,-2.1509,-2.1375,-2.1389,-2.1618,-2.1672,-2.1692,-2.1828,-2.1882,-2.1882,-2.1815,-2.1774,-2.1726,-2.1509,-2.1375,-2.1375,-2.1375,-2.1375,-2.1375,-2.1375,-2.1375,-2.1375,-2.1375,-2.1375,-2.1341,-2.1245,-2.1211,-2.1177,-2.1034,-2.1001,-2.0946,-2.0811,-2.0845,-2.0878,-2.079,-2.0824,-2.0858,-2.0858,-2.0946,-2.1001,-2.1001,-2.1055,-2.1034,-2.0878,-2.0858,-2.0804,-2.0648,-2.0573,-2.0614,-2.0821,-2.0933,-2.1089,-2.1211,-2.1211,-2.1211,-2.1211,-2.1068,-2.1001,-2.1001,-2.1001,-2.1068,-2.119,-2.1265,-2.1319,-1.7758,-1.7846,-1.8078,-1.767,-1.7595,-1.7623,-1.7257,-1.7202,-1.7121,-1.6951,-1.6992,0.0,0.0,0.0,-1.6939,-1.7161,0.0,-1.7405,-1.7365,-1.7582,-1.8002,-1.8687,-1.8952,-1.9169,-1.9353,-1.9325,-1.9522,-2.0153,-1.9997,-2.0153,-2.0845,-2.1055,-2.1177,-2.1211,-2.1353,-2.1375,-2.1375,-2.155,-2.155,-2.1375,-2.1652,-2.1815,-2.1882,-2.1794,-2.1916,-2.2147,-2.1774,-2.1652,-2.1706,-2.153,-2.1375,-2.1389,-2.1564,-2.1597,-2.1618,-2.1774,-2.1794,-2.176,-2.176,-2.1686,-2.1584,-2.1475,-2.1375,-2.1375,-2.1375,-2.1375,-2.1375,-2.1375,-2.1375,-2.1375,-2.1375,-2.1341,-2.1333,-2.1197,-2.1123,-2.1055,-2.0912,-2.0878,-2.0845,-2.0736,-2.0804,-2.0845,-2.0736,-2.077,-2.0845,-2.0845,-2.0933,-2.1021,-2.1055,-2.1021,-2.0967,-2.0845,-2.079,-2.0702,-2.0496,-2.0476,-2.0627,-2.0824,-2.1109,-2.1279,-2.1279,-2.1231,-2.1197,-2.1157,-2.1021,-2.0933,-2.0933,-2.0933,-2.0967,-2.1001,-2.1109,-2.1197,-1.8267,-1.8389,-1.8575,-1.765,-1.765,-1.767,-1.6885,-1.7162,-1.7406,-1.6824,-1.7324,-1.7704,-1.7263,-1.7304,-1.7351,-1.7216,-1.7317,0.0,0.0,-1.7338,-1.7446,-1.7629,-1.8335,-1.8959,-1.9333,-1.904,-1.9094,-1.9841,-1.9481,-1.9624,-2.0442,-2.0845,-2.1068,-2.1211,-2.1353,-2.1375,-2.1375,-2.1441,-2.1441,-2.1375,-2.1389,-2.1597,-2.1862,-2.1584,-2.1706,-2.2234,-2.1639,-2.1618,-2.1848,-2.1564,-2.1375,-2.1375,-2.1441,-2.1441,-2.1455,-2.1618,-2.1584,-2.1389,-2.1389,-2.1389,-2.1441,-2.1375,-2.1375,-2.1375,-2.1375,-2.1375,-2.1375,-2.1375,-2.1375,-2.1375,-2.1375,-2.1267,-2.1177,-2.1034,-2.0892,-2.0736,-2.053,-2.0496,-2.0496,-2.0539,-2.0496,-2.0496,-2.0539,-2.079,-2.1001,-2.1001,-2.1001,-2.1055,-2.1197,-2.1089,-2.1001,-2.1001,-2.0858,-2.0702,-2.0496,-2.0476,-2.0661,-2.0967,-2.1265,-2.1375,-2.1375,-2.1285,-2.1143,-2.1021,-2.0858,-2.0834,-2.0834,-2.0834,-2.0858,-2.1001,-2.1001,-2.0933,-1.8782,-1.9065,-1.9169,-1.8355,-1.8158,-1.7968,-1.7216,-1.7358,-1.7426,-1.6817,-1.7426,-1.7812,-1.7168,-1.7256,-1.7372,-1.7216,-1.7236,-1.7249,0.0,-1.7154,-1.7256,-1.7554,-1.8036,-1.8423,-1.8674,-1.864,-1.883,-1.9393,-1.9379,-1.9657,-2.03,-2.0682,-2.0912,-2.1068,-2.1211,-2.1333,-2.1375,-2.155,-2.155,-2.1375,-2.1638,-2.174,-2.174,-2.174,-2.1848,-2.2025,-2.1828,-2.174,-2.174,-2.1638,-2.153,-2.1389,-2.155,-2.153,-2.1441,-2.1496,-2.1496,-2.1375,-2.1375,-2.1375,-2.1375,-2.1375,-2.1375,-2.1375,-2.1375,-2.1375,-2.1375,-2.1375,-2.1375,-2.1375,-2.1375,-2.1267,-2.1177,-2.1034,-2.0878,-2.0736,-2.051,-2.0476,-2.0476,-2.0476,-2.0476,-2.0476,-2.0476,-2.0564,-2.0702,-2.0702,-2.079,-2.0824,-2.077,-2.0824,-2.0804,-2.0702,-2.0648,-2.0594,-2.0539,-2.0672,-2.0892,-2.1001,-2.1279,-2.1375,-2.1375,-2.1299,-2.1197,-2.1143,-2.1001,-2.0933,-2.0933,-2.0933,-2.0946,-2.1001,-2.0892,-2.0878,-1.9217,-1.94,-1.9562,-1.885,-1.862,-1.8355,-1.7541,-1.767,-1.7717,-1.7068,-1.7575,-1.7982,-1.7602,-1.7514,-1.7487,-1.7439,0.0,-1.7175,0.0,-1.708,-1.7202,-1.7548,-1.786,-1.8111,-1.8375,-1.8423,-1.864,-1.9094,-1.9169,-1.9481,-2.0139,-2.0451,-2.0702,-2.0912,-2.1109,-2.1231,-2.1279,-2.1441,-2.1462,-2.1301,-2.155,-2.1652,-2.1672,-2.1706,-2.1774,-2.1882,-2.1828,-2.1781,-2.174,-2.1692,-2.1618,-2.153,-2.1564,-2.153,-2.1441,-2.1496,-2.1496,-2.1375,-2.1375,-2.1375,-2.1375,-2.1375,-2.1375,-2.1375,-2.1375,-2.1375,-2.1375,-2.1375,-2.1375,-2.1375,-2.1375,-2.1285,-2.1109,-2.1021,-2.0845,-2.0668,-2.056,-2.0476,-2.0476,-2.0476,-2.0476,-2.0476,-2.0476,-2.0476,-2.0476,-2.0476,-2.0627,-2.0668,-2.0627,-2.0668,-2.0668,-2.0627,-2.051,-2.0476,-2.0476,-2.0824,-2.1001,-2.1001,-2.1279,-2.1375,-2.1375,-2.1353,-2.1265,-2.1211,-2.1123,-2.1068,-2.1068,-2.1068,-2.1068,-2.1068,-2.098,-2.0946]},{"header":{"parameterUnit":"m.s-1","parameterCategory":1,"la1":30.6,"la2":29.2853,"lo1":-89.7004,"lo2":-87.6739,"dy":0.0162,"dx":0.0183,"nx":112,"ny":82,"refTime":"2024-06-19T06:00:00:Z","depth":0,"parameterNumber":3,"parameterNumberName":"V-component_of_WINDS"},"data":[0.0,0.0,0.0,0.0,0.0,0.0,0.0,0.0,0.0,0.0,0.0,0.0,0.0,0.0,0.0,0.0,0.0,0.0,0.0,0.0,0.0,0.0,0.0,0.0,0.0,0.0,0.0,0.0,0.0,0.0,0.0,0.0,0.0,0.0,0.0,0.0,0.0,0.0,0.0,0.0,0.0,0.0,0.0,0.0,0.0,0.0,0.0,0.0,0.0,0.0,0.0,0.0,0.0,0.0,0.0,0.0,0.0,0.0,0.0,0.0,0.0,0.0,0.0,0.0,0.0,0.0,0.0,0.0,0.0,0.0,0.0,0.0,0.0,0.0,0.0,0.0,0.0,0.0,0.0,0.0,0.0,0.0,0.0,0.0,0.0,0.0,0.0,0.0,0.0,0.0,7.7968,8.2656,8.532,8.6415,8.5558,8.3964,8.0238,7.3709,0.0,0.0,0.0,0.0,0.0,0.0,0.0,0.0,0.0,0.0,0.0,0.0,0.0,0.0,0.0,0.0,0.0,0.0,0.0,0.0,0.0,0.0,0.0,0.0,0.0,0.0,0.0,0.0,0.0,0.0,0.0,0.0,0.0,0.0,0.0,0.0,0.0,0.0,0.0,0.0,0.0,0.0,0.0,0.0,0.0,0.0,0.0,0.0,0.0,0.0,0.0,0.0,0.0,0.0,0.0,0.0,0.0,0.0,0.0,0.0,0.0,0.0,0.0,0.0,0.0,0.0,0.0,0.0,0.0,0.0,0.0,0.0,0.0,0.0,0.0,0.0,0.0,0.0,0.0,0.0,0.0,0.0,0.0,0.0,0.0,0.0,0.0,0.0,0.0,0.0,0.0,0.0,0.0,0.0,0.0,0.0,0.0,0.0,0.0,0.0,0.0,0.0,0.0,0.0,7.9625,8.6165,8.7474,8.7585,8.688,8.4454,8.0839,7.5733,0.0,0.0,0.0,0.0,0.0,0.0,0.0,0.0,0.0,0.0,0.0,0.0,0.0,0.0,0.0,0.0,0.0,0.0,0.0,0.0,0.0,0.0,0.0,0.0,0.0,0.0,0.0,0.0,0.0,0.0,0.0,0.0,0.0,0.0,0.0,0.0,0.0,0.0,0.0,0.0,0.0,0.0,0.0,0.0,0.0,0.0,0.0,0.0,0.0,0.0,0.0,0.0,0.0,0.0,0.0,0.0,0.0,0.0,0.0,0.0,0.0,0.0,0.0,0.0,0.0,0.0,0.0,0.0,0.0,0.0,0.0,0.0,0.0,0.0,0.0,0.0,0.0,0.0,0.0,0.0,0.0,0.0,0.0,0.0,0.0,0.0,0.0,0.0,0.0,0.0,0.0,0.0,0.0,0.0,0.0,0.0,0.0,0.0,0.0,0.0,0.0,0.0,0.0,7.9736,8.3011,8.866,8.9088,8.8443,8.7213,8.5202,8.149,7.5586,7.3117,0.0,0.0,0.0,0.0,0.0,0.0,0.0,0.0,0.0,0.0,0.0,0.0,0.0,0.0,0.0,0.0,0.0,0.0,0.0,0.0,0.0,0.0,0.0,0.0,0.0,0.0,0.0,0.0,0.0,0.0,0.0,0.0,0.0,0.0,0.0,0.0,0.0,0.0,0.0,0.0,0.0,0.0,0.0,0.0,0.0,0.0,0.0,0.0,0.0,0.0,0.0,0.0,0.0,0.0,0.0,0.0,0.0,0.0,0.0,0.0,0.0,0.0,0.0,0.0,0.0,0.0,0.0,0.0,0.0,0.0,0.0,0.0,0.0,0.0,0.0,0.0,0.0,0.0,0.0,0.0,0.0,0.0,0.0,0.0,0.0,0.0,0.0,0.0,0.0,0.0,0.0,0.0,0.0,0.0,0.0,0.0,0.0,0.0,0.0,0.0,0.0,0.0,8.4359,8.65,9.0544,9.0235,8.9166,8.7603,8.5148,8.1094,7.4961,7.2226,0.0,0.0,0.0,0.0,0.0,0.0,0.0,0.0,0.0,0.0,0.0,0.0,0.0,0.0,0.0,0.0,0.0,0.0,0.0,0.0,0.0,0.0,0.0,0.0,0.0,0.0,0.0,0.0,0.0,0.0,0.0,0.0,0.0,0.0,0.0,0.0,0.0,0.0,0.0,0.0,0.0,0.0,0.0,0.0,0.0,0.0,0.0,0.0,0.0,0.0,0.0,0.0,0.0,0.0,0.0,0.0,0.0,0.0,0.0,0.0,0.0,0.0,0.0,0.0,0.0,0.0,0.0,0.0,0.0,0.0,0.0,0.0,0.0,0.0,0.0,0.0,0.0,0.0,0.0,0.0,0.0,0.0,0.0,0.0,0.0,0.0,0.0,0.0,0.0,0.0,0.0,0.0,0.0,0.0,0.0,0.0,0.0,0.0,0.0,0.0,0.0,0.0,8.5372,8.9123,9.1815,9.0801,8.9609,8.8671,8.3359,7.8515,7.4844,6.9961,0.0,0.0,0.0,0.0,0.0,0.0,0.0,0.0,0.0,0.0,0.0,0.0,0.0,0.0,0.0,0.0,0.0,0.0,0.0,0.0,0.0,0.0,0.0,0.0,0.0,0.0,0.0,0.0,0.0,0.0,0.0,0.0,0.0,0.0,0.0,0.0,0.0,0.0,0.0,0.0,0.0,0.0,0.0,0.0,0.0,0.0,0.0,0.0,0.0,0.0,0.0,0.0,0.0,0.0,0.0,0.0,0.0,0.0,0.0,0.0,0.0,0.0,0.0,0.0,0.0,0.0,0.0,0.0,0.0,0.0,0.0,0.0,0.0,0.0,0.0,0.0,0.0,0.0,0.0,0.0,0.0,0.0,0.0,0.0,0.0,0.0,0.0,0.0,0.0,0.0,0.0,0.0,0.0,0.0,0.0,0.0,0.0,0.0,0.0,0.0,0.0,0.0,8.5629,8.9096,9.2876,9.2263,9.082,8.8867,8.5664,8.1133,7.5,0.0,0.0,0.0,0.0,0.0,0.0,0.0,0.0,0.0,0.0,0.0,0.0,0.0,0.0,0.0,0.0,0.0,0.0,0.0,0.0,0.0,0.0,0.0,0.0,0.0,0.0,0.0,0.0,0.0,0.0,0.0,0.0,0.0,0.0,0.0,0.0,0.0,0.0,0.0,0.0,0.0,0.0,0.0,0.0,0.0,0.0,0.0,0.0,0.0,0.0,0.0,0.0,0.0,0.0,0.0,0.0,0.0,0.0,0.0,0.0,0.0,0.0,0.0,0.0,0.0,0.0,0.0,0.0,0.0,0.0,0.0,0.0,0.0,0.0,0.0,0.0,0.0,0.0,0.0,0.0,0.0,0.0,0.0,0.0,0.0,0.0,0.0,0.0,0.0,0.0,0.0,0.0,0.0,0.0,0.0,0.0,0.0,0.0,0.0,0.0,0.0,0.0,8.3118,8.6859,9.0181,9.3554,9.3125,9.1523,8.8906,8.6133,8.1562,7.4648,0.0,0.0,0.0,0.0,0.0,0.0,0.0,0.0,0.0,0.0,0.0,0.0,0.0,0.0,0.0,0.0,0.0,0.0,0.0,0.0,0.0,0.0,0.0,0.0,0.0,0.0,0.0,0.0,0.0,0.0,0.0,0.0,0.0,0.0,0.0,0.0,0.0,0.0,0.0,0.0,0.0,0.0,0.0,0.0,0.0,0.0,0.0,0.0,0.0,0.0,0.0,0.0,0.0,0.0,0.0,0.0,0.0,0.0,0.0,0.0,0.0,0.0,0.0,0.0,0.0,0.0,0.0,0.0,0.0,0.0,0.0,0.0,0.0,0.0,0.0,0.0,0.0,0.0,0.0,0.0,0.0,0.0,0.0,0.0,0.0,0.0,0.0,0.0,0.0,0.0,0.0,0.0,0.0,0.0,0.0,0.0,0.0,0.0,0.0,0.0,0.0,0.0,8.4094,8.9288,9.2969,9.3828,9.3164,9.1562,8.8945,8.4023,7.8867,0.0,0.0,0.0,0.0,0.0,0.0,0.0,0.0,0.0,0.0,0.0,0.0,0.0,0.0,0.0,0.0,0.0,0.0,0.0,0.0,0.0,0.0,0.0,0.0,0.0,0.0,0.0,0.0,0.0,0.0,0.0,0.0,0.0,0.0,0.0,0.0,0.0,0.0,0.0,0.0,0.0,0.0,0.0,0.0,0.0,0.0,0.0,0.0,0.0,0.0,0.0,0.0,0.0,0.0,0.0,0.0,0.0,0.0,0.0,0.0,0.0,0.0,0.0,0.0,0.0,0.0,0.0,0.0,0.0,0.0,0.0,0.0,0.0,0.0,0.0,0.0,0.0,0.0,0.0,0.0,0.0,0.0,0.0,0.0,0.0,0.0,0.0,0.0,0.0,0.0,0.0,0.0,0.0,0.0,0.0,0.0,0.0,0.0,0.0,0.0,0.0,0.0,0.0,8.5113,9.0272,9.4101,9.5586,9.4961,9.3359,9.0742,8.75,8.2344,7.4687,0.0,0.0,0.0,0.0,0.0,0.0,0.0,0.0,0.0,0.0,0.0,0.0,0.0,0.0,0.0,0.0,0.0,0.0,0.0,0.0,0.0,0.0,0.0,0.0,0.0,0.0,0.0,0.0,0.0,0.0,0.0,0.0,0.0,0.0,0.0,0.0,0.0,0.0,0.0,0.0,0.0,0.0,0.0,0.0,0.0,0.0,0.0,0.0,0.0,0.0,0.0,0.0,0.0,0.0,0.0,0.0,0.0,0.0,0.0,0.0,0.0,0.0,0.0,0.0,0.0,0.0,0.0,0.0,0.0,0.0,0.0,0.0,0.0,0.0,0.0,0.0,0.0,0.0,0.0,0.0,0.0,0.0,0.0,0.0,0.0,0.0,0.0,0.0,0.0,0.0,0.0,0.0,0.0,0.0,0.0,0.0,0.0,0.0,0.0,0.0,0.0,0.0,8.6054,9.1211,9.4961,9.6367,9.6015,9.4648,9.2031,8.9453,8.4609,7.664,0.0,0.0,0.0,0.0,0.0,0.0,0.0,0.0,0.0,0.0,0.0,0.0,0.0,0.0,0.0,0.0,0.0,0.0,0.0,0.0,0.0,0.0,0.0,0.0,0.0,0.0,0.0,0.0,0.0,0.0,0.0,0.0,0.0,0.0,0.0,0.0,0.0,0.0,0.0,0.0,0.0,0.0,0.0,0.0,0.0,0.0,0.0,0.0,0.0,0.0,0.0,0.0,0.0,0.0,0.0,0.0,0.0,0.0,0.0,0.0,0.0,0.0,0.0,0.0,0.0,0.0,0.0,0.0,0.0,0.0,0.0,0.0,0.0,0.0,0.0,0.0,0.0,0.0,0.0,0.0,0.0,0.0,0.0,0.0,0.0,0.0,0.0,0.0,0.0,0.0,0.0,0.0,0.0,0.0,0.0,0.0,0.0,0.0,0.0,0.0,0.0,0.0,8.6953,9.2031,9.5547,9.6523,9.6523,9.5508,9.3047,9.0429,8.6054,7.9297,0.0,0.0,0.0,0.0,0.0,0.0,0.0,0.0,0.0,0.0,0.0,0.0,0.0,0.0,0.0,0.0,0.0,0.0,0.0,0.0,0.0,0.0,0.0,0.0,0.0,0.0,0.0,0.0,0.0,0.0,0.0,0.0,0.0,0.0,0.0,0.0,0.0,0.0,0.0,0.0,0.0,0.0,0.0,0.0,0.0,0.0,0.0,0.0,0.0,0.0,0.0,0.0,0.0,0.0,0.0,0.0,0.0,0.0,0.0,0.0,8.1362,7.9358,0.0,0.0,0.0,0.0,0.0,0.0,0.0,0.0,0.0,0.0,0.0,0.0,0.0,0.0,0.0,0.0,0.0,0.0,0.0,0.0,0.0,0.0,0.0,0.0,0.0,0.0,0.0,0.0,0.0,0.0,0.0,0.0,0.0,0.0,0.0,0.0,0.0,0.0,0.0,0.0,8.7851,9.2383,9.5781,9.7265,9.6875,9.6015,9.4765,9.2265,8.8086,8.1875,7.875,0.0,0.0,0.0,0.0,0.0,0.0,0.0,0.0,0.0,0.0,0.0,0.0,0.0,0.0,0.0,0.0,0.0,0.0,0.0,0.0,0.0,0.0,0.0,0.0,0.0,0.0,0.0,0.0,0.0,0.0,0.0,0.0,0.0,0.0,0.0,0.0,0.0,0.0,0.0,0.0,0.0,0.0,0.0,0.0,0.0,0.0,0.0,0.0,0.0,0.0,0.0,0.0,0.0,0.0,0.0,0.0,0.0,0.0,0.0,8.8162,8.5162,0.0,0.0,0.0,0.0,0.0,0.0,0.0,0.0,0.0,0.0,0.0,0.0,0.0,0.0,0.0,0.0,0.0,0.0,0.0,0.0,0.0,0.0,0.0,0.0,0.0,0.0,0.0,0.0,0.0,0.0,0.0,0.0,0.0,0.0,0.0,0.0,0.0,0.0,0.0,0.0,8.8203,9.2851,9.6328,9.7578,9.7344,9.6758,9.5898,9.3828,9.0508,8.5664,8.1797,0.0,0.0,0.0,0.0,0.0,0.0,0.0,0.0,0.0,0.0,0.0,0.0,0.0,0.0,0.0,0.0,0.0,0.0,0.0,0.0,0.0,0.0,0.0,0.0,0.0,0.0,0.0,0.0,0.0,0.0,0.0,0.0,0.0,0.0,0.0,0.0,0.0,0.0,0.0,0.0,0.0,0.0,0.0,0.0,0.0,0.0,0.0,0.0,0.0,0.0,0.0,0.0,0.0,9.9173,10.0106,10.2587,9.9977,10.0609,10.3505,9.6423,9.3057,9.2305,8.8597,0.0,0.0,0.0,0.0,0.0,0.0,0.0,0.0,0.0,0.0,0.0,0.0,0.0,0.0,0.0,0.0,0.0,0.0,0.0,0.0,0.0,0.0,8.9179,9.1289,9.288,9.1899,8.4488,0.0,0.0,0.0,0.0,0.0,0.0,0.0,0.0,0.0,0.0,0.0,8.8945,9.3554,9.6797,9.7617,9.7695,9.7422,9.6758,9.5273,9.3008,8.9804,8.5195,8.1367,0.0,0.0,0.0,0.0,0.0,0.0,0.0,0.0,0.0,0.0,0.0,0.0,0.0,0.0,0.0,0.0,0.0,0.0,0.0,0.0,0.0,0.0,0.0,0.0,0.0,0.0,0.0,0.0,0.0,0.0,0.0,0.0,8.8385,8.8672,0.0,0.0,0.0,0.0,0.0,0.0,0.0,0.0,0.0,0.0,0.0,0.0,0.0,10.0998,10.2491,10.4097,10.5097,10.5395,10.7405,10.8396,10.8314,10.8585,10.8796,10.8788,10.771,0.0,9.7944,9.5426,0.0,0.0,0.0,0.0,0.0,0.0,0.0,0.0,0.0,0.0,0.0,0.0,0.0,0.0,0.0,0.0,0.0,0.0,0.0,0.0,0.0,0.0,9.8515,9.8867,9.9687,9.9842,9.7927,9.1494,8.5955,8.5467,8.3094,8.076,0.0,0.0,0.0,0.0,0.0,0.0,9.164,9.4687,9.6797,9.7617,9.7695,9.7656,9.7539,9.6679,9.5312,9.3359,9.0469,8.7344,8.4023,8.0429,0.0,0.0,0.0,0.0,0.0,0.0,0.0,0.0,0.0,0.0,0.0,0.0,0.0,0.0,0.0,0.0,0.0,0.0,0.0,0.0,0.0,0.0,0.0,0.0,0.0,0.0,0.0,0.0,0.0,8.9614,9.1948,9.1318,9.2571,9.2765,0.0,0.0,0.0,0.0,0.0,0.0,0.0,0.0,0.0,10.5098,10.6516,10.802,10.9598,11.0791,11.1906,11.278,11.3907,11.4613,11.481,11.4694,11.4904,11.5216,11.3889,11.169,10.8511,10.2681,9.8812,9.6293,0.0,0.0,0.0,0.0,9.1336,9.081,9.3655,9.4407,9.3939,9.2715,0.0,0.0,0.0,0.0,0.0,0.0,0.0,9.0976,9.4531,9.7851,10.0781,10.2812,10.4219,10.5117,10.4687,10.0809,9.6208,9.2338,9.0347,8.7964,8.366,8.3529,0.0,0.0,0.0,9.1797,9.3828,9.6758,9.8594,9.8437,9.8437,9.8242,9.7734,9.7383,9.664,9.5429,9.3359,9.1289,8.9297,8.5469,8.1797,0.0,0.0,0.0,0.0,0.0,0.0,0.0,0.0,0.0,0.0,0.0,0.0,0.0,0.0,0.0,0.0,0.0,0.0,0.0,0.0,0.0,0.0,0.0,0.0,0.0,0.0,0.0,0.0,9.3687,9.5855,9.4576,9.7404,9.8211,0.0,0.0,0.0,0.0,0.0,0.0,10.7513,10.8616,10.9976,11.1802,11.3291,11.4791,11.6292,11.6907,11.7909,11.9178,11.8986,11.9296,12.0099,11.9403,11.9585,12.0393,11.8501,11.7491,11.6812,10.9012,10.4314,10.1902,9.8821,9.6952,9.6064,9.6674,9.6621,9.6669,9.9444,10.0488,10.0288,9.8609,9.6924,9.4844,9.1211,0.0,0.0,0.0,0.0,9.414,9.8047,10.0508,10.2617,10.5508,10.7383,10.8711,10.8711,10.7695,10.5,9.8711,9.6797,9.4335,8.8473,8.8397,0.0,8.6441,9.0975,9.4961,9.6015,9.8594,10.0117,9.9414,9.914,9.875,9.8086,9.7812,9.7422,9.6836,9.539,9.4179,9.3281,8.9765,8.6523,8.3672,0.0,0.0,0.0,0.0,0.0,0.0,0.0,0.0,0.0,0.0,0.0,0.0,0.0,0.0,0.0,0.0,0.0,0.0,0.0,0.0,0.0,0.0,0.0,0.0,0.0,0.0,0.0,0.0,0.0,9.9088,10.3212,0.0,0.0,0.0,0.0,10.6216,10.8482,11.0892,11.3401,11.5094,11.721,11.96,12.06,12.1485,12.2396,12.2524,12.2702,12.2983,12.2209,12.2206,12.2788,12.2788,12.2903,12.32,12.2303,12.1015,11.8983,11.3298,11.0004,10.8195,10.5299,10.3587,10.2811,10.2589,10.2515,10.2485,10.2685,10.3018,10.3189,10.34,10.1882,9.9648,9.7734,9.6094,0.0,0.0,9.7344,9.9219,10.1914,10.4492,10.6601,10.7617,10.9218,11.0508,11.0508,11.039,10.8984,10.4609,10.1094,9.7888,9.4913,0.0,9.3473,9.3153,9.495,9.6953,9.8594,9.9687,10.0312,10.0195,9.9492,9.8984,9.8945,9.8164,9.7695,9.7656,9.6836,9.5976,9.5117,9.3281,9.0703,8.7304,8.4648,0.0,0.0,0.0,0.0,0.0,0.0,0.0,0.0,0.0,0.0,0.0,0.0,0.0,0.0,0.0,0.0,0.0,0.0,0.0,0.0,0.0,0.0,0.0,0.0,0.0,0.0,0.0,0.0,10.4884,10.8406,0.0,10.6216,10.8595,11.091,11.2098,11.5005,11.76,11.96,12.1293,12.2601,12.3601,12.4409,12.5119,12.5696,12.5696,12.5488,12.5304,12.5582,12.5518,12.5207,12.5791,12.591,12.5615,12.4795,12.3497,12.1913,11.9016,11.5596,11.198,11.0192,10.8594,10.7108,10.7084,10.6594,10.6079,10.7079,10.7116,10.6488,10.5297,10.4293,10.3281,10.1601,10.0586,10.0312,10.1211,10.1914,10.289,10.5508,10.7304,10.8711,11.0195,11.1406,11.2304,11.2304,11.1797,11.0703,10.8008,10.5586,10.2812,9.9017,9.8631,9.8437,9.7258,9.91,10.1015,10.2187,10.2617,10.2617,10.1992,10.1211,10.0195,9.9101,9.8711,9.8086,9.6992,9.664,9.6094,9.5234,9.4062,9.207,8.9179,8.6562,8.3008,0.0,0.0,0.0,0.0,0.0,0.0,0.0,0.0,0.0,0.0,0.0,0.0,0.0,0.0,0.0,0.0,0.0,0.0,0.0,0.0,0.0,0.0,0.0,0.0,0.0,10.6183,10.9501,10.9989,11.3786,11.5291,11.2593,11.5116,11.7288,11.8584,12.0985,12.3079,12.468,12.6118,12.6899,12.6982,12.7881,12.8396,12.8605,12.8682,12.8498,12.8314,12.8592,12.8483,12.8008,12.8593,12.8696,12.8309,12.7097,12.5918,12.4608,12.269,11.9585,11.5993,11.4389,11.2592,11.0987,11.101,11.0588,11.0217,11.0616,11.0217,10.9183,10.7407,10.6797,10.6484,10.4687,10.4219,10.4219,10.4609,10.5,10.5898,10.7617,10.9297,11.0781,11.1718,11.2812,11.3593,11.3281,11.2695,11.1914,11.0508,10.8789,10.6289,10.2304,10.2617,10.2695,10.1015,10.25,10.3984,10.4609,10.4609,10.4414,10.3789,10.3008,10.1914,10.039,9.9765,9.8828,9.7422,9.6797,9.625,9.5664,9.4531,9.2969,9.0937,8.8086,8.5234,8.2304,0.0,0.0,0.0,0.0,0.0,0.0,0.0,0.0,0.0,0.0,0.0,0.0,0.0,0.0,0.0,0.0,0.0,0.0,0.0,0.0,0.0,0.0,0.0,10.6812,11.1297,11.4393,11.4307,11.9408,12.2024,11.96,12.2305,12.4598,12.5406,12.6392,12.7401,12.8402,12.9312,12.9985,13.0289,13.1113,13.1502,13.1592,13.1592,13.1699,13.199,13.1212,13.1008,13.1211,13.1289,13.1289,13.1093,12.9492,12.8203,12.7109,12.428,12.2079,12.0196,11.76,11.5717,11.4513,11.4513,11.462,11.4708,11.3201,11.2203,11.1293,10.9917,10.9414,10.9101,10.7304,10.6797,10.6719,10.5781,10.6797,10.8086,10.8086,11.0703,11.3008,11.2187,11.3281,11.4297,11.3398,11.3203,11.289,11.2109,11.0586,10.8398,10.5,10.5703,10.6211,10.4609,10.5,0.0,10.5586,10.5586,10.5586,10.5586,10.4804,10.3906,10.3008,10.1289,9.9961,9.9062,9.7383,9.6445,9.6445,9.4844,9.3554,9.2695,8.9375,8.7656,8.7617,0.0,0.0,0.0,0.0,0.0,0.0,0.0,0.0,0.0,0.0,0.0,0.0,0.0,0.0,0.0,0.0,0.0,0.0,0.0,0.0,0.0,10.9511,11.2318,11.1201,11.4407,11.7782,12.0189,12.2985,12.4716,12.4601,12.6215,12.7293,12.7612,12.9815,13.1013,13.0688,13.2017,13.2603,13.1995,13.219,13.2498,13.2685,13.2689,13.2584,13.2412,13.2803,13.2691,13.2187,13.2812,13.2695,13.2109,13.1601,13.0195,12.8085,12.6503,12.4382,12.2017,11.9218,11.7121,11.569,11.569,11.5492,11.4995,11.3982,11.3702,11.3392,11.1718,11.1211,11.0898,10.9101,10.8984,10.9297,10.8515,10.9492,11.0781,11.0781,11.25,11.4101,11.3789,11.4218,11.4414,11.4218,11.3593,11.289,11.2109,11.1992,11.1406,10.9218,10.8203,10.7695,10.789,10.6992,10.6797,10.8086,10.7695,10.7304,10.7304,10.6484,10.539,10.3984,10.2187,10.0586,9.9101,9.6836,9.5547,9.5547,9.5117,9.4726,9.4492,9.2304,9.0898,0.0,0.0,0.0,0.0,0.0,0.0,0.0,0.0,0.0,0.0,0.0,0.0,0.0,0.0,0.0,0.0,0.0,0.0,0.0,0.0,0.0,0.0,11.4497,11.7517,11.7886,11.991,12.2417,12.5107,12.6887,12.828,12.9093,12.9815,13.0391,13.071,13.2285,13.3314,13.3278,13.4179,13.4617,13.4202,13.3893,13.3788,13.3981,13.3981,13.3613,13.3086,13.3906,13.3906,13.3086,13.3593,13.3515,13.3008,13.2695,13.1406,12.9609,12.8183,12.6095,12.3507,0.0,0.0,0.0,0.0,11.7216,11.641,11.559,11.5419,11.5195,11.3086,11.2383,11.2109,11.039,11.0195,11.0508,11.0,11.1093,11.2383,11.2383,11.3984,11.5508,11.5117,11.5312,11.539,11.5117,11.4609,11.4101,11.3593,11.3593,0.0,11.2383,11.0508,10.9101,10.9297,10.8086,10.7617,10.8593,10.8593,10.8515,10.8515,10.8398,10.7617,10.5898,10.4219,0.0,0.0,0.0,9.6484,9.5781,9.5742,0.0,0.0,0.0,0.0,0.0,9.5655,0.0,0.0,9.3618,9.3992,0.0,0.0,0.0,0.0,0.0,0.0,0.0,0.0,0.0,0.0,0.0,0.0,0.0,0.0,0.0,0.0,11.8814,12.2203,12.5114,12.6409,12.7585,12.8901,13.0484,13.1885,13.2813,13.2889,13.3302,13.4087,13.4311,13.4793,13.5793,13.5919,0.0,0.0,0.0,13.5117,13.5117,13.5,13.4687,13.4101,13.4609,13.4492,13.3906,13.3789,13.3789,13.3789,13.3008,13.2187,13.1211,12.9492,12.7187,12.4608,12.2189,12.0911,12.0397,11.9799,11.9101,11.8281,11.7383,0.0,0.0,11.4414,11.3593,11.3203,11.1406,11.1015,11.1015,11.0898,11.2109,11.3398,11.3515,11.5195,11.6797,11.6093,11.6484,11.6797,11.6015,11.5781,11.5703,11.5703,11.5117,11.4492,11.4492,11.2304,11.0312,10.9609,10.8593,10.8008,10.8086,10.8906,10.9414,10.9297,11.0195,0.0,10.8281,10.6601,10.5,10.3398,10.0898,9.8789,9.7265,9.7304,9.7695,9.8437,9.8946,10.0117,10.1914,10.2286,10.2581,10.2782,9.8144,9.7585,0.0,0.0,0.0,0.0,0.0,0.0,0.0,0.0,0.0,0.0,0.0,0.0,0.0,0.0,0.0,11.8395,12.2808,12.64,12.768,12.9905,13.0982,13.0088,13.0918,13.208,13.3597,13.4009,13.451,13.5407,13.6386,13.6705,13.6205,13.6909,13.699,13.6289,13.6093,13.6015,13.6015,13.539,13.5312,13.5781,13.4609,0.0,13.4687,13.4101,13.3789,13.3789,13.3593,13.3086,13.2109,13.039,12.7695,12.4492,12.1982,12.0888,12.0699,11.9882,11.9492,11.9218,11.8398,11.7617,11.6914,11.6406,11.5781,11.4883,11.3203,11.3203,0.0,11.289,11.3398,11.4414,11.5117,11.6093,11.6992,11.6797,11.6914,11.6992,11.6797,11.6211,11.5781,11.5703,11.5117,11.4492,11.4492,11.2304,11.0508,11.039,10.8984,10.8281,10.8984,10.9804,11.0117,10.9414,11.0703,11.0898,10.9218,10.75,10.6289,10.6015,10.3594,10.1992,10.1719,10.2304,10.2812,10.289,10.3084,10.3318,10.3711,10.4186,10.482,10.5511,10.361,10.3087,0.0,0.0,0.0,0.0,0.0,0.0,0.0,0.0,0.0,0.0,0.0,11.1289,11.3398,0.0,12.1093,12.3711,12.6601,12.9101,13.039,13.1718,13.2414,13.201,13.2692,13.3785,13.4991,13.529,13.5906,13.7312,13.7886,13.8281,13.8281,13.8711,13.8515,13.7617,13.7187,13.6992,13.6992,13.6484,13.6289,13.6289,13.5508,13.5,13.5,13.4218,13.3789,13.3789,13.3789,13.3281,13.2304,12.9687,12.7304,12.5195,12.3515,12.2304,12.1484,12.1093,12.0586,12.0117,11.9297,11.8711,11.8203,11.7304,11.6718,11.6093,11.4883,11.4804,11.5117,11.4609,11.5117,11.5898,11.6289,11.6992,11.7695,11.7695,11.7695,11.7695,11.7695,11.7304,11.6992,11.6992,11.6289,11.5586,11.5195,11.3711,11.2304,11.1406,11.0117,10.9492,10.9883,11.0703,11.1093,11.0586,11.1406,11.1406,11.0117,10.8398,10.7383,10.7383,10.6211,10.5508,10.5508,10.5898,10.6093,10.6093,10.6394,10.6614,10.6612,10.702,10.7615,10.8416,10.8186,10.7408,0.0,0.0,0.0,0.0,0.0,0.0,0.0,10.5195,10.75,11.1289,11.3984,11.6718,12.0195,12.3008,12.5586,12.8398,12.9687,13.0898,13.2304,13.2617,13.3086,13.4218,13.4687,13.5312,13.6211,13.6484,13.7187,13.8789,13.9101,13.9492,14.0195,14.0195,13.9882,13.9218,13.8281,13.789,13.789,13.7695,13.7304,13.6797,13.6484,13.5898,13.5195,13.4414,13.3906,13.3789,13.3593,13.3086,13.1992,12.8906,12.6914,12.5898,12.5117,12.3789,12.25,12.25,12.1797,12.0781,11.9883,11.9492,11.9101,11.7695,11.7304,11.7109,11.6289,11.6015,11.6015,11.6015,11.6289,11.6797,11.7187,11.7617,11.8086,11.8281,11.8281,11.8281,11.8281,11.8281,11.8281,11.8281,11.7617,11.6797,11.6093,11.5312,11.4101,11.2187,11.1289,11.0781,11.0586,11.1406,11.1797,11.1718,11.1797,11.1484,11.0703,10.9492,10.8711,10.8515,10.8515,10.8515,10.8515,10.8515,10.8515,10.8515,10.8995,10.9217,10.9187,10.9715,11.0298,11.0886,11.1605,11.0891,9.1719,9.3945,9.7226,10.1992,10.289,10.5,0.0,11.5312,11.5781,12.0898,12.3281,12.4687,12.5195,12.7383,12.9297,12.9687,13.1093,13.2304,13.25,13.3203,13.4218,13.5781,13.539,13.5312,13.6211,13.6992,13.789,13.8789,13.9609,14.0117,14.0195,14.0195,14.0195,14.0117,13.9218,13.8789,13.8789,13.8007,13.789,13.8593,13.6992,13.6211,13.6093,13.5312,13.4492,13.3789,13.3008,13.2187,13.1211,12.9297,12.75,12.5898,12.5117,12.4218,12.3398,12.3398,12.2304,12.0781,11.9883,11.9101,11.8398,11.8203,11.8203,11.8008,11.7109,11.6914,11.6914,11.6914,11.6406,11.6211,11.7812,11.7695,11.7304,11.8086,11.8281,11.8281,11.8281,11.8281,11.8281,11.8281,11.7617,11.6992,11.6914,11.6211,11.4804,11.2304,11.1797,11.1484,11.0703,11.1406,11.1601,11.0781,11.1406,11.1484,11.0703,11.1093,11.1093,11.039,11.0312,11.0312,11.0312,11.0312,11.0312,11.0312,11.039,11.0294,11.0085,11.1306,11.1896,11.1807,11.3109,11.3208,9.707,9.9765,10.2383,10.5,10.8086,11.1718,11.6484,11.7812,11.9414,12.4609,12.6289,12.7383,12.9414,13.0703,13.1718,13.2695,13.3086,13.3398,13.3906,13.3906,13.3906,13.4101,13.4609,13.5703,13.7617,13.8086,13.8711,13.9609,14.0,14.0195,14.0195,14.0703,14.0703,14.0195,13.9804,13.9687,13.9687,13.8789,13.8515,13.8906,13.7617,13.7109,13.6992,13.5586,13.4609,13.3789,13.3398,13.25,13.1093,12.9883,12.8281,12.6718,12.5781,12.5,12.4218,12.3711,12.3008,12.2187,12.0781,12.0117,11.9609,11.8593,11.8281,11.8203,11.789,11.7812,11.7812,11.7812,11.75,11.7383,11.8086,11.8008,11.7812,11.8203,11.8281,11.8281,11.8281,11.8281,11.8281,11.8281,11.8008,11.7617,11.7109,11.7109,11.6601,11.4492,11.3711,11.3281,11.289,11.2695,11.2304,11.1406,11.1718,11.1797,11.1406,11.1718,11.1992,11.2109,11.2109,11.2304,11.2812,11.2383,11.2617,11.3593,11.3086,11.2996,11.3215,11.3602,11.3884,11.4107,11.4594,11.4791,10.1015,10.3906,10.6289,10.8281,11.2695,11.6992,11.8711,12.0508,12.3008,12.75,12.8593,12.9609,13.2304,13.289,13.3281,13.4492,13.4414,13.4297,13.4609,13.4218,13.3593,13.3203,13.4101,13.5586,13.8007,13.8593,13.9297,14.0117,14.0586,14.0898,14.0898,14.1484,14.1601,14.0898,14.0703,14.039,14.0195,13.9609,13.9101,13.8906,13.8281,13.7695,13.7187,13.5508,13.4414,13.3789,13.3515,13.2695,13.1484,13.039,12.8984,12.75,12.6406,12.5508,12.4687,12.3789,12.3281,12.289,12.1406,12.0703,12.0312,11.8789,11.8281,11.8281,11.8281,11.8281,11.8281,11.8281,11.8281,11.8281,11.8281,11.8281,11.8281,11.8281,11.8281,11.8281,11.8281,11.8281,11.8281,11.8281,11.8281,11.8086,11.75,11.789,11.789,11.6718,11.5703,11.5117,11.4883,11.4297,11.3515,11.2383,11.25,11.25,11.2304,11.2304,11.2695,11.3789,11.3711,11.3906,11.4804,11.4218,11.4492,11.5703,11.5195,11.4903,11.5219,11.5205,11.5399,11.5597,11.5612,11.5907,10.2617,10.4687,10.789,11.3008,11.6289,11.9297,12.3593,12.5898,12.7812,13.0508,13.1797,13.2617,13.3593,13.3789,13.3789,13.3789,13.4492,13.4687,13.3906,13.3789,13.4101,13.4804,13.4297,13.4492,13.6211,13.789,13.9297,14.0117,14.1797,14.2695,14.2695,14.2695,14.2695,14.2695,14.1914,14.1093,14.0195,14.0195,13.9687,13.8906,13.8906,13.8007,13.6289,13.4609,13.3789,13.3789,13.289,13.25,13.2304,13.0586,12.9414,12.8398,12.6718,12.5508,12.4687,12.3789,12.3008,12.2109,12.1211,12.0312,11.9492,11.8593,11.8281,11.8281,11.8281,11.8281,11.8281,11.8281,11.8281,11.8281,11.8281,11.8281,11.8281,11.8281,11.8281,11.8281,11.8281,11.8281,11.8281,11.8281,11.8281,11.8281,11.8281,11.8281,11.8281,11.8203,11.75,11.6601,11.5781,11.5586,11.5,11.3281,11.3906,11.4101,11.3203,11.3203,11.3906,11.5586,11.4883,11.4804,11.5586,11.5586,11.5586,11.5703,11.5703,11.5383,11.489,11.5691,11.5793,11.5286,11.611,11.6495,10.4883,10.8593,11.2695,11.6211,11.9414,12.2617,12.5703,12.7304,12.8398,12.9297,12.9687,13.0,13.0312,13.0312,13.1093,13.3398,13.3984,13.4492,13.5312,13.5508,13.4883,13.3515,13.4101,13.4609,13.4609,13.6718,13.8398,13.9297,14.039,14.1289,14.1914,14.25,14.2812,14.2812,14.25,14.2187,14.1914,14.0781,14.0117,13.9804,13.9218,13.8281,13.7109,13.6015,13.5117,13.4609,13.3711,13.3008,13.2383,13.1211,13.0195,12.9297,12.75,12.6289,12.5508,12.4687,12.3789,12.289,12.1406,12.0703,12.0312,11.9414,11.9218,11.9218,11.9218,11.9218,11.8984,11.8515,11.8281,11.8281,11.8281,11.8281,11.8281,11.8281,11.8711,11.8984,11.8398,11.8789,11.8984,11.8398,11.8281,11.8281,11.8281,11.8281,11.8281,11.8281,11.7617,11.6718,11.5781,11.5703,11.5508,11.5,11.5195,11.5195,11.4883,11.4883,11.5117,11.5703,11.5508,11.5703,11.6484,11.6015,11.6211,11.7383,11.6914,11.6697,11.6913,11.6909,11.6822,11.6411,11.6515,11.6495,10.8593,11.2617,11.6601,11.9414,12.25,12.5312,12.6914,12.8008,12.8515,12.8203,12.8086,12.8008,12.7695,12.7695,12.8711,13.1914,13.289,13.3906,13.5586,13.5781,13.5195,13.3593,13.4101,13.4492,13.4297,13.6015,13.7617,13.8789,14.0,14.1015,14.1914,14.25,14.289,14.3203,14.289,14.2812,14.2812,14.1093,14.0,13.9687,13.8515,13.7695,13.7109,13.5898,13.5117,13.4492,13.3984,13.3515,13.289,13.1992,13.1211,13.0195,12.8398,12.7187,12.6289,12.5195,12.4414,12.3711,12.1992,12.1406,12.1211,12.0312,12.0117,12.0117,12.0117,12.0117,11.9883,11.9414,11.9218,11.9218,11.8789,11.8789,11.8789,11.8789,11.8984,11.9101,11.8789,11.8984,11.9101,11.8789,11.8515,11.8398,11.8711,11.8515,11.8281,11.8281,11.7812,11.7304,11.6718,11.6601,11.6484,11.6289,11.6211,11.6211,11.6211,11.5898,11.6015,11.6601,11.6283,11.6509,11.7291,11.6782,11.7016,11.8111,11.7693,11.7516,11.7686,11.7493,11.7204,11.6817,11.6582,11.6495,11.3515,11.6601,11.9414,12.2812,12.539,12.7187,12.7304,12.789,12.8203,12.7187,12.6992,12.6718,12.5703,12.5703,12.6718,12.9297,13.1289,13.3203,13.4883,13.5195,13.5195,13.5195,13.4492,13.4414,13.5117,13.6015,13.7187,13.8789,14.0507,14.1797,14.2812,14.2812,14.3086,14.3906,14.3203,14.2812,14.2812,14.1093,13.9804,13.8906,13.7187,13.6406,13.6289,13.4609,13.3906,13.3906,13.3789,13.3789,13.3711,13.289,13.1992,13.1093,12.9297,12.8086,12.7187,12.5508,12.4883,12.4609,12.289,12.2304,12.2109,12.1211,12.1015,12.1015,12.0898,12.0898,12.0898,12.0781,12.0781,12.0703,11.9804,11.9609,11.9687,11.9687,11.9101,11.8711,11.9492,11.9101,11.8711,11.9492,11.8984,11.8593,11.9492,11.8906,11.8281,11.8398,11.8281,11.8281,11.8281,11.8281,11.8008,11.7187,11.7109,11.7109,11.7109,11.6406,11.6601,11.8203,11.73,11.6998,11.7898,11.7898,11.7898,11.7898,11.819,11.8001,11.7386,11.7408,11.7088,11.6501,11.6506,11.6495,11.6484,12.0195,12.3515,12.5,12.5898,12.6484,12.7187,12.6992,12.5898,12.3086,12.25,12.1914,11.9687,12.1406,12.4218,12.7383,13.1093,13.4297,13.6601,13.75,13.789,13.789,13.7695,13.7695,13.789,13.8711,13.9414,13.9804,14.0312,14.1211,14.2695,14.2812,14.289,14.3086,14.2304,14.2109,14.2812,14.1718,14.039,13.8906,13.7812,13.7304,13.7187,13.5508,13.4687,13.4687,13.4101,13.3789,13.3711,13.289,13.2383,13.1992,13.0195,12.8984,12.8086,12.7109,12.5898,12.4687,12.4297,12.3281,12.2187,12.1914,12.1914,12.1718,12.1093,12.1406,12.1484,11.9492,11.9883,12.0703,11.9804,12.0117,12.0586,12.0586,12.0898,12.1093,12.0703,12.0898,12.1093,12.0703,11.9883,11.9297,11.9609,11.8906,11.8515,11.9218,11.8711,11.8281,11.8281,11.8281,11.8203,11.8008,11.8008,11.8008,11.8008,11.7812,11.7812,11.8281,11.7807,11.7703,11.7898,11.7898,11.7898,11.7898,11.819,11.8106,11.7793,11.7503,11.7185,11.6891,11.6614,11.6495,12.0508,12.3789,12.6484,12.6601,12.6289,12.5898,12.5703,12.4687,12.2812,11.9414,11.8906,11.8398,11.5781,11.8515,12.2109,12.5117,12.9609,13.3789,13.7109,13.8398,13.9218,14.0,13.9687,13.9609,14.0,14.0117,14.0195,14.0195,14.0586,14.1406,14.2695,14.2382,14.2382,14.2812,14.1601,14.1015,14.1093,14.1015,14.0195,13.8906,13.8007,13.7382,13.6992,13.5586,13.4804,13.4414,13.3984,13.3789,13.3789,13.3281,13.2812,13.2383,13.1406,13.0312,12.9101,12.8203,12.6992,12.5781,12.5117,12.4218,12.3281,12.289,12.25,12.2109,12.1601,12.1797,12.1797,12.0,12.0703,12.1797,12.0508,12.0781,12.1484,12.1484,12.1601,12.1601,12.1484,12.1601,12.1484,12.1015,12.0781,12.0586,12.0195,11.9804,11.9609,12.0117,11.9804,11.9414,11.9414,11.8789,11.8398,11.8789,11.8515,11.8281,11.8281,11.8281,11.8281,11.8281,11.7917,11.7701,11.7895,11.7786,11.7701,11.7895,11.819,11.8191,11.7898,11.7717,11.7419,11.699,11.6798,11.6617,12.4609,12.6992,12.8593,12.7695,12.6718,12.539,12.3593,12.1601,11.9297,11.6015,11.5703,11.5508,11.3281,11.6289,12.0117,12.3008,12.7617,13.2383,13.6992,13.8398,13.9609,14.1601,14.1093,14.0898,14.1914,14.1211,14.0703,14.0703,14.1406,14.2109,14.2617,14.1914,14.1797,14.2382,14.1015,13.9804,13.9101,13.9804,13.9804,13.8906,13.789,13.6992,13.6289,13.5312,13.4492,13.3789,13.3789,13.3789,13.3789,13.3789,13.3398,13.2617,13.2383,13.1406,13.0,12.8984,12.8008,12.7109,12.5508,12.4883,12.4687,12.3789,12.289,12.2187,12.2109,12.2109,12.1992,12.1015,12.2109,12.3086,12.1484,12.1718,12.2383,12.25,12.1992,12.1718,12.25,12.1992,12.1406,12.1289,12.1797,12.1992,12.1211,12.1015,12.0898,12.1093,12.1015,12.0898,12.1093,11.9609,11.8789,11.9687,11.8984,11.8515,11.8593,11.8593,11.8593,11.8515,11.7891,11.772,11.7892,11.7616,11.7608,11.7895,11.819,11.8194,11.8002,11.7906,11.7608,11.7089,11.7017,11.6891,12.7187,12.8789,12.9492,12.8593,12.6718,12.4414,12.1914,11.8906,11.5898,11.3086,11.2109,11.1601,11.1093,11.3984,11.8008,12.2695,12.6601,13.1093,13.6797,13.8398,14.0117,14.3203,14.2812,14.3007,14.4492,14.3906,14.3281,14.3281,14.3515,14.3007,14.1797,14.1601,14.1211,14.0703,14.039,14.0117,14.0,14.0117,13.9804,13.8906,13.7304,13.6406,13.6211,13.4687,13.3906,13.3789,13.3789,13.3789,13.3789,13.3789,13.3711,13.3398,13.1992,13.1211,13.0781,12.9218,12.8008,12.7187,12.6093,12.539,12.4687,12.3789,12.289,12.2109,12.1289,12.1601,12.1914,12.0312,12.1601,12.3281,12.2187,12.2617,12.3515,12.4218,12.4218,12.4297,12.5195,12.4687,12.3906,12.3203,12.2617,12.2187,12.1992,12.1406,12.1093,12.1914,12.1406,12.1211,12.1914,12.0508,11.9687,12.0586,11.9883,11.9687,12.039,12.039,12.0117,11.9414,11.9081,11.861,11.7895,11.7794,11.7791,11.7898,11.819,11.8281,11.8199,11.7988,11.7791,11.7682,11.7197,11.7113,12.8493,13.0108,13.0781,12.8984,12.6289,12.3086,11.9101,11.5898,11.289,10.9804,10.9609,10.9804,10.9297,11.25,11.6211,11.9609,12.3008,12.7695,13.4609,13.6289,13.8593,14.3398,14.3711,14.3906,14.5195,14.4492,14.3789,14.3398,14.3789,14.3593,14.2812,14.2382,14.1601,14.0195,14.0195,14.0,13.9492,13.9492,13.9297,13.8906,13.7617,13.6718,13.6289,13.5,13.4218,13.3789,13.3789,13.3789,13.3789,13.3789,13.3789,13.3711,13.2383,13.1601,13.1015,12.9804,12.8711,12.7812,12.6484,12.5703,12.5195,12.3906,12.289,12.2109,12.1718,12.1914,12.1914,12.0586,12.1797,12.3398,12.3008,12.3515,12.4297,12.4687,12.4804,12.5,12.5781,12.5703,12.5312,12.4883,12.4101,12.3593,12.3593,12.2812,12.2383,12.2812,12.25,12.2383,12.2812,12.1797,12.1093,12.1484,12.039,12.0,12.0781,12.0508,12.0,11.9609,11.9293,11.8907,11.8098,11.8011,11.8009,11.8098,11.82,11.8281,11.8281,11.8191,11.7999,11.7892,11.7585,11.7414,12.8508,13.04,13.1289,12.8711,12.5508,12.1601,11.6406,11.3008,11.0195,10.7304,10.7695,10.8398,10.8281,11.1093,11.4218,11.6601,11.9609,12.4297,13.1914,13.4101,13.7109,14.2812,14.3515,14.3906,14.5195,14.4218,14.3398,14.3086,14.3396,14.359,14.3515,14.2695,14.1601,14.0195,14.0,13.9687,13.9218,13.8984,13.8906,13.8906,13.7812,13.6992,13.6289,13.5195,13.4414,13.3789,13.3789,13.3789,13.3789,13.3593,13.3515,13.3398,13.2383,13.1484,13.0781,12.9883,12.9218,12.8398,12.6601,12.6015,12.5703,12.3984,12.289,12.2187,12.2187,12.2187,12.2109,12.1406,12.2304,12.3515,12.3515,12.3984,12.4609,12.5,12.5312,12.5781,12.6406,12.6406,12.6211,12.6015,12.539,12.4687,12.4609,12.3984,12.3515,12.3515,12.3515,12.3515,12.3515,12.289,12.25,12.25,12.1093,12.0508,12.1406,12.0703,12.0117,11.9883,11.9504,11.899,11.8281,11.8097,11.8092,11.8281,11.8281,11.8281,11.8281,11.8281,11.8195,11.8016,11.7911,11.7885,12.6696,12.8606,12.9492,12.6914,12.3711,11.9804,11.4609,11.0781,10.8008,10.6914,10.6211,10.6484,10.8789,10.9492,11.1406,11.6211,11.8593,12.2304,12.9297,13.3008,13.6718,14.1211,14.1718,14.2695,14.5117,14.3086,14.2304,14.3789,14.289,14.2212,14.1796,14.0898,14.039,14.0195,13.9414,13.9414,14.0117,13.9297,13.8906,13.8906,13.7187,13.6406,13.6211,13.4609,13.3906,13.3789,13.3789,13.3789,13.3711,13.289,13.2617,13.25,13.0781,13.0117,12.9883,12.8984,12.8711,12.8398,12.6601,12.6015,12.5703,12.3984,12.289,12.2187,12.2187,12.2187,12.2187,12.2109,12.2812,12.3515,12.3515,12.3593,12.3984,12.5508,12.7109,12.8281,12.8281,12.7695,12.6914,12.6211,12.539,12.4492,12.3789,12.3593,12.3515,12.3515,12.3515,12.3515,12.3515,12.3398,12.3398,12.3398,12.25,12.2304,12.3203,12.25,12.1601,12.0781,11.9999,11.9218,11.8281,11.8281,11.8281,11.8281,11.8281,11.8281,11.8281,11.8281,11.8281,11.8319,11.799,11.8382,12.3987,12.6507,12.7591,12.5702,12.2695,11.8789,11.3593,10.9687,10.6992,10.6093,10.5703,10.6093,10.8086,10.8515,10.9685,11.3094,11.3789,11.6408,12.3285,12.5785,12.9395,13.6093,13.7812,13.9609,14.2695,14.2109,14.1797,14.2382,14.1399,14.0411,13.968,13.9606,13.939,13.8801,13.8707,13.8316,13.7611,13.8393,13.8398,13.7304,13.6601,13.6015,13.5508,13.4297,13.3789,13.3789,13.3789,13.3515,13.3008,13.2617,13.2187,13.1601,13.039,12.9883,12.9804,12.8906,12.8593,12.8398,12.6601,12.6015,12.5703,12.3984,12.3281,12.3008,12.3008,12.3008,12.3008,12.3008,12.3203,12.3711,12.4687,12.539,12.6015,12.6601,12.7304,12.8008,12.8515,12.789,12.7187,12.6797,12.5703,12.4687,12.4297,12.3789,12.3515,12.3515,12.3515,12.3515,12.3515,12.3515,12.3515,12.3515,12.2695,12.2304,12.2695,12.2383,12.1601,12.0195,12.0312,11.9804,11.8398,11.8281,11.8281,11.8281,11.8281,11.8281,11.8281,11.8281,11.8593,11.9101,11.839,11.8704,12.0186,12.3288,12.4986,12.3805,12.0889,11.7103,11.2617,10.8789,10.6211,10.5586,10.5508,10.5898,10.7383,10.7812,10.851,11.011,11.0712,11.3003,11.8782,12.1002,12.4484,13.1208,13.3285,13.5587,13.9297,14.0582,14.0893,14.0112,13.9387,13.851,13.738,13.7386,13.7321,13.7106,13.7595,13.7213,13.5692,13.749,13.7801,13.6512,13.6092,13.5703,13.5312,13.4297,13.3789,13.3789,13.3789,13.3281,13.25,13.2187,13.1601,13.0703,12.9883,12.9492,12.9414,12.8789,12.8398,12.8008,12.6484,12.5781,12.539,12.3984,12.3515,12.3515,12.3515,12.3515,12.3515,12.3515,12.3515,12.3789,12.5,12.6093,12.6914,12.6914,12.7304,12.789,12.8515,12.789,12.7187,12.6992,12.5781,12.4687,12.4492,12.3906,12.3515,12.3515,12.3515,12.3515,12.3515,12.3515,12.3515,12.3515,12.2695,12.2304,12.2617,12.2109,12.1289,12.0117,12.0117,11.9609,11.8398,11.8281,11.8398,11.8711,11.8711,11.8789,11.9101,11.8789,11.9101,12.0,11.9101,11.8984,11.5096,11.8494,12.1208,12.06,11.7901,11.4494,11.1286,10.8008,10.5508,10.5508,10.5508,10.5703,10.6601,10.7383,10.7885,10.7692,11.048,11.3786,11.7094,12.0494,12.3892,12.7407,12.8492,13.0783,13.5015,13.85,13.9415,13.6808,13.7099,13.6595,13.489,13.3685,13.3792,13.5303,13.6217,13.6179,13.529,13.6494,13.7102,13.7108,13.569,13.5508,13.6211,13.4609,13.3789,13.3789,13.3789,13.3281,13.2383,13.1601,13.0703,12.9804,12.8984,12.8593,12.8593,12.8593,12.8086,12.7187,12.6289,12.5508,12.4687,12.3789,12.3515,12.3515,12.3515,12.3515,12.3515,12.3515,12.3515,12.3515,12.3515,12.4804,12.6015,12.6015,12.7304,12.8593,12.8593,12.789,12.6992,12.6211,12.539,12.4492,12.3711,12.3515,12.3515,12.3515,12.3515,12.3515,12.3515,12.3515,12.3515,12.3515,12.2695,12.25,12.3398,12.1914,12.0898,12.0898,11.9297,11.8281,11.8281,11.8281,11.8711,11.9609,11.9609,12.0,12.0898,12.0,12.0,12.0898,12.0,11.9609,10.9086,11.1489,11.3017,11.2507,11.1208,10.9412,10.6594,10.5303,10.4414,10.3789,10.4687,10.5586,10.5781,10.6899,10.8193,10.971,11.12,11.3094,11.59,11.9191,12.2485,12.5614,13.082,13.4901,13.6912,13.8507,13.8702,13.6717,13.6508,13.5694,13.398,13.2813,13.2609,13.3704,13.4192,13.4098,13.3197,13.4998,13.5307,13.4099,13.4184,13.4103,13.3786,13.3318,13.2695,13.2192,13.2192,13.1412,13.0008,12.9696,12.9107,12.8301,12.8307,12.7911,12.7489,12.8316,12.7695,12.6406,12.6093,12.5508,12.4687,12.3789,12.3515,12.3515,12.3515,12.3515,12.3515,12.3515,12.3906,12.4297,12.3711,12.4687,12.5898,12.5312,12.6484,12.7695,12.7695,12.6992,12.6289,12.6093,12.4883,12.3789,12.3515,12.3515,12.3515,12.3515,12.3515,12.3515,12.3515,12.3515,12.3515,12.3515,12.2695,12.2109,12.1797,12.1211,12.039,11.9218,11.9218,11.8906,11.8281,11.8281,11.8711,11.9609,11.9609,11.9687,12.0,11.9687,11.9414,11.9101,11.9492,11.9297,10.4809,10.6698,10.7879,10.7913,10.7194,10.5913,10.4116,10.3495,10.3307,10.2681,10.3696,10.4789,10.51,10.6205,10.7507,10.9111,11.0312,11.192,11.4692,11.7716,12.1202,12.5184,13.078,13.459,13.5395,13.6908,13.6985,13.5404,13.4995,13.4305,13.2903,13.2105,13.191,13.25,13.3013,13.2892,13.1993,13.3685,13.4089,13.3001,13.3299,13.3403,13.3208,13.2508,13.2002,13.1496,13.1191,13.0218,0.0,12.8889,12.8415,12.7616,12.7793,12.7387,12.6792,12.7999,12.7092,12.5416,12.5897,12.5312,12.4218,12.3711,12.3515,12.3515,12.3515,12.3515,12.3515,12.3515,12.3906,12.4218,12.3593,12.4492,12.539,12.4883,12.5781,12.6797,12.6797,12.6093,12.5508,12.5508,12.4414,12.3515,12.3515,12.3515,12.3515,12.3515,12.3515,12.3515,12.3515,12.3515,12.3398,12.3008,12.2187,12.1484,12.0898,12.0586,11.9883,11.8906,11.8984,11.8906,11.8281,11.8281,11.8711,11.9609,11.9883,12.0117,12.0117,12.0117,11.9609,11.8789,11.9297,11.9297,0.0,10.3692,10.5109,10.5883,10.4891,10.3713,10.3115,10.2401,0.0,10.1895,10.2708,10.3598,10.4406,10.5285,10.6115,10.6998,10.8508,11.0592,11.3713,11.6484,12.0485,12.6486,12.9294,13.0987,13.191,13.4103,13.4718,13.3115,13.3,13.2615,13.1679,13.1679,13.1679,13.1679,13.25,13.2487,13.1679,13.2794,13.3409,13.339,13.2885,13.3091,13.3797,13.2203,13.1386,13.1308,13.042,12.9487,12.8702,12.8702,12.8307,12.749,12.7509,12.6984,12.641,12.7583,12.6403,12.4396,12.5619,12.4883,12.3593,12.3593,12.3593,12.3515,12.3515,12.3515,12.3515,12.3515,12.3515,12.3515,12.3515,12.4101,12.4687,12.4687,12.5312,12.5898,12.5898,12.5312,12.4804,12.4804,12.4101,12.3515,12.3515,12.3515,12.3515,12.3515,12.3515,12.3515,12.3398,12.3398,12.3086,12.2187,12.1289,12.0781,12.0781,12.0,11.9492,11.9609,11.8789,11.8281,11.8281,11.8281,11.8711,11.9609,12.039,12.0781,12.0781,12.0703,12.0312,11.9492,11.9492,11.9492,9.7012,0.0,9.9272,9.8866,9.9096,9.938,0.0,9.9713,10.0178,10.0212,10.1385,10.2708,10.3501,10.4179,10.5993,10.9995,11.0784,11.2082,11.5391,11.9792,12.5101,13.1718,13.2487,13.2987,13.4487,13.4603,13.4103,13.3115,13.3,13.2615,13.1679,13.1679,13.1679,13.1679,13.191,13.191,13.1679,13.1995,13.2105,13.2117,13.1987,13.2016,13.2209,13.1206,13.0395,12.97,12.8812,12.8002,12.7191,12.7191,12.7114,12.6886,12.6513,12.5799,12.519,12.6591,12.5508,12.3615,12.5384,12.5312,12.4492,12.4492,12.3984,12.3515,12.3515,12.3515,12.3515,12.3515,12.3515,12.3515,12.3515,12.3711,12.3789,12.3789,12.4492,12.5117,12.5117,12.4883,12.4804,12.4804,12.4101,12.3515,12.3515,12.3515,12.3515,12.3515,12.3515,12.3281,12.2617,12.25,12.2187,12.1289,12.039,11.9883,11.9883,11.9101,11.8906,11.9609,11.8789,11.8281,11.8281,11.8281,11.8711,11.9609,11.9804,11.9883,11.9883,11.9218,11.8789,11.8593,11.8593,11.8593,9.5146,9.6404,9.7556,9.6997,9.7303,9.7718,9.7741,9.8198,9.8626,9.8651,9.9672,10.099,10.2209,10.339,10.5503,10.9801,11.1006,11.3407,11.8715,12.2793,12.7409,13.2987,13.3295,13.3385,13.4295,13.3987,13.3295,13.25,13.241,13.2179,13.1679,13.1679,13.1679,13.1679,13.1679,13.1679,13.1679,13.1679,13.1679,13.1679,13.1679,13.1487,13.1102,13.0294,12.941,12.8602,12.7717,12.7101,12.669,12.669,12.669,12.6688,12.6404,12.5507,12.4604,12.6314,12.5415,12.3412,12.5587,12.5695,12.4687,12.4297,12.3906,12.3515,12.3515,12.3515,12.3515,12.3515,12.3515,12.3515,12.3515,12.3515,12.3515,12.3515,12.3906,12.4218,12.4218,12.4218,12.4218,12.4218,12.3789,12.3515,12.3515,12.3515,12.3515,12.3515,12.3515,12.3281,12.289,12.2812,12.2304,12.1015,12.0508,12.0,11.9609,11.8789,11.8515,11.8984,11.8906,11.8711,11.8281,11.8711,11.9101,11.9609,11.9218,11.9218,11.9609,11.8711,11.8281,11.8281,11.8281,11.8281,9.4566,9.6308,9.7759,9.7389,9.7403,9.7519,9.7519,9.7403,9.7365,9.748,9.8096,9.9211,10.1087,10.2789,10.5097,10.8713,11.1098,11.5011,12.2293,12.5293,12.8306,13.25,13.2885,13.2885,13.3,13.2885,13.25,13.1795,13.1679,13.1679,13.1679,13.1679,13.1679,13.1679,13.1679,13.1679,13.1679,13.1679,13.1679,13.1679,13.1679,13.1295,13.0487,12.9602,12.8705,12.7897,12.6986,12.669,12.669,12.669,12.669,12.669,12.6614,12.5486,12.4287,12.6104,12.5199,12.3401,12.572,12.5702,12.4687,12.4101,12.3711,12.3515,12.3711,12.3593,12.3515,12.3515,12.3515,12.3515,12.3515,12.3515,12.3515,12.3515,12.3593,12.3711,12.3515,12.3593,12.3591,12.3396,12.3396,12.3396,12.32,12.3398,12.3515,12.3281,12.3398,12.3515,12.3281,12.3203,12.25,12.0898,12.0586,12.0195,11.9492,11.8711,11.8281,11.8281,11.8984,11.9101,11.8515,11.9101,11.9492,11.9609,11.8711,11.8711,11.9414,11.8711,11.8281,11.8281,11.8281,11.8398,9.3681,9.5689,9.738,9.6653,9.7019,9.7519,9.7519,9.698,9.6673,9.7365,9.7596,9.8673,10.1789,10.3212,10.5482,11.028,11.428,11.8715,12.4216,12.5986,12.8306,13.25,13.2295,13.2179,13.2923,13.2295,13.1795,13.1679,13.1679,13.1679,13.1679,13.1679,13.1679,13.1679,13.1679,13.1679,13.1679,13.1679,13.1679,13.1679,13.1679,13.1295,13.0487,12.9602,12.8705,12.7897,12.6986,12.669,12.669,12.669,12.669,12.6601,12.5909,12.4986,12.421,12.4799,12.3814,12.2509,12.4083,12.4689,12.4883,12.539,12.4687,12.3593,12.4414,12.4101,12.3515,12.3515,12.3515,12.3515,12.3515,12.3515,12.3515,12.3515,12.4101,12.4414,12.3711,12.3882,12.4016,12.3196,12.3118,12.2806,12.2101,12.2796,12.3203,12.25,12.3008,12.3203,12.25,12.1797,12.0898,11.9883,11.9101,11.8593,11.8515,11.8398,11.8281,11.8281,11.8398,11.8789,11.9414,11.8789,11.8789,11.9609,11.8711,11.8398,11.8515,11.8398,11.8281,11.8281,11.8281,11.8711,9.271,9.4557,9.6172,9.6288,9.7942,9.9558,9.9558,9.8942,9.8442,9.8827,9.8519,9.9096,10.2097,10.4097,10.7213,11.3214,11.7407,12.1177,12.4909,12.6486,12.8602,13.191,13.191,13.1923,13.2307,13.191,13.1679,13.1679,13.1679,13.1679,13.1679,13.1679,13.1679,13.1679,13.1679,13.1679,13.1679,13.1679,13.1679,13.1679,13.1295,13.0602,12.9794,12.8909,12.7986,12.7217,12.6921,12.669,12.669,12.669,12.669,12.669,12.6306,12.5601,12.4791,12.4382,12.4015,12.3492,12.392,12.4192,12.4504,12.4608,12.4101,12.3593,12.3984,12.3789,12.3515,12.3515,12.3515,12.3515,12.3515,12.3515,12.3593,12.4101,12.4492,12.4687,12.4297,12.4407,12.4298,12.3217,12.3008,12.2888,12.2497,12.2903,12.3182,12.289,12.3203,12.3398,12.3008,12.2109,12.1289,12.039,11.9492,11.8789,11.8281,11.8281,11.8515,11.8984,11.8593,11.8711,11.9609,11.8789,11.8515,11.8906,11.8515,11.8515,11.8984,11.8984,11.9218,11.9687,11.9218,11.9492,9.2095,9.3566,9.4912,9.5788,9.8211,10.0587,10.1394,10.0981,10.0606,10.1414,10.0914,10.0981,10.3405,10.6213,11.0214,11.6418,11.9908,12.2793,12.5293,12.6986,12.8705,13.091,13.1295,13.141,13.141,13.1602,13.1679,13.1679,13.1679,13.1602,13.141,13.1602,13.1602,13.141,13.1602,13.1679,13.1679,13.1487,13.141,13.141,13.0794,12.991,12.8909,12.8205,12.7486,12.669,12.669,12.6614,12.6421,12.6421,12.6421,12.6421,12.6178,12.5601,12.4793,12.4293,12.4292,12.4495,12.3912,12.3991,12.4381,12.4116,12.3704,12.3511,12.3906,12.3789,12.3515,12.3515,12.3515,12.3515,12.3515,12.3515,12.3711,12.4609,12.4804,12.4804,12.4804,12.4685,12.4318,12.3186,12.3008,12.2888,12.2692,12.2918,12.3083,12.3202,12.3398,12.3515,12.3515,12.2695,12.1914,12.1015,12.0117,11.9218,11.8398,11.8281,11.8593,11.9297,11.8711,11.8711,11.9609,11.8789,11.8398,11.8593,11.8593,11.8906,11.9609,11.9609,12.0,12.0898,12.0,12.0195,9.2249,9.3133,9.398,9.4874,9.6442,9.8596,10.1789,10.1779,10.2087,10.5279,10.529,10.5213,10.6982,11.0714,11.4907,11.9292,12.16,12.3716,12.6178,12.7409,12.8282,12.9294,13.0102,13.0602,13.0602,13.1295,13.1679,13.1679,13.1679,13.141,13.0602,13.1295,13.141,13.0602,13.1295,13.1679,13.1679,13.0987,13.0602,13.0602,13.0487,12.9602,12.8012,12.7897,12.7486,12.669,12.669,12.6178,12.5486,12.5486,12.5486,12.5409,12.4601,12.3793,12.3216,12.3793,12.4292,12.449,12.3617,12.4109,12.5115,12.5392,12.4391,12.3399,12.5308,12.4687,12.3515,12.3515,12.3515,12.3515,12.3515,12.3515,12.3711,12.4609,12.4804,12.4804,12.4804,12.4581,12.4115,12.3203,12.3008,12.2692,12.1912,12.2706,12.3203,12.2383,12.3008,12.3515,12.3515,12.2695,12.1914,12.1015,12.0117,11.9218,11.8398,11.8281,11.8281,11.8398,11.8281,11.8711,11.9609,11.8789,11.8711,11.9492,11.9492,11.9492,11.9609,11.9609,12.0,12.0898,12.0,12.0508,9.0517,9.2249,9.3912,9.4797,9.6682,9.9211,10.2597,10.3482,10.4597,10.8098,10.8098,10.7982,10.9713,11.2714,11.5715,11.8292,12.11,12.3601,12.5601,12.7101,12.8205,12.9102,12.9487,12.9717,12.9717,12.9987,13.0102,13.0102,13.0602,13.0794,13.0487,13.1295,13.1602,13.1295,13.1487,13.1487,13.0987,13.0679,12.9987,12.8909,12.8909,12.8512,12.7897,12.7409,12.6717,12.5909,12.5909,12.5409,12.4601,12.4601,12.4909,12.5409,12.5601,12.4909,12.3716,12.3985,12.3483,12.2693,12.2583,12.319,12.4016,12.4403,12.4198,12.4106,12.5408,12.5103,12.4414,12.4883,12.4687,12.4218,12.3593,12.3515,12.3709,12.4303,12.4486,12.4391,12.4183,12.4192,12.3994,12.2887,12.2891,12.2817,12.2298,12.2618,12.2788,12.2718,12.3001,12.3294,12.3515,12.2695,12.1914,12.1015,11.9609,11.8711,11.8281,11.8281,11.8281,11.8281,11.8281,11.8398,11.8789,11.8984,11.8984,11.8789,11.9883,12.039,12.039,12.1015,12.1718,12.25,12.1601,12.1914,9.0009,9.1979,9.3912,9.4797,9.672,9.9481,10.3712,10.529,10.6982,11.0994,11.1098,11.0983,11.2406,11.4291,11.6292,11.8292,12.0985,12.3408,12.4793,12.5986,12.6909,12.7486,12.8102,12.8409,12.8409,12.8909,12.9217,12.9217,12.9794,12.9987,12.9717,13.0718,13.1102,13.0487,13.0987,13.091,13.0102,12.9794,12.9102,12.7897,12.7589,12.7486,12.7486,12.6678,12.5986,12.5409,12.5101,12.4486,12.3716,12.3716,12.3909,12.4293,12.5678,12.5101,12.3408,12.3909,12.3216,12.2005,12.2291,12.2682,12.331,12.3885,12.4006,12.4184,12.539,12.5385,12.4988,12.5613,12.5301,12.4793,12.4208,12.3917,12.3994,12.4683,12.4518,12.4208,12.4187,12.3984,12.3502,12.2696,12.2698,12.2796,12.2496,12.2312,12.2301,12.2782,12.2611,12.2599,12.2911,12.2409,12.1595,12.0586,11.9218,11.8281,11.8281,11.8281,11.8281,11.8281,11.8281,11.8281,11.8281,11.9414,11.9609,11.8711,12.039,12.1289,12.1289,12.1914,12.2617,12.3515,12.2617,12.2695,9.121,9.2402,9.3912,9.4797,9.6288,9.9135,10.5097,10.7098,10.9213,11.4302,11.4599,11.4291,11.5099,11.5995,11.7303,11.9908,12.1716,12.3216,12.3985,12.4101,12.4101,12.4101,12.5601,12.669,12.669,12.8217,12.9217,12.9217,12.9217,12.8794,12.7897,12.9487,12.9717,12.8012,12.9602,13.0102,12.9217,12.8282,12.7897,12.7897,12.7101,12.669,12.669,12.5794,12.5409,12.5293,12.4486,12.3601,12.2908,12.2908,12.2408,12.192,12.4409,12.3793,12.1804,12.3485,12.3601,12.2908,12.2908,12.2908,12.309,12.4199,12.4008,12.3699,12.5687,12.5712,12.5084,12.5084,12.5084,12.5084,12.5084,12.4709,12.4587,12.6016,12.5018,12.4006,12.4907,12.3701,12.2501,12.2501,12.2501,12.2501,12.2501,12.18,12.1611,12.2384,12.18,12.1403,12.1692,12.1714,12.1105,11.9686,11.8789,11.8281,11.8281,11.8281,11.8281,11.8281,11.8281,11.8281,11.8281,12.0,12.0508,11.9609,12.1289,12.2187,12.2187,12.2187,12.2695,12.3515,12.2617,12.2695,9.0124,9.1556,9.348,9.6095,9.9404,10.3097,10.7213,10.8406,10.9983,11.511,11.5495,11.4984,11.5303,11.5495,11.6292,11.8215,11.9985,12.16,12.3024,12.3716,12.4101,12.4101,12.4601,12.5101,12.5678,12.6217,12.6794,12.7409,12.7986,12.8217,12.7897,12.8986,12.9294,12.8794,12.9294,12.9217,12.8282,12.8012,12.7602,12.7101,12.6794,12.669,12.669,12.6409,12.5601,12.4486,12.4216,12.3293,12.1985,12.2601,12.2716,12.2601,12.3985,12.3716,12.2601,12.3101,12.2716,12.1985,12.1985,12.2793,12.3778,12.409,12.4603,12.5304,12.6489,12.6413,12.6107,12.6691,12.6419,12.6012,12.6408,12.5492,12.4614,12.5003,12.4319,12.35,12.3503,12.2819,12.2186,12.2186,12.2414,12.2389,12.2318,12.2,12.1883,12.2194,12.2,12.1793,12.1509,12.0916,12.0188,11.9387,11.8501,11.8095,11.8281,11.8281,11.8281,11.8281,11.8906,11.9218,11.9218,12.0312,12.0781,12.0508,12.2187,12.2812,12.2187,12.2812,12.3203,12.3515,12.3203,12.3281,9.1095,9.3172,9.5711,9.8788,10.2212,10.5982,10.9983,11.1214,11.2406,11.5803,11.5918,11.5407,11.5676,11.5803,11.6215,11.76,11.9215,12.0716,12.1716,12.2601,12.3101,12.3101,12.3408,12.3985,12.4793,12.5216,12.5794,12.6601,12.7101,12.7409,12.7409,12.8217,12.8486,12.8217,12.8486,12.8294,12.7409,12.7409,12.7217,12.669,12.669,12.6486,12.6178,12.5794,12.5101,12.4101,12.3408,12.2485,12.1689,12.2485,12.2716,12.2485,12.3716,12.3601,12.2908,12.2908,12.2601,12.21,12.1677,12.2305,12.3216,12.3909,12.4382,12.5007,12.6486,12.651,12.6114,12.7015,12.6898,12.6519,12.6886,12.5906,12.4891,12.4891,12.4003,12.311,12.2902,12.2383,12.1888,12.1888,12.1979,12.2085,12.1909,12.1579,12.1502,12.1811,12.1403,12.0809,12.0215,11.9388,11.8791,11.852,11.7986,11.78,11.7892,11.7897,11.7897,11.7897,11.86,11.9084,11.9397,12.0701,12.1406,12.1406,12.2812,12.3203,12.2695,12.3203,12.3515,12.3515,12.3515,12.3515,9.3172,9.6057,9.9365,10.2097,10.502,10.8395,11.3214,11.4791,11.561,11.6303,11.5918,11.5599,11.6418,11.6611,11.6907,11.7792,11.9292,12.0292,12.0408,12.11,12.1612,12.1612,12.2293,12.3101,12.3909,12.4793,12.5601,12.6486,12.669,12.669,12.669,12.7409,12.7486,12.6678,12.7409,12.7409,12.669,12.669,12.669,12.669,12.669,12.6178,12.5409,12.4601,12.4101,12.3909,12.2293,12.1612,12.1689,12.2485,12.2293,12.1804,12.3293,12.3485,12.2908,12.2793,12.2793,12.2793,12.1908,12.1689,12.1985,12.3485,12.3601,12.3601,12.5909,12.6101,12.5678,12.6486,12.6601,12.6614,12.6614,12.5909,12.5178,12.5178,12.3985,12.2908,12.2908,12.2216,12.1612,12.1612,12.1612,12.1612,12.1612,12.0908,12.0677,12.1497,12.0418,11.9282,11.84,11.7807,11.7405,11.7396,11.7396,11.7407,11.7397,11.7403,11.7403,11.7403,11.7702,11.819,11.9087,12.0999,12.2109,12.2187,12.3086,12.3515,12.3515,12.3515,12.3515,12.3515,12.3515,12.3515,9.2479,9.5211,9.8865,10.3405,10.8983,11.3791,11.561,11.6099,11.6303,11.6495,11.6418,11.6303,11.6495,11.71,11.7792,11.8715,11.9715,12.0485,12.1177,12.1497,12.1612,12.1612,12.1804,12.2216,12.3101,12.3909,12.4716,12.5601,12.6294,12.669,12.669,12.6921,12.6921,12.669,12.6921,12.6921,12.669,12.669,12.669,12.669,12.669,12.6178,12.5409,12.5216,12.4409,12.3101,12.21,12.1612,12.1612,12.1793,12.1804,12.16,12.1985,12.2408,12.2793,12.21,12.2293,12.2793,12.1908,12.1985,12.2716,12.3024,12.3909,12.4986,12.5486,12.5986,12.6498,12.6601,12.6178,12.5678,12.5678,12.4601,12.3408,12.3408,12.3216,12.2908,12.2908,12.2216,12.1612,12.1612,12.1612,12.1612,12.1612,12.1408,12.142,12.1612,12.0791,11.979,11.902,11.8201,11.7619,11.7096,11.7097,11.7186,11.7419,11.7403,11.7403,11.7403,11.7501,11.7882,11.8788,12.0307,12.1484,12.2187,12.3086,12.3515,12.3515,12.3515,12.3515,12.3515,12.3515,12.3515,9.2633,9.5865,10.0289,10.6597,11.2099,11.5995,11.6418,11.6495,11.6495,11.6495,11.6495,11.6495,11.6495,11.6907,11.7484,11.8292,11.9215,11.9985,12.0908,12.1293,12.1612,12.1612,12.1612,12.1908,12.2793,12.3293,12.3985,12.5293,12.5409,12.5794,12.669,12.6294,12.6306,12.669,12.669,12.6486,12.6101,12.6101,12.5909,12.5486,12.5909,12.5601,12.4793,12.4409,12.3485,12.2293,12.1793,12.1612,12.1612,12.1612,12.1612,12.16,12.21,12.2716,12.3408,12.2485,12.2793,12.3293,12.1985,12.1908,12.2408,12.3216,12.3793,12.4409,12.5678,12.5986,12.6178,12.6614,12.6101,12.5409,12.5409,12.4409,12.3408,12.3024,12.2601,12.2293,12.2293,12.1908,12.1612,12.1612,12.1612,12.1612,12.1612,12.1612,12.1497,12.0985,12.0292,11.9408,11.86,11.81,11.748,11.6817,11.7107,11.73,11.7006,11.6984,11.6984,11.6984,11.7096,11.7398,11.791,11.9513,12.0911,12.1809,12.259,12.3019,12.3019,12.3019,12.3019,12.3019,12.3019,12.3019,9.2249,9.672,10.2491,10.9713,11.3907,11.6303,11.6495,11.6495,11.6495,11.6495,11.6495,11.6495,11.6495,11.6599,11.6984,11.7907,11.8715,11.96,12.0408,12.11,12.1612,12.1612,12.1612,12.1908,12.2601,12.2793,12.3485,12.4909,12.4409,12.4716,12.6178,12.5678,12.5678,12.6498,12.6601,12.6421,12.5601,12.5601,12.5293,12.4601,12.5101,12.4986,12.4293,12.3485,12.2601,12.1612,12.1612,12.1612,12.1612,12.1612,12.1689,12.1908,12.2601,12.3485,12.4216,12.3293,12.3408,12.3909,12.2177,12.1612,12.192,12.3408,12.3524,12.3485,12.5794,12.6101,12.5794,12.6486,12.5986,12.5216,12.5216,12.4409,12.3485,12.2793,12.21,12.1612,12.1612,12.1677,12.1804,12.16,12.1612,12.1612,12.1612,12.1612,12.142,12.06,11.9715,11.8908,11.8292,11.7792,11.7407,11.6792,11.7215,11.7292,11.6611,11.6495,11.6495,11.6495,11.6808,11.6993,11.7109,11.8896,12.0192,12.1093,12.198,12.2501,12.2501,12.2501,12.2501,12.2501,12.2501,12.2501,8.9295,9.622,10.4713,11.0088,11.3483,11.5599,11.6303,11.6495,11.6495,11.6495,11.6495,11.6495,11.6495,11.71,11.7907,11.8792,11.96,12.0408,12.1304,12.1485,12.1612,12.1612,12.1612,12.16,12.1804,12.2485,12.2985,12.3216,12.3793,12.4216,12.4409,12.5101,12.5486,12.5601,12.6294,12.6601,12.6486,12.6486,12.6498,12.6294,12.5678,12.5293,12.5216,12.4293,12.3101,12.1612,12.1612,12.1612,12.1612,12.1612,12.1985,12.2716,12.2908,12.3909,12.4986,12.3485,12.3408,12.3909,12.2177,12.1612,12.1804,12.2716,12.3485,12.4101,12.5216,12.5986,12.6614,12.669,12.5486,12.4293,12.4293,12.3101,12.1908,12.1804,12.1689,12.1612,12.1612,12.2216,12.2485,12.1677,12.1612,12.1612,12.1612,12.1612,12.1612,12.1408,12.01,11.9292,11.9908,11.7984,11.6907,11.76,11.71,11.6599,11.6495,11.6495,11.6495,11.6495,11.6485,11.6913,11.7711,11.8712,11.9602,12.0423,12.1797,12.2501,12.2501,12.2501,12.2501,12.2501,12.2501,12.2501,9.1902,9.725,10.3107,10.8713,11.1983,11.4214,11.5484,11.6187,11.6495,11.6495,11.6495,11.6495,11.6495,11.6792,11.7484,11.8908,11.9408,12.01,12.142,12.1612,12.1612,12.1612,12.1612,12.1612,12.1612,12.1908,12.2408,12.2908,12.2793,12.3101,12.3985,12.3985,12.4216,12.4716,12.5486,12.5678,12.5216,12.5678,12.5678,12.5216,12.4909,12.4409,12.3985,12.3601,12.3293,12.2985,12.2985,12.2985,12.2985,12.2985,12.3216,12.3601,12.3601,12.4293,12.5216,12.3485,12.3408,12.3909,12.2177,12.1908,12.2485,12.3293,12.3793,12.4409,12.5678,12.6101,12.5986,12.5986,12.5101,12.3985,12.3524,12.2908,12.2216,12.1677,12.1985,12.2216,12.1689,12.1908,12.21,12.1689,12.1612,12.1612,12.1612,12.1612,12.142,12.0908,11.9908,11.91,11.8908,11.7907,11.7215,11.71,11.7215,11.6984,11.6484,11.6495,11.6495,11.6495,11.6495,11.6688,11.71,11.7907,11.8792,11.96,12.1222,12.1991,12.1991,12.1991,12.1991,12.1991,12.1488,12.1488,9.2749,9.6519,10.0183,10.5905,10.9406,11.1983,11.4099,11.5291,11.5907,11.6099,11.6418,11.6495,11.6495,11.6495,11.7111,11.8792,11.8908,11.9408,12.0985,12.1304,12.1304,12.1304,12.1497,12.1612,12.1612,12.1612,12.1908,12.2485,12.1985,12.21,12.3408,12.3293,12.3485,12.4101,12.5178,12.5409,12.4793,12.5409,12.5216,12.4101,12.4293,12.3985,12.3216,12.3216,12.3524,12.4101,12.3909,12.3909,12.4101,12.4101,12.4409,12.4716,12.4486,12.4793,12.5216,12.3716,12.3485,12.3601,12.2408,12.2408,12.3024,12.3793,12.4101,12.4293,12.5601,12.5601,12.5101,12.5101,12.4486,12.3716,12.3101,12.2716,12.2408,12.1804,12.21,12.2485,12.1985,12.1804,12.1689,12.1908,12.1804,12.1612,12.1612,12.1612,12.1304,12.0408,11.96,11.8908,11.8215,11.7715,11.7292,11.6907,11.7215,11.7215,11.6611,11.6495,11.6495,11.6495,11.6495,11.6611,11.6792,11.7715,11.8407,11.91,12.0485,12.142,12.1612,12.1612,12.1612,12.1612,12.0677,12.0793,8.8141,9.2104,9.6489,10.1597,10.5482,10.879,11.2099,11.3483,11.4407,11.5187,11.5995,11.6495,11.6495,11.6495,11.7111,11.8792,11.8407,11.8484,12.01,12.0408,12.0408,12.0408,12.11,12.1612,12.1612,12.1612,12.1612,12.1689,12.16,12.16,12.1677,12.3216,12.4101,12.4101,12.5678,12.6601,12.6614,12.6601,12.5794,12.4101,12.4909,12.4909,12.3985,12.3985,12.4101,12.4101,12.3293,12.3408,12.4101,12.4101,12.5101,12.6486,12.5678,12.5409,12.5293,12.4409,12.3601,12.2897,12.2908,12.2908,12.3024,12.3793,12.4101,12.4101,12.4216,12.4216,12.4216,12.4216,12.3601,12.2985,12.2908,12.2293,12.1689,12.1612,12.16,12.1908,12.2716,12.2216,12.1793,12.2716,12.2216,12.1612,12.1612,12.1612,12.1304,12.0408,11.96,11.91,11.8985,11.76,11.6907,11.7588,11.6984,11.6484,11.6495,11.6495,11.6495,11.6495,11.6495,11.6907,11.7715,11.86,11.91,11.91,11.9908,12.0793,12.1612,12.1612,12.1612,12.1612,12.0677,12.0793,8.7823,9.0594,9.3787,9.8904,10.2712,10.5982,10.879,11.1406,11.3407,11.4291,11.5099,11.5918,11.6418,11.6495,11.6907,11.81,11.8023,11.8407,12.01,11.9908,11.9908,12.0985,12.0908,12.0985,12.1485,12.1612,12.1612,12.1612,12.1612,12.1612,12.1612,12.2716,12.3293,12.3293,12.4986,12.6101,12.669,12.6101,12.5293,12.4101,12.4409,12.3793,12.2485,12.3101,12.3293,12.3293,12.3024,12.3716,12.4986,12.5486,12.6101,12.6601,12.5678,12.5409,12.5293,12.4409,12.3909,12.3716,12.3716,12.3985,12.4601,12.4793,12.4601,12.4216,12.4793,12.4216,12.3293,12.3293,12.3101,12.2793,12.2216,12.1793,12.1612,12.1612,12.1612,12.1689,12.1985,12.1793,12.1689,12.1985,12.1793,12.1612,12.1612,12.11,12.0485,11.9715,11.8792,11.81,11.7484,11.6918,11.6599,11.6907,11.6688,11.6495,11.6495,11.6495,11.6495,11.6495,11.6495,11.6907,11.7792,11.81,11.8484,11.91,11.9408,11.9908,12.0793,12.0793,12.0793,12.0716,11.9908,11.9985,8.6491,8.8711,9.1514,9.6429,9.9516,10.2289,10.5982,10.879,11.1021,11.2406,11.3907,11.5099,11.5907,11.6303,11.6907,11.8023,11.7715,11.7984,11.9715,11.9408,11.9408,12.0216,12.0292,12.0485,12.11,12.1189,12.1304,12.1612,12.1612,12.1612,12.1612,12.2716,12.3601,12.4216,12.5293,12.5986,12.6306,12.5678,12.4793,12.3716,12.3716,12.2985,12.1612,12.2216,12.2485,12.2485,12.2793,12.3909,12.5409,12.5678,12.6178,12.6601,12.5678,12.5409,12.5293,12.4716,12.4409,12.4101,12.4409,12.4909,12.5409,12.5101,12.4601,12.4101,12.4101,12.3293,12.2485,12.2485,12.2485,12.2293,12.1804,12.1612,12.1612,12.1612,12.1612,12.1612,12.1612,12.1612,12.1485,12.1177,12.142,12.142,12.092,12.0485,11.9908,11.8792,11.8215,11.7484,11.6599,11.6495,11.6599,11.6907,11.6688,11.6599,11.6907,11.6688,11.6495,11.6495,11.6495,11.6907,11.7792,11.81,11.8407,11.8715,11.8985,11.9408,11.9908,11.9908,11.9985,12.0292,11.9215,11.8985,0.0,0.0,0.0,9.407,9.5699,9.7788,10.3597,10.5597,10.7021,10.9598,11.2099,11.4099,11.5099,11.5918,11.6984,11.8715,11.76,11.71,11.8792,11.91,11.8792,11.7907,11.9292,12.0292,12.0292,12.0292,12.0677,12.1485,12.1612,12.1612,12.1612,12.3216,12.4909,12.6601,12.669,12.6294,12.5409,12.5409,12.4486,12.2908,12.2908,12.2408,12.1612,12.1612,12.1612,12.1689,12.2485,12.3793,12.5293,12.4486,12.5101,12.6614,12.5678,12.5409,12.5409,12.5409,12.4909,12.4293,12.5101,12.5409,12.5293,12.4486,12.4101,12.3793,12.2189,12.16,12.1612,12.1612,12.1612,12.1612,12.1612,12.1612,12.1612,12.1612,12.1612,12.1612,12.1612,12.1612,12.1293,12.0485,12.0985,12.11,11.9408,11.9792,11.9715,11.8011,11.7792,11.7484,11.6599,11.6484,11.6907,11.7715,11.6984,11.6907,11.7715,11.6984,11.6495,11.6495,11.6484,11.6907,11.7792,11.8715,11.8715,11.7907,11.86,11.8985,11.8985,11.8985,11.9485,12.0292,11.86,11.7907,8.3883,0.0,0.0,0.0,0.0,0.0,9.8942,10.1212,10.3789,10.7598,10.9406,11.1098,11.3907,11.511,11.5995,11.6984,11.6803,11.6907,11.7984,11.8215,11.8292,11.8715,11.91,11.9715,12.0216,12.0292,12.0677,12.1485,12.1612,12.1612,12.1612,12.3216,12.4909,12.6601,12.669,12.6294,12.5409,12.4793,12.3909,12.2908,12.2293,12.1793,12.1612,12.1612,12.1908,12.2485,12.21,12.2601,12.3716,12.4601,12.5293,12.5678,12.5486,12.5409,12.5409,12.5409,12.5216,12.5178,12.5986,12.6294,12.6294,12.6101,12.5101,12.3985,12.3485,12.2601,12.1612,12.1612,12.1612,12.1612,12.1612,12.1612,12.1612,12.1612,12.1612,12.1612,12.1612,12.11,12.0793,12.1189,12.142,12.1304,12.0177,11.9715,11.91,11.8023,11.7292,11.6803,11.6484,11.71,11.7484,11.7792,11.76,11.7484,11.7792,11.6984,11.6495,11.6495,11.71,11.7792,11.8715,11.8985,11.8985,11.8715,11.8407,11.7792,11.7176,11.7907,11.8908,12.0292,11.9792,11.9292,8.5569,8.7571,9.0167,9.1352,0.0,0.0,9.6942,9.8634,10.0789,10.4789,10.6482,10.8098,11.0906,11.2406,11.3407,11.4291,11.4984,11.5984,11.76,11.7792,11.7907,11.7984,11.8292,11.8908,11.9715,11.9792,12.0292,12.1485,12.1612,12.1908,12.2601,12.3909,12.5293,12.669,12.669,12.6294,12.5409,12.4486,12.3716,12.2908,12.1985,12.1612,12.1612,12.1612,12.1908,12.2293,12.1793,12.1908,12.2485,12.3793,12.4601,12.4909,12.4909,12.5293,12.5909,12.5909,12.5909,12.5986,12.6486,12.669,12.6601,12.6306,12.5486,12.4601,12.4216,12.3216,12.21,12.21,12.1908,12.1612,12.1612,12.1612,12.1612,12.1612,12.1612,12.1612,12.1612,12.0908,12.0408,12.0485,12.0612,12.0189,11.8908,11.86,11.8292,11.7407,11.71,11.6907,11.6484,11.7292,11.7907,11.8292,11.7715,11.76,11.8292,11.7215,11.6688,11.6984,11.7484,11.8292,11.96,11.96,11.96,11.96,11.91,11.8407,11.76,11.7407,11.7907,11.9292,11.9985,11.9908,8.8229,8.9185,9.0988,9.3236,9.3414,0.0,9.6365,9.725,9.8404,10.152,10.3405,10.5097,10.6905,10.8598,10.9983,11.0714,11.2483,11.4714,11.7215,11.7715,11.7484,11.6611,11.7292,11.81,11.8908,11.8985,11.9715,12.1177,12.142,12.2216,12.3985,12.4793,12.5678,12.669,12.669,12.6178,12.5293,12.4486,12.3601,12.2716,12.1985,12.1612,12.1612,12.1612,12.1612,12.1612,12.1612,12.1612,12.1689,12.2408,12.3216,12.3985,12.4216,12.5216,12.6614,12.669,12.669,12.669,12.6614,12.6601,12.6486,12.5601,12.5293,12.5101,12.4216,12.3408,12.2793,12.2793,12.2216,12.1612,12.1612,12.1612,12.1612,12.1612,12.1612,12.1612,12.1612,12.0908,12.01,11.9292,11.91,11.86,11.6907,11.7292,11.7484,11.6599,11.7215,11.7407,11.6611,11.7292,11.8215,11.8985,11.7677,11.7407,11.8985,11.7484,11.6792,11.76,11.7704,11.8484,12.01,12.0216,12.0216,12.0292,12.0216,11.9792,11.91,11.76,11.7292,11.81,11.9715,12.01,8.9905,9.1694,9.366,9.2122,9.4158,0.0,9.3941,9.5557,9.7904,9.925,10.0414,10.1799,10.4212,10.602,10.7021,10.6405,11.0098,11.3599,11.5484,11.6907,11.7484,11.6611,11.7292,11.7907,11.8011,11.8715,11.9215,11.96,12.0216,12.16,12.3985,12.4293,12.5101,12.669,12.669,12.5909,12.4409,12.4216,12.3293,12.1908,12.1689,12.1612,12.1612,12.1612,12.1612,12.1612,12.1612,12.1612,12.1612,12.1804,12.2408,12.3293,12.4601,12.5409,12.5678,12.6409,12.669,12.6614,12.5909,12.6101,12.6409,12.4909,12.4409,12.4216,12.3408,12.2485,12.1908,12.1908,12.1677,12.1612,12.1612,12.1612,12.1612,12.1612,12.1612,12.1612,12.1612,12.0908,12.01,11.9292,11.91,11.8792,11.7715,11.7715,11.7484,11.6599,11.6599,11.6688,11.6484,11.7907,11.8908,11.91,11.8792,11.8715,11.91,11.7484,11.6611,11.6715,11.7407,11.8292,11.9292,11.9292,11.96,12.0292,11.9715,11.9292,11.91,11.9408,11.96,11.9792,12.0908,12.1304,9.2518,9.3364,9.4874,9.4441,9.5326,0.0,0.0,9.5634,9.6596,9.7904,9.8173,9.8865,10.0991,10.202,10.2904,10.3712,10.7098,11.0021,11.1291,11.4791,11.6984,11.6611,11.6907,11.7292,11.7792,11.8215,11.8792,11.96,12.0485,12.1716,12.3408,12.3909,12.4486,12.5409,12.5409,12.4793,12.3485,12.3485,12.2908,12.1612,12.1612,12.1793,12.2216,12.1793,12.1793,12.2216,12.1804,12.1612,12.1612,12.1612,12.1908,12.2408,12.4101,12.4986,12.5486,12.6421,12.669,12.6601,12.6178,12.5986,12.5909,12.4986,12.4486,12.3985,12.3601,12.2908,12.2216,12.1677,12.1612,12.1612,12.1612,12.1612,12.1612,12.1612,12.1612,12.1612,12.1612,12.0908,12.01,11.9292,11.91,11.8715,11.7407,11.7484,11.7715,11.7215,11.7484,11.7792,11.7792,11.86,11.91,11.91,11.8715,11.8484,11.8484,11.7303,11.6688,11.71,11.76,11.8407,11.96,11.9715,12.01,12.0908,12.01,11.9908,12.0292,12.0292,12.0292,12.0292,12.1177,12.1612,9.5557,9.5566,9.6605,9.7134,9.698,9.672,0.0,0.0,0.0,9.6826,9.6634,9.6711,9.8057,9.8442,9.9173,10.1096,10.3895,10.6097,10.6597,11.1483,11.511,11.5303,11.561,11.5984,11.6715,11.6715,11.76,11.9908,12.0292,12.0985,12.2601,12.3408,12.3909,12.4101,12.4101,12.3716,12.2908,12.2908,12.2485,12.1612,12.1612,12.21,12.2908,12.1985,12.2177,12.3101,12.1985,12.1689,12.1793,12.1689,12.1612,12.1804,12.3293,12.4293,12.4986,12.5909,12.6178,12.6178,12.5986,12.5601,12.5101,12.4793,12.4216,12.3601,12.3601,12.3216,12.2485,12.1793,12.1612,12.1612,12.1612,12.1612,12.1612,12.142,12.1293,12.1304,12.1189,12.06,11.9792,11.8985,11.8792,11.8407,11.6984,11.7484,11.81,11.81,11.86,11.91,11.91,11.9215,11.9292,11.91,11.8484,11.8023,11.7792,11.6984,11.6907,11.7704,11.7792,11.86,12.0216,12.0292,12.06,12.1293,12.0485,12.0408,12.11,12.0408,12.0216,12.06,12.1304,12.1485,9.8942,9.9942,10.0904,9.7326,9.9673,10.1414,9.548,0.0,9.7797,9.572,0.0,9.6365,9.6557,0.0,0.0,9.7096,10.1019,10.3905,10.3289,10.6982,10.9983,11.0791,11.2214,11.3214,11.3291,11.2588,11.4214,11.8908,11.7215,11.7688,12.1485,12.2601,12.3408,12.4101,12.4101,12.3716,12.2908,12.2908,12.2485,12.1612,12.1612,12.21,12.2908,12.1985,12.2485,12.3909,12.2293,12.1985,12.2716,12.1908,12.1612,12.1689,12.2716,12.3101,12.3293,12.4101,12.4409,12.4293,12.3601,12.3716,12.3985,12.2485,12.1997,12.1908,12.1908,12.1793,12.1677,12.16,12.1612,12.1612,12.1612,12.1612,12.142,12.06,12.0408,12.0292,11.9485,11.9292,11.8985,11.81,11.7907,11.7907,11.7715,11.8407,11.8985,11.8985,11.8985,11.91,11.91,11.9715,11.9908,11.9215,11.8985,11.86,11.7907,11.6984,11.6907,11.7704,11.7792,11.86,12.0216,12.0292,12.0292,12.0408,11.9715,11.9292,11.9408,11.9292,11.9985,12.1497,12.1612,12.1177,9.9481,10.0289,10.1289,9.9058,10.0106,10.0798,9.7442,9.7019,9.7057,9.598,0.0,0.0,0.0,0.0,0.0,0.0,9.9211,10.0789,10.0404,10.2789,10.5713,10.9098,11.0098,11.0714,11.1214,11.0906,11.2483,11.6599,11.5407,11.6215,11.9908,12.0908,12.1485,12.1908,12.2408,12.2485,12.21,12.2601,12.2485,12.1612,12.2601,12.3216,12.3601,12.3216,12.3716,12.4793,12.3101,12.2601,12.2793,12.1985,12.1612,12.1689,12.2601,12.2908,12.3024,12.3793,12.4101,12.4101,12.3716,12.3485,12.3216,12.1985,12.1612,12.1612,12.1612,12.1612,12.1612,12.1612,12.1612,12.1612,12.1612,12.1612,12.142,12.0485,12.0292,12.01,11.9292,11.91,11.8792,11.8023,11.8215,11.8407,11.7907,11.81,11.8292,11.8292,11.8792,11.91,11.91,11.9408,11.9292,11.8407,11.8292,11.7984,11.71,11.6676,11.6907,11.7704,11.8715,11.96,12.0292,12.0292,12.0292,12.0292,11.9485,11.91,11.91,11.91,11.9485,12.0177,12.06,12.0908,10.0712,10.1212,10.2202,10.0212,10.0106,9.9942,9.8182,9.7557,9.7096,9.6134,9.6365,0.0,0.0,0.0,9.6374,9.7326,0.0,9.8711,9.8481,9.9712,10.2097,10.5982,10.7482,10.8713,11.0109,10.9598,11.0714,11.4291,11.3407,11.4291,11.8215,11.9408,12.01,12.0292,12.11,12.1612,12.1612,12.2216,12.2216,12.1612,12.2793,12.3716,12.4101,12.3601,12.4293,12.5601,12.3485,12.2793,12.3101,12.21,12.1612,12.1689,12.2293,12.2485,12.2601,12.3485,12.3601,12.3408,12.3408,12.2985,12.2408,12.1793,12.1612,12.1612,12.1612,12.1612,12.1612,12.1612,12.1612,12.1612,12.1612,12.142,12.0985,12.0216,11.9792,11.9408,11.86,11.8407,11.8215,11.76,11.7984,11.8215,11.76,11.7792,11.8215,11.8215,11.8715,11.9215,11.9408,11.9215,11.8908,11.8215,11.7907,11.7407,11.6611,11.6495,11.6984,11.81,11.9715,12.0677,12.0677,12.0408,12.0216,11.9985,11.9215,11.8715,11.8715,11.8715,11.8908,11.91,11.9715,12.0216,10.3597,10.4289,10.501,10.0096,10.0096,10.0212,9.6066,9.7644,9.9029,9.572,9.825,10.0404,9.7904,9.8134,9.8404,9.7634,9.8211,0.0,0.0,9.8327,9.9259,10.0298,10.3982,10.7521,10.9993,10.7982,10.829,11.2522,11.0483,11.1291,11.6303,11.8215,11.9485,12.0292,12.11,12.1612,12.1612,12.16,12.16,12.1612,12.1689,12.2485,12.3985,12.2408,12.3497,12.6498,12.3113,12.2601,12.3909,12.2293,12.1612,12.1612,12.16,12.16,12.1677,12.2601,12.2408,12.1689,12.1689,12.1689,12.16,12.1612,12.1612,12.1612,12.1612,12.1612,12.1612,12.1612,12.1612,12.1612,12.1612,12.0997,12.01,11.9292,11.8484,11.76,11.6803,11.6611,11.6611,11.6484,11.6611,11.6611,11.6484,11.7907,11.91,11.91,11.91,11.9408,12.0216,11.96,11.91,11.91,11.8292,11.7407,11.6611,11.6495,11.7176,11.8908,12.06,12.1612,12.1612,12.0716,11.9908,11.9215,11.8292,11.7781,11.7781,11.7781,11.8292,11.91,11.91,11.8715,10.6521,10.778,10.8713,10.4097,10.2981,10.1904,9.7634,9.8442,9.9144,9.5681,9.8827,10.1019,9.7365,9.7865,9.8519,9.7634,9.775,9.7827,0.0,9.7288,9.7865,9.9875,10.2289,10.4482,10.5905,10.5713,10.679,10.9983,10.9906,11.1483,11.5495,11.7292,11.86,11.9485,12.0292,12.0985,12.1612,12.2216,12.2216,12.1612,12.2716,12.3293,12.3293,12.3293,12.3909,12.4909,12.3793,12.3293,12.3293,12.2716,12.21,12.1689,12.2216,12.21,12.16,12.1908,12.1908,12.1612,12.1612,12.1612,12.1612,12.1612,12.1612,12.1612,12.1612,12.1612,12.1612,12.1612,12.1612,12.1612,12.1612,12.0997,12.01,11.9292,11.8407,11.76,11.6688,11.6495,11.6495,11.6495,11.6495,11.6495,11.6495,11.6995,11.7407,11.7407,11.7907,11.81,11.7792,11.81,11.7984,11.7407,11.71,11.6792,11.6484,11.7611,11.8484,11.91,12.0677,12.1612,12.1612,12.0793,12.0216,11.9908,11.91,11.8715,11.8715,11.8715,11.8792,11.91,11.8484,11.8407,10.8983,11.0021,11.0588,10.6905,10.5597,10.4097,9.9481,10.0212,10.0798,9.7105,9.9673,10.1981,9.9827,9.9327,9.9173,9.8904,0.0,9.7403,0.0,9.6865,9.7557,9.9837,10.1289,10.2712,10.4212,10.4482,10.5713,10.829,10.8713,11.0483,11.4214,11.5984,11.7407,11.86,11.9715,12.0408,12.0677,12.16,12.1716,12.1189,12.2216,12.2793,12.2908,12.3101,12.3485,12.4101,12.3793,12.3524,12.3293,12.3024,12.2601,12.21,12.2293,12.21,12.16,12.1908,12.1908,12.1612,12.1612,12.1612,12.1612,12.1612,12.1612,12.1612,12.1612,12.1612,12.1612,12.1612,12.1612,12.1612,12.1612,12.0716,11.9715,11.9215,11.8215,11.7215,11.6599,11.6495,11.6495,11.6495,11.6495,11.6495,11.6495,11.6495,11.6495,11.6495,11.6984,11.7215,11.6984,11.7215,11.7215,11.6984,11.6688,11.6495,11.6495,11.81,11.91,11.91,12.0677,12.1612,12.1612,12.11,12.06,12.0292,11.9792,11.9485,11.9485,11.9485,11.9485,11.9485,11.8985,11.8792]}]]